[[{"header":{"parameterUnit":"m.s-1","parameterCategory":1,"la1":30.6,"la2":29.2853,"lo1":-89.7004,"lo2":-87.6739,"dy":0.0162,"dx":0.0183,"nx":112,"ny":82,"refTime":"2024-03-29T06:00:00:Z","depth":0,"parameterNumber":2,"parameterNumberName":"U-component_of_WINDS"},"data":[0.0,0.0,0.0,0.0,0.0,0.0,0.0,0.0,0.0,0.0,0.0,0.0,0.0,0.0,0.0,0.0,0.0,0.0,0.0,0.0,0.0,0.0,0.0,0.0,0.0,0.0,0.0,0.0,0.0,0.0,0.0,0.0,0.0,0.0,0.0,0.0,0.0,0.0,0.0,0.0,0.0,0.0,0.0,0.0,0.0,0.0,0.0,0.0,0.0,0.0,0.0,0.0,0.0,0.0,0.0,0.0,0.0,0.0,0.0,0.0,0.0,0.0,0.0,0.0,0.0,0.0,0.0,0.0,0.0,0.0,0.0,0.0,0.0,0.0,0.0,0.0,0.0,0.0,0.0,0.0,0.0,0.0,0.0,0.0,0.0,0.0,0.0,0.0,0.0,0.0,5.4494,5.4494,5.4494,5.4563,5.4667,5.4667,5.5012,5.577,0.0,0.0,0.0,0.0,0.0,0.0,0.0,0.0,0.0,0.0,0.0,0.0,0.0,0.0,0.0,0.0,0.0,0.0,0.0,0.0,0.0,0.0,0.0,0.0,0.0,0.0,0.0,0.0,0.0,0.0,0.0,0.0,0.0,0.0,0.0,0.0,0.0,0.0,0.0,0.0,0.0,0.0,0.0,0.0,0.0,0.0,0.0,0.0,0.0,0.0,0.0,0.0,0.0,0.0,0.0,0.0,0.0,0.0,0.0,0.0,0.0,0.0,0.0,0.0,0.0,0.0,0.0,0.0,0.0,0.0,0.0,0.0,0.0,0.0,0.0,0.0,0.0,0.0,0.0,0.0,0.0,0.0,0.0,0.0,0.0,0.0,0.0,0.0,0.0,0.0,0.0,0.0,0.0,0.0,0.0,0.0,0.0,0.0,0.0,0.0,0.0,0.0,0.0,0.0,5.4494,5.4494,5.4494,5.477,5.5391,5.546,5.577,5.6564,0.0,0.0,0.0,0.0,0.0,0.0,0.0,0.0,0.0,0.0,0.0,0.0,0.0,0.0,0.0,0.0,0.0,0.0,0.0,0.0,0.0,0.0,0.0,0.0,0.0,0.0,0.0,0.0,0.0,0.0,0.0,0.0,0.0,0.0,0.0,0.0,0.0,0.0,0.0,0.0,0.0,0.0,0.0,0.0,0.0,0.0,0.0,0.0,0.0,0.0,0.0,0.0,0.0,0.0,0.0,0.0,0.0,0.0,0.0,0.0,0.0,0.0,0.0,0.0,0.0,0.0,0.0,0.0,0.0,0.0,0.0,0.0,0.0,0.0,0.0,0.0,0.0,0.0,0.0,0.0,0.0,0.0,0.0,0.0,0.0,0.0,0.0,0.0,0.0,0.0,0.0,0.0,0.0,0.0,0.0,0.0,0.0,0.0,0.0,0.0,0.0,0.0,0.0,5.4494,5.4494,5.4494,5.4874,5.5253,5.5598,5.6012,5.6598,5.7357,5.7391,0.0,0.0,0.0,0.0,0.0,0.0,0.0,0.0,0.0,0.0,0.0,0.0,0.0,0.0,0.0,0.0,0.0,0.0,0.0,0.0,0.0,0.0,0.0,0.0,0.0,0.0,0.0,0.0,0.0,0.0,0.0,0.0,0.0,0.0,0.0,0.0,0.0,0.0,0.0,0.0,0.0,0.0,0.0,0.0,0.0,0.0,0.0,0.0,0.0,0.0,0.0,0.0,0.0,0.0,0.0,0.0,0.0,0.0,0.0,0.0,0.0,0.0,0.0,0.0,0.0,0.0,0.0,0.0,0.0,0.0,0.0,0.0,0.0,0.0,0.0,0.0,0.0,0.0,0.0,0.0,0.0,0.0,0.0,0.0,0.0,0.0,0.0,0.0,0.0,0.0,0.0,0.0,0.0,0.0,0.0,0.0,0.0,0.0,0.0,0.0,0.0,0.0,5.4494,5.4563,5.4736,5.5288,5.577,5.6115,5.6702,5.7357,5.8116,5.815,0.0,0.0,0.0,0.0,0.0,0.0,0.0,0.0,0.0,0.0,0.0,0.0,0.0,0.0,0.0,0.0,0.0,0.0,0.0,0.0,0.0,0.0,0.0,0.0,0.0,0.0,0.0,0.0,0.0,0.0,0.0,0.0,0.0,0.0,0.0,0.0,0.0,0.0,0.0,0.0,0.0,0.0,0.0,0.0,0.0,0.0,0.0,0.0,0.0,0.0,0.0,0.0,0.0,0.0,0.0,0.0,0.0,0.0,0.0,0.0,0.0,0.0,0.0,0.0,0.0,0.0,0.0,0.0,0.0,0.0,0.0,0.0,0.0,0.0,0.0,0.0,0.0,0.0,0.0,0.0,0.0,0.0,0.0,0.0,0.0,0.0,0.0,0.0,0.0,0.0,0.0,0.0,0.0,0.0,0.0,0.0,0.0,0.0,0.0,0.0,0.0,0.0,5.4494,5.477,5.546,5.5598,5.6184,5.7633,5.7805,5.815,5.8875,5.8944,0.0,0.0,0.0,0.0,0.0,0.0,0.0,0.0,0.0,0.0,0.0,0.0,0.0,0.0,0.0,0.0,0.0,0.0,0.0,0.0,0.0,0.0,0.0,0.0,0.0,0.0,0.0,0.0,0.0,0.0,0.0,0.0,0.0,0.0,0.0,0.0,0.0,0.0,0.0,0.0,0.0,0.0,0.0,0.0,0.0,0.0,0.0,0.0,0.0,0.0,0.0,0.0,0.0,0.0,0.0,0.0,0.0,0.0,0.0,0.0,0.0,0.0,0.0,0.0,0.0,0.0,0.0,0.0,0.0,0.0,0.0,0.0,0.0,0.0,0.0,0.0,0.0,0.0,0.0,0.0,0.0,0.0,0.0,0.0,0.0,0.0,0.0,0.0,0.0,0.0,0.0,0.0,0.0,0.0,0.0,0.0,0.0,0.0,0.0,0.0,0.0,0.0,5.4991,5.5495,5.6288,5.6771,5.7288,5.784,5.8323,5.8702,5.8978,0.0,0.0,0.0,0.0,0.0,0.0,0.0,0.0,0.0,0.0,0.0,0.0,0.0,0.0,0.0,0.0,0.0,0.0,0.0,0.0,0.0,0.0,0.0,0.0,0.0,0.0,0.0,0.0,0.0,0.0,0.0,0.0,0.0,0.0,0.0,0.0,0.0,0.0,0.0,0.0,0.0,0.0,0.0,0.0,0.0,0.0,0.0,0.0,0.0,0.0,0.0,0.0,0.0,0.0,0.0,0.0,0.0,0.0,0.0,0.0,0.0,0.0,0.0,0.0,0.0,0.0,0.0,0.0,0.0,0.0,0.0,0.0,0.0,0.0,0.0,0.0,0.0,0.0,0.0,0.0,0.0,0.0,0.0,0.0,0.0,0.0,0.0,0.0,0.0,0.0,0.0,0.0,0.0,0.0,0.0,0.0,0.0,0.0,0.0,0.0,0.0,0.0,5.4805,5.5478,5.6288,5.7081,5.7598,5.8012,5.8254,5.8737,5.9012,5.9012,0.0,0.0,0.0,0.0,0.0,0.0,0.0,0.0,0.0,0.0,0.0,0.0,0.0,0.0,0.0,0.0,0.0,0.0,0.0,0.0,0.0,0.0,0.0,0.0,0.0,0.0,0.0,0.0,0.0,0.0,0.0,0.0,0.0,0.0,0.0,0.0,0.0,0.0,0.0,0.0,0.0,0.0,0.0,0.0,0.0,0.0,0.0,0.0,0.0,0.0,0.0,0.0,0.0,0.0,0.0,0.0,0.0,0.0,0.0,0.0,0.0,0.0,0.0,0.0,0.0,0.0,0.0,0.0,0.0,0.0,0.0,0.0,0.0,0.0,0.0,0.0,0.0,0.0,0.0,0.0,0.0,0.0,0.0,0.0,0.0,0.0,0.0,0.0,0.0,0.0,0.0,0.0,0.0,0.0,0.0,0.0,0.0,0.0,0.0,0.0,0.0,0.0,5.4805,5.5992,5.7081,5.784,5.7909,5.8219,5.8944,5.9012,5.9012,0.0,0.0,0.0,0.0,0.0,0.0,0.0,0.0,0.0,0.0,0.0,0.0,0.0,0.0,0.0,0.0,0.0,0.0,0.0,0.0,0.0,0.0,0.0,0.0,0.0,0.0,0.0,0.0,0.0,0.0,0.0,0.0,0.0,0.0,0.0,0.0,0.0,0.0,0.0,0.0,0.0,0.0,0.0,0.0,0.0,0.0,0.0,0.0,0.0,0.0,0.0,0.0,0.0,0.0,0.0,0.0,0.0,0.0,0.0,0.0,0.0,0.0,0.0,0.0,0.0,0.0,0.0,0.0,0.0,0.0,0.0,0.0,0.0,0.0,0.0,0.0,0.0,0.0,0.0,0.0,0.0,0.0,0.0,0.0,0.0,0.0,0.0,0.0,0.0,0.0,0.0,0.0,0.0,0.0,0.0,0.0,0.0,0.0,0.0,0.0,0.0,0.0,0.0,5.5088,5.622,5.7191,5.7941,5.8393,5.8771,5.8978,5.9012,5.9012,5.9012,0.0,0.0,0.0,0.0,0.0,0.0,0.0,0.0,0.0,0.0,0.0,0.0,0.0,0.0,0.0,0.0,0.0,0.0,0.0,0.0,0.0,0.0,0.0,0.0,0.0,0.0,0.0,0.0,0.0,0.0,0.0,0.0,0.0,0.0,0.0,0.0,0.0,0.0,0.0,0.0,0.0,0.0,0.0,0.0,0.0,0.0,0.0,0.0,0.0,0.0,0.0,0.0,0.0,0.0,0.0,0.0,0.0,0.0,0.0,0.0,0.0,0.0,0.0,0.0,0.0,0.0,0.0,0.0,0.0,0.0,0.0,0.0,0.0,0.0,0.0,0.0,0.0,0.0,0.0,0.0,0.0,0.0,0.0,0.0,0.0,0.0,0.0,0.0,0.0,0.0,0.0,0.0,0.0,0.0,0.0,0.0,0.0,0.0,0.0,0.0,0.0,0.0,5.5259,5.6533,5.7627,5.8069,5.8632,5.9012,5.9012,5.9012,5.9012,5.9012,0.0,0.0,0.0,0.0,0.0,0.0,0.0,0.0,0.0,0.0,0.0,0.0,0.0,0.0,0.0,0.0,0.0,0.0,0.0,0.0,0.0,0.0,0.0,0.0,0.0,0.0,0.0,0.0,0.0,0.0,0.0,0.0,0.0,0.0,0.0,0.0,0.0,0.0,0.0,0.0,0.0,0.0,0.0,0.0,0.0,0.0,0.0,0.0,0.0,0.0,0.0,0.0,0.0,0.0,0.0,0.0,0.0,0.0,0.0,0.0,0.0,0.0,0.0,0.0,0.0,0.0,0.0,0.0,0.0,0.0,0.0,0.0,0.0,0.0,0.0,0.0,0.0,0.0,0.0,0.0,0.0,0.0,0.0,0.0,0.0,0.0,0.0,0.0,0.0,0.0,0.0,0.0,0.0,0.0,0.0,0.0,0.0,0.0,0.0,0.0,0.0,0.0,5.5303,5.6895,5.8031,5.8031,5.8632,5.9012,5.9012,5.9012,5.9012,5.9012,0.0,0.0,0.0,0.0,0.0,0.0,0.0,0.0,0.0,0.0,0.0,0.0,0.0,0.0,0.0,0.0,0.0,0.0,0.0,0.0,0.0,0.0,0.0,0.0,0.0,0.0,0.0,0.0,0.0,0.0,0.0,0.0,0.0,0.0,0.0,0.0,0.0,0.0,0.0,0.0,0.0,0.0,0.0,0.0,0.0,0.0,0.0,0.0,0.0,0.0,0.0,0.0,0.0,0.0,0.0,0.0,0.0,0.0,0.0,0.0,5.4494,5.4494,0.0,0.0,0.0,0.0,0.0,0.0,0.0,0.0,0.0,0.0,0.0,0.0,0.0,0.0,0.0,0.0,0.0,0.0,0.0,0.0,0.0,0.0,0.0,0.0,0.0,0.0,0.0,0.0,0.0,0.0,0.0,0.0,0.0,0.0,0.0,0.0,0.0,0.0,0.0,0.0,5.528,5.6514,5.7372,5.7372,5.8351,5.9012,5.9012,5.9012,5.9012,5.9012,5.9012,0.0,0.0,0.0,0.0,0.0,0.0,0.0,0.0,0.0,0.0,0.0,0.0,0.0,0.0,0.0,0.0,0.0,0.0,0.0,0.0,0.0,0.0,0.0,0.0,0.0,0.0,0.0,0.0,0.0,0.0,0.0,0.0,0.0,0.0,0.0,0.0,0.0,0.0,0.0,0.0,0.0,0.0,0.0,0.0,0.0,0.0,0.0,0.0,0.0,0.0,0.0,0.0,0.0,0.0,0.0,0.0,0.0,0.0,0.0,5.4494,5.4494,0.0,0.0,0.0,0.0,0.0,0.0,0.0,0.0,0.0,0.0,0.0,0.0,0.0,0.0,0.0,0.0,0.0,0.0,0.0,0.0,0.0,0.0,0.0,0.0,0.0,0.0,0.0,0.0,0.0,0.0,0.0,0.0,0.0,0.0,0.0,0.0,0.0,0.0,0.0,0.0,5.5377,5.6179,5.6768,5.6768,5.7594,5.8103,5.8103,5.8103,5.828,5.8562,5.8562,0.0,0.0,0.0,0.0,0.0,0.0,0.0,0.0,0.0,0.0,0.0,0.0,0.0,0.0,0.0,0.0,0.0,0.0,0.0,0.0,0.0,0.0,0.0,0.0,0.0,0.0,0.0,0.0,0.0,0.0,0.0,0.0,0.0,0.0,0.0,0.0,0.0,0.0,0.0,0.0,0.0,0.0,0.0,0.0,0.0,0.0,0.0,0.0,0.0,0.0,0.0,0.0,0.0,5.4494,5.4494,5.4494,5.4494,5.4494,5.4494,5.4494,5.4494,5.4494,5.4494,0.0,0.0,0.0,0.0,0.0,0.0,0.0,0.0,0.0,0.0,0.0,0.0,0.0,0.0,0.0,0.0,0.0,0.0,0.0,0.0,0.0,0.0,5.256,5.3175,5.3434,5.3337,5.2721,0.0,0.0,0.0,0.0,0.0,0.0,0.0,0.0,0.0,0.0,0.0,5.5409,5.5941,5.6303,5.6303,5.6844,5.7222,5.7222,5.7222,5.7446,5.8031,5.8031,5.8246,0.0,0.0,0.0,0.0,0.0,0.0,0.0,0.0,0.0,0.0,0.0,0.0,0.0,0.0,0.0,0.0,0.0,0.0,0.0,0.0,0.0,0.0,0.0,0.0,0.0,0.0,0.0,0.0,0.0,0.0,0.0,0.0,5.4391,5.4494,0.0,0.0,0.0,0.0,0.0,0.0,0.0,0.0,0.0,0.0,0.0,0.0,0.0,5.4494,5.4494,5.4494,5.4494,5.4494,5.4494,5.4494,5.4494,5.4494,5.4494,5.4494,5.4494,0.0,5.4494,5.4494,0.0,0.0,0.0,0.0,0.0,0.0,0.0,0.0,0.0,0.0,0.0,0.0,0.0,0.0,0.0,0.0,0.0,0.0,0.0,0.0,0.0,0.0,5.3207,5.3304,5.379,5.4244,5.4146,5.3693,5.3337,5.3337,5.3823,5.4244,0.0,0.0,0.0,0.0,0.0,0.0,5.5409,5.5941,5.6303,5.6303,5.6844,5.7222,5.7222,5.7222,5.7446,5.8031,5.7594,5.7814,5.8944,5.752,0.0,0.0,0.0,0.0,0.0,0.0,0.0,0.0,0.0,0.0,0.0,0.0,0.0,0.0,0.0,0.0,0.0,0.0,0.0,0.0,0.0,0.0,0.0,0.0,0.0,0.0,0.0,0.0,0.0,5.4494,5.4494,5.4494,5.4494,5.4494,0.0,0.0,0.0,0.0,0.0,0.0,0.0,0.0,0.0,5.4494,5.4494,5.4494,5.4494,5.4494,5.4494,5.4494,5.4494,5.4494,5.4494,5.4494,5.4494,5.4494,5.4494,5.4494,5.4494,5.4494,5.4494,5.4494,0.0,0.0,0.0,0.0,5.3261,5.3009,5.2509,5.2398,5.2398,5.2398,0.0,0.0,0.0,0.0,0.0,0.0,0.0,5.3434,5.3823,5.392,5.4017,5.4405,5.4729,5.4956,5.4956,5.4729,5.4503,5.4503,5.4762,5.4956,5.4956,5.5215,0.0,0.0,0.0,5.5409,5.5409,5.5653,5.5781,5.5781,5.602,5.6179,5.6179,5.6179,5.6459,5.7072,5.6844,5.7072,5.7959,5.7222,5.6768,0.0,0.0,0.0,0.0,0.0,0.0,0.0,0.0,0.0,0.0,0.0,0.0,0.0,0.0,0.0,0.0,0.0,0.0,0.0,0.0,0.0,0.0,0.0,0.0,0.0,0.0,0.0,0.0,5.4494,5.4494,5.4494,5.4494,5.4494,0.0,0.0,0.0,0.0,0.0,0.0,5.4494,5.4494,5.4494,5.4494,5.4494,5.4494,5.4494,5.4494,5.4494,5.4494,5.4494,5.4494,5.4494,5.4494,5.4598,5.4805,5.4805,5.4908,5.5081,5.4874,5.4805,5.4805,5.5012,5.5081,5.5021,5.46,5.428,5.4095,5.3727,5.3461,5.3337,5.3337,5.3337,5.3369,5.3531,0.0,0.0,0.0,0.0,5.3984,5.4535,5.4665,5.4794,5.528,5.5409,5.5409,5.5409,5.5409,5.5409,5.5409,5.5409,5.5409,5.5409,5.5409,0.0,5.5409,5.5409,5.5409,5.5409,5.5409,5.5409,5.5409,5.5409,5.5507,5.5668,5.5701,5.6011,5.6784,5.6737,5.6942,5.7716,5.732,5.6834,5.6441,0.0,0.0,0.0,0.0,0.0,0.0,0.0,0.0,0.0,0.0,0.0,0.0,0.0,0.0,0.0,0.0,0.0,0.0,0.0,0.0,0.0,0.0,0.0,0.0,0.0,0.0,0.0,0.0,0.0,5.4494,5.4494,0.0,0.0,0.0,0.0,5.4494,5.4494,5.4494,5.4494,5.4494,5.4494,5.4494,5.4494,5.4494,5.4494,5.4494,5.4494,5.4494,5.4494,5.4494,5.4494,5.4494,5.4908,5.5563,5.5563,5.5977,5.6633,5.5874,5.5563,5.5632,5.6391,5.6667,5.6601,5.6031,5.5477,5.4907,5.4311,5.3738,5.3337,5.3337,5.3337,5.3434,5.4146,5.4341,0.0,0.0,5.5312,5.5312,5.5345,5.5377,5.5377,5.5409,5.5409,5.5409,5.5409,5.5409,5.5409,5.5409,5.5409,5.5409,5.5409,0.0,5.5409,5.5409,5.5409,5.5409,5.5409,5.5409,5.5409,5.5409,5.5409,5.5701,5.6381,5.6446,5.6954,5.8264,5.7869,5.8084,5.9254,5.751,5.6579,5.6678,5.5486,0.0,0.0,0.0,0.0,0.0,0.0,0.0,0.0,0.0,0.0,0.0,0.0,0.0,0.0,0.0,0.0,0.0,0.0,0.0,0.0,0.0,0.0,0.0,0.0,0.0,0.0,0.0,0.0,5.4494,5.4494,0.0,5.4494,5.4494,5.4494,5.4494,5.4494,5.4494,5.4494,5.4494,5.4494,5.4494,5.4494,5.4494,5.4494,5.4494,5.4494,5.4529,5.4977,5.5219,5.5253,5.5736,5.6115,5.6391,5.6391,5.6529,5.6805,5.7012,5.6805,5.6391,5.6702,5.6805,5.6774,5.6679,5.6467,5.625,5.5686,5.5423,5.5189,5.4745,5.4665,5.4729,5.4988,5.5053,5.5118,5.5345,5.5409,5.5409,5.5409,5.5409,5.5409,5.5409,5.5409,5.5409,5.5409,5.5409,5.5409,5.5409,5.5409,5.5409,5.5409,5.5409,5.5409,5.5409,5.5409,5.5571,5.6057,5.6122,5.6284,5.677,5.6802,5.6899,5.7158,5.7191,5.7372,5.7883,5.7748,5.78,5.8183,5.7572,5.7275,5.7242,5.6848,5.5986,0.0,0.0,0.0,0.0,0.0,0.0,0.0,0.0,0.0,0.0,0.0,0.0,0.0,0.0,0.0,0.0,0.0,0.0,0.0,0.0,0.0,0.0,0.0,0.0,0.0,5.4494,5.4494,5.4494,5.4494,5.4494,5.4494,5.4494,5.4494,5.4494,5.4494,5.4494,5.4494,5.4494,5.4494,5.4494,5.4736,5.4874,5.4874,5.515,5.5288,5.5288,5.577,5.6012,5.6046,5.6564,5.6943,5.7185,5.7185,5.7322,5.7598,5.8081,5.7978,5.7529,5.7529,5.7529,5.7531,5.7638,5.753,5.7243,5.6525,5.6179,5.5941,5.5572,5.5409,5.5409,5.5409,5.5409,5.5409,5.5409,5.5409,5.5409,5.5409,5.5409,5.5409,5.5409,5.5409,5.5409,5.5409,5.5409,5.5474,5.5733,5.5571,5.5409,5.5409,5.5604,5.5766,5.5766,5.5992,5.6316,5.6802,5.6867,5.7061,5.7514,5.7579,5.7676,5.7903,5.7935,5.8032,5.8292,5.8292,5.8292,5.8292,5.8065,5.7935,5.7935,5.7538,5.6723,5.5462,0.0,0.0,0.0,0.0,0.0,0.0,0.0,0.0,0.0,0.0,0.0,0.0,0.0,0.0,0.0,0.0,0.0,0.0,0.0,0.0,0.0,0.0,0.0,5.4367,5.4494,5.4494,5.4494,5.4494,5.4494,5.4494,5.4494,5.4494,5.4494,5.4494,5.4529,5.4529,5.4529,5.4563,5.4563,5.5288,5.5667,5.5667,5.6426,5.6805,5.6805,5.6805,5.684,5.684,5.6874,5.7253,5.7943,5.7943,5.8357,5.9012,5.9012,5.9012,5.9012,5.9012,5.9012,5.9012,5.9012,5.8632,5.7887,5.6768,5.5941,5.5409,5.5409,5.5409,5.5409,5.5409,5.5409,5.5409,5.5409,5.5409,5.5409,5.5409,5.5409,5.5409,5.5409,5.5442,5.5442,5.5442,5.5474,5.5701,5.6381,5.596,5.5474,5.5474,5.6057,5.651,5.651,5.7126,0.0,5.7611,5.7611,5.7611,5.7644,5.7644,5.7935,5.8615,5.868,5.8972,5.9652,5.9716,5.9716,5.9716,5.9036,5.868,5.868,5.7419,5.6631,5.622,0.0,0.0,0.0,0.0,0.0,0.0,0.0,0.0,0.0,0.0,0.0,0.0,0.0,0.0,0.0,0.0,0.0,0.0,0.0,0.0,0.0,5.2557,5.3281,5.3849,5.4239,5.4494,5.4494,5.4494,5.4494,5.4494,5.4494,5.4494,5.4494,5.4494,5.4736,5.5288,5.5322,5.5563,5.615,5.6357,5.646,5.646,5.6702,5.6805,5.6805,5.7357,5.7598,5.7633,5.815,5.853,5.8702,5.8702,5.8806,5.9012,5.9012,5.9012,5.9012,5.9012,5.9012,5.9012,5.9012,5.8351,5.7372,5.7072,5.6224,5.5409,5.5409,5.5409,5.5409,5.5409,5.5409,5.5409,5.5409,5.5409,5.5409,5.5409,5.5409,5.5409,5.5409,5.583,5.6187,5.6187,5.6608,5.7029,5.7255,5.7126,5.6996,5.6996,5.7158,5.7288,5.7288,5.745,5.7773,5.8259,5.8356,5.8551,5.9069,5.9134,5.9198,5.9393,5.9425,5.949,5.9716,5.9716,5.9716,5.9716,5.9522,5.9425,5.9425,5.8277,5.766,0.0,0.0,0.0,0.0,0.0,0.0,0.0,0.0,0.0,0.0,0.0,0.0,0.0,0.0,0.0,0.0,0.0,0.0,0.0,0.0,0.0,0.0,5.2131,5.2697,5.3281,5.4011,5.4494,5.4494,5.4494,5.4494,5.4494,5.4494,5.4632,5.4943,5.4977,5.5288,5.6081,5.6115,5.6322,5.6771,5.7116,5.7253,5.7253,5.7564,5.7736,5.7736,5.815,5.8357,5.8392,5.8806,5.9012,5.9012,5.9012,5.9012,5.9012,5.9012,5.9012,5.9012,0.0,0.0,0.0,0.0,5.7887,5.6844,5.6844,5.6179,5.5409,5.5409,5.5409,5.5409,5.5409,5.5409,5.5474,5.5766,5.5863,5.5928,5.6251,5.6316,5.6316,5.6316,5.664,5.6931,5.6931,5.7288,5.7676,5.7968,5.8032,0.0,5.8421,5.8227,5.8032,5.8032,5.8259,5.8615,5.9036,5.9069,5.9231,5.9652,5.9716,5.9716,5.9716,5.9716,0.0,0.0,0.0,5.9716,5.9716,5.9716,0.0,0.0,0.0,5.8396,5.8396,5.7682,0.0,0.0,5.5625,5.4945,0.0,0.0,0.0,0.0,0.0,0.0,0.0,0.0,0.0,0.0,0.0,0.0,0.0,0.0,0.0,0.0,5.1655,5.2203,5.2627,5.3683,5.4431,5.4494,5.4494,5.4494,5.4494,5.4598,5.4908,5.5563,5.5701,5.6081,5.6874,5.6909,0.0,0.0,0.0,5.8219,5.8288,5.8944,5.9288,5.9288,5.9288,5.9288,5.9288,5.9288,5.9219,5.915,5.915,5.9081,5.9012,5.9012,5.9012,5.9012,5.9012,5.9012,5.8944,5.8351,5.7372,5.6381,5.6303,0.0,0.0,5.5539,5.5604,5.5668,5.5668,5.5668,5.5798,5.6446,5.6608,5.677,5.7417,5.7579,5.7579,5.7579,5.7644,5.7709,5.7709,5.7773,5.8,5.8648,5.8745,5.8972,5.9619,5.9166,5.8745,5.8745,5.9295,5.9716,5.9716,5.9716,5.9716,5.9716,5.9716,0.0,5.9716,5.9716,5.9716,5.9716,5.9716,5.9716,5.9716,5.9716,5.9716,5.9716,5.9274,5.9094,5.9094,5.9094,5.8518,5.7559,5.634,5.544,0.0,0.0,0.0,0.0,0.0,0.0,0.0,0.0,0.0,0.0,0.0,0.0,0.0,0.0,0.0,5.1199,5.1655,5.2059,5.2131,5.3145,5.4045,5.4431,5.4494,5.4494,5.4494,5.5046,5.546,5.5598,5.6219,5.6909,5.7667,5.7702,5.8254,5.9495,5.9668,6.0047,6.0634,6.0771,6.0875,6.0875,6.0875,0.0,6.0875,6.0875,6.053,5.9978,5.9978,5.9599,5.9012,5.9012,5.9012,5.9012,5.9012,5.9012,5.8944,5.8351,5.7668,5.6996,5.6459,5.6334,5.6284,5.6284,5.6672,5.7158,5.7158,5.7158,0.0,5.732,5.7352,5.7417,5.7547,5.7579,5.7579,5.7579,5.8,5.8421,5.8421,5.8874,5.9328,5.949,5.949,5.9555,5.9684,5.9587,5.949,5.949,5.9619,5.9716,5.9716,5.9716,5.9716,5.9716,5.9716,5.9716,5.9716,5.9716,5.9716,5.9716,5.9716,5.9716,5.9716,5.9716,5.9716,5.9716,5.9628,5.954,5.954,5.954,5.9062,5.8026,5.7835,5.6871,0.0,0.0,0.0,0.0,0.0,0.0,0.0,0.0,0.0,0.0,0.0,5.1199,5.1199,0.0,5.1297,5.1653,5.188,5.2277,5.2935,5.3799,5.4296,5.4114,5.4647,5.5046,5.5046,5.577,5.6357,5.6736,5.7116,5.784,5.8978,5.9047,5.9564,6.0703,6.0737,6.0944,6.1289,6.1289,6.1289,6.1289,6.1289,6.1289,6.1289,6.1289,6.1116,6.0737,6.0737,6.053,6.0151,6.0151,6.0151,6.0151,6.0151,5.9699,5.9108,5.8869,5.8404,5.7785,5.7182,5.6954,5.7029,5.7029,5.7288,5.7579,5.7579,5.7579,5.7644,5.8,5.8097,5.8194,5.8551,5.8648,5.8648,5.8648,5.8907,5.9166,5.9166,5.9457,5.9716,5.9716,5.9716,5.9716,5.9716,5.9716,5.9716,5.9716,5.9716,5.9716,5.9716,5.9716,5.9716,5.9716,5.9716,5.9716,5.9716,5.9716,5.9716,5.9716,5.9716,5.9716,5.9716,5.9716,5.9716,5.9716,5.9716,5.9716,5.9716,5.9716,5.9331,5.861,5.8303,5.7465,0.0,0.0,0.0,0.0,0.0,0.0,0.0,5.1199,5.1232,5.1361,5.1394,5.1426,5.1556,5.1588,5.1782,5.2333,5.243,5.2746,5.3793,5.446,5.4577,5.3855,5.5003,5.5839,5.5839,5.6564,5.7253,5.7874,5.8185,5.8909,6.0116,6.0323,6.0771,6.1496,6.153,6.1599,6.1737,6.1737,6.1737,6.1737,6.1737,6.1737,6.1737,6.1737,6.1668,6.153,6.1358,6.1289,6.1289,6.1289,6.1289,6.1323,6.1461,6.0865,5.9842,5.9573,5.9006,5.8396,5.78,5.7676,5.7773,5.7773,5.7871,5.8,5.8,5.8,5.8097,5.868,5.8842,5.8972,5.9555,5.9716,5.9716,5.9716,5.9716,5.9716,5.9716,5.9716,5.9716,5.9716,5.9716,5.9716,5.9716,5.9716,5.9716,5.9716,5.9716,5.9716,5.9716,5.9716,5.9716,5.9716,5.9716,5.9716,5.9716,5.9716,5.9716,5.9716,5.9716,5.9716,5.9716,5.9716,5.9716,5.9716,5.9716,5.9716,5.9716,5.9716,5.9452,5.8792,5.8395,5.7746,5.3683,5.3111,5.2697,5.2131,5.1987,5.1842,0.0,5.1199,5.1361,5.1977,5.2074,5.23,5.2948,5.3078,5.311,5.3175,5.3207,5.3207,5.3383,5.3891,5.4171,5.408,5.5585,5.6667,5.6667,5.7357,5.7805,5.7909,5.9185,6.0013,6.0185,6.0806,6.153,6.2324,6.2358,6.2668,6.3324,6.3324,6.3324,6.3324,6.3324,6.3324,6.3324,6.3324,6.2979,6.2324,6.1599,6.1289,6.1289,6.1289,6.1289,6.1358,6.2082,6.2289,6.1899,6.0097,5.9039,5.8429,5.78,5.8,5.8518,5.8518,5.8939,5.949,5.949,5.949,5.949,5.9587,5.9587,5.9619,5.9684,5.9716,5.9716,5.9716,5.9716,5.9716,5.9716,5.9716,5.9716,5.9716,5.9716,5.9716,5.9716,5.9716,5.9716,5.9716,5.9716,5.9716,5.9716,5.9716,5.9716,5.9716,5.9716,5.9716,5.9716,5.9716,5.9716,5.9716,5.9716,5.9716,5.9716,5.9716,5.9716,5.9716,5.9716,5.9716,5.9716,5.9716,5.9241,5.8303,5.8211,5.7933,5.3783,5.3043,5.2345,5.2416,5.2534,5.2499,5.1902,5.2106,5.2495,5.2786,5.2851,5.2948,5.3272,5.3337,5.3466,5.3887,5.3952,5.4082,5.4503,5.5058,5.5413,5.5413,5.6684,5.7398,5.6987,5.7878,5.8737,5.9185,5.984,6.0599,6.1496,6.1806,6.2324,6.3117,6.3117,6.3289,6.36,6.36,6.36,6.36,6.36,6.36,6.36,6.36,6.3427,6.3117,6.2772,6.2634,6.2634,6.2634,6.2634,6.2668,6.3013,6.2638,6.1883,6.1077,6.0578,6.0174,5.9154,5.9004,5.9263,5.9263,5.9457,5.9716,5.9716,5.9716,5.9716,5.9716,5.9716,5.9716,5.9716,5.9716,5.9716,5.9716,5.9716,5.9716,5.9716,5.9716,5.9716,5.9716,5.9716,5.9716,5.9716,5.9716,5.9716,5.9716,5.9716,5.9716,5.9716,5.9716,5.9716,5.9716,5.9716,5.9878,6.0299,6.0332,6.0526,6.0915,6.0915,6.0915,6.0915,6.0558,6.0332,6.0332,5.9943,5.9716,5.9716,5.9452,5.9062,5.861,5.8058,5.7653,5.3721,5.3165,5.2653,5.3085,5.3301,5.318,5.2649,5.2916,5.3369,5.3596,5.3628,5.3661,5.3855,5.3887,5.4082,5.46,5.4697,5.4859,5.5345,5.5781,5.61,5.6303,5.7072,5.7533,5.7374,5.8562,5.9564,6.0151,6.0599,6.1323,6.2427,6.2668,6.3048,6.3565,6.36,6.36,6.36,6.36,6.36,6.36,6.36,6.36,6.36,6.36,6.36,6.36,6.36,6.36,6.36,6.36,6.36,6.36,6.3417,6.2779,6.1917,6.1595,6.135,6.102,6.0033,5.9716,5.9716,5.9716,5.9716,5.9716,5.9716,5.9716,5.9716,5.9716,5.9716,5.9716,5.9716,5.9716,5.9716,5.9716,5.9716,5.9716,5.9716,5.9716,5.9716,5.9716,5.9716,5.9716,5.9716,5.9716,5.9716,5.9716,5.9878,5.9943,5.9749,5.9878,6.0073,6.0267,6.0299,6.0494,6.1012,6.1077,6.1271,6.1789,6.1821,6.1821,6.1821,6.1336,6.1077,6.1077,6.0558,6.0299,6.0299,5.9942,5.9762,5.9548,5.8812,5.8342,5.3766,5.4011,5.402,5.4096,5.4053,5.3902,5.335,5.3304,5.3531,5.4211,5.4373,5.4567,5.5215,5.5345,5.5345,5.5377,5.5377,5.5377,5.5409,5.5409,5.562,5.6257,5.6303,5.6879,5.8117,5.9443,6.0185,6.0185,6.1565,6.2427,6.2496,6.3186,6.3565,6.36,6.36,6.36,6.36,6.36,6.36,6.36,6.36,6.36,6.36,6.36,6.36,6.36,6.36,6.36,6.36,6.36,6.36,6.3526,6.2855,6.2591,6.2436,6.1185,6.0292,5.9716,5.9716,5.9716,5.9716,5.9716,5.9716,5.9716,5.9716,5.9716,5.9716,5.9716,5.9716,5.9716,5.9716,5.9716,5.9716,5.9716,5.9716,5.9716,5.9716,5.9716,5.9716,5.9716,5.9716,5.9716,5.9716,5.9716,5.9716,5.9716,6.0299,6.0494,5.9814,6.0332,6.1012,6.1692,6.1757,6.1757,6.1789,6.1789,6.1789,6.1821,6.1821,6.1821,6.1821,6.1789,6.1789,6.1789,6.1757,6.1757,6.1757,6.1757,6.145,6.0988,6.0988,6.0424,5.3948,5.3846,5.3661,5.401,5.4174,5.4254,5.4017,5.4373,5.4762,5.5021,5.5086,5.515,5.5377,5.5409,5.5409,5.5409,5.5409,5.5409,5.5409,5.5409,5.5491,5.5733,5.6526,5.7206,5.7707,5.889,5.9993,6.0984,6.1968,6.2703,6.3186,6.3462,6.36,6.36,6.36,6.36,6.36,6.36,6.36,6.36,6.36,6.36,6.36,6.36,6.36,6.36,6.36,6.36,6.36,6.3083,6.2931,6.2855,6.2201,6.1723,6.1268,6.0886,6.0292,5.9716,5.9716,5.9716,5.9716,5.9716,5.9716,5.9716,5.9716,5.9716,5.9716,5.9716,5.9716,5.9716,5.9716,5.9716,5.9716,5.9716,5.9716,5.9716,5.9716,5.9716,5.9716,5.9716,5.9716,5.9716,5.9716,6.0105,6.0591,6.1044,6.0915,6.0882,6.1077,6.1303,6.1562,6.1789,6.1821,6.2016,6.2469,6.2534,6.2728,6.3246,6.3279,6.3279,6.3279,6.2793,6.2534,6.2534,6.2048,6.1821,6.1821,6.1515,6.1052,6.0582,6.0201,5.9718,5.4481,5.4448,5.4411,5.4799,5.5005,5.497,5.4842,5.5086,5.5409,5.5409,5.5409,5.5409,5.5409,5.5409,5.5409,5.5409,5.5409,5.5409,5.5409,5.5409,5.5491,5.5733,5.6515,5.7281,5.7785,5.8997,6.0224,6.1435,6.2152,6.2827,6.3565,6.36,6.36,6.36,6.3343,6.3343,6.36,6.3343,6.3343,6.36,6.36,6.36,6.36,6.36,6.36,6.36,6.36,6.36,6.3526,6.2855,6.2591,6.2513,6.1642,6.1103,6.0633,6.0463,6.0033,5.9716,5.9716,5.9716,5.9716,5.9716,5.9716,5.9716,5.9716,5.9716,5.9716,5.9716,5.9716,5.9716,5.9716,5.9716,5.9716,5.9716,5.9716,5.9716,5.9716,5.9716,5.9716,5.9716,5.9911,6.0105,6.0105,6.0688,6.14,6.2081,6.1821,6.1692,6.2145,6.2178,6.2307,6.2566,6.2599,6.2793,6.3246,6.3279,6.3505,6.3991,6.4024,6.4024,6.4024,6.3538,6.3279,6.3279,6.2825,6.2599,6.2599,6.2321,6.1915,6.1631,6.1152,6.0568,5.5193,5.5809,5.6224,5.6303,5.6303,5.61,5.5572,5.5409,5.5409,5.5409,5.5409,5.5442,5.5474,5.5442,5.5442,5.5474,5.5442,5.5409,5.5409,5.5409,5.5653,5.6211,5.6499,5.7084,5.8429,5.9771,6.0763,6.1418,6.2217,6.2931,6.36,6.36,6.3526,6.3526,6.2931,6.2931,6.3526,6.2931,6.2931,6.36,6.3526,6.3526,6.3526,6.3526,6.3526,6.3526,6.36,6.36,6.3526,6.2855,6.2591,6.2436,6.1185,6.0717,6.0548,5.9946,5.9716,5.9716,5.9716,5.9716,5.9716,5.9716,5.9716,5.9716,5.9716,5.9716,5.9716,5.9716,5.9716,5.9716,5.9716,5.9716,5.9716,5.9716,5.9716,5.9716,5.9716,5.9749,5.9781,5.9781,6.0364,6.085,6.0882,6.1433,6.2113,6.2825,6.2955,6.2955,6.2955,6.2955,6.3214,6.3959,6.4024,6.4024,6.4024,6.4024,6.4024,6.4024,6.4024,6.4024,6.4024,6.4024,6.4024,6.4024,6.4024,6.4024,6.4024,6.4024,6.4024,6.3929,6.3484,6.2873,5.6425,5.6171,5.5701,5.6179,5.5941,5.5572,5.5409,5.5409,5.5409,5.5409,5.5409,5.5571,5.6122,5.5766,5.5604,5.6122,5.5766,5.5409,5.5409,5.5409,5.5685,5.6401,5.6918,5.7664,5.8463,5.9435,6.0168,6.0837,6.2445,6.3417,6.36,6.3083,6.2821,6.2821,6.2668,6.2668,6.2821,6.2668,6.2931,6.36,6.2625,6.2391,6.2821,6.2821,6.2821,6.2855,6.3343,6.36,6.3526,6.2855,6.2358,6.1837,6.102,6.0378,5.9979,5.9804,5.9716,5.9716,5.9716,5.9716,5.9716,5.9716,5.9716,5.9716,5.9716,5.9716,5.9716,5.9716,5.9716,5.9716,5.9716,5.9716,5.9716,5.9716,5.9716,5.9716,5.9716,6.0137,6.0526,6.0526,6.1077,6.1724,6.2275,6.2502,6.2858,6.3603,6.3732,6.3732,6.3732,6.3732,6.3797,6.3991,6.4024,6.4024,6.4024,6.4024,6.4024,6.4024,6.4024,6.4024,6.4024,6.4024,6.4024,6.4024,6.4024,6.4024,6.4024,6.4024,6.3802,6.3389,6.326,6.2678,5.6996,5.6691,5.6224,5.6614,5.6224,5.5733,5.5491,5.5409,5.5507,5.583,5.5895,5.6122,5.6834,5.6381,5.6122,5.6834,5.6349,5.5992,5.6316,5.6349,5.651,5.6931,5.7611,5.8194,5.8583,5.9523,6.0292,6.0633,6.1676,6.2469,6.2779,6.2391,6.2201,6.2201,6.2201,6.2201,6.2201,6.2201,6.2358,6.2779,6.2076,6.1917,6.2201,6.2201,6.2201,6.2201,6.2625,6.2779,6.2702,6.2043,6.1595,6.1185,6.0548,6.0033,5.9716,5.9716,5.9716,5.9716,5.9716,5.9716,5.9716,5.9716,5.9716,5.9716,5.9716,5.9716,5.9716,5.9716,5.9716,5.9716,5.9716,5.9716,5.9716,5.9716,5.9976,6.0202,6.0202,6.0753,6.1336,6.166,6.2016,6.2534,6.3246,6.3376,6.3538,6.3959,6.4024,6.4024,6.4024,6.4024,6.4024,6.4024,6.4024,6.4024,6.4024,6.4024,6.4024,6.4024,6.4024,6.4024,6.4024,6.4024,6.4024,6.4024,6.4024,6.4024,6.4024,6.4024,6.3802,6.3484,6.3068,6.2481,5.7297,5.7297,5.7222,5.7222,5.6768,5.6179,5.5572,5.5507,5.5733,5.6381,5.6575,5.6867,5.7579,5.7126,5.6867,5.7611,5.7093,5.6867,5.7482,5.7579,5.7611,5.7709,5.8259,5.868,5.8777,5.9847,6.0548,6.0548,6.0548,6.0853,6.1676,6.1595,6.1595,6.1595,6.1595,6.1595,6.1676,6.1595,6.1595,6.1676,6.1513,6.1513,6.1595,6.1595,6.1595,6.1595,6.1676,6.1676,6.1676,6.102,6.0802,6.0633,6.0033,5.9804,5.9716,5.9716,5.9716,5.9716,5.9716,5.9716,5.9716,5.9716,5.9716,5.9716,5.9716,5.9716,5.9716,5.9716,5.9716,5.9749,5.9846,5.9846,5.9878,5.9976,6.0461,6.0915,6.0915,6.1465,6.2145,6.289,6.3052,6.3246,6.3894,6.4024,6.4024,6.4024,6.4024,6.4024,6.4024,6.4024,6.4024,6.4024,6.4024,6.4024,6.4024,6.4024,6.4024,6.4024,6.4024,6.4024,6.4024,6.4024,6.4024,6.4024,6.4024,6.4024,6.4024,6.4024,6.4024,6.4024,6.3002,6.2481,5.7668,5.7594,5.7222,5.7222,5.6768,5.6179,5.5572,5.5863,5.6349,5.6478,5.6964,5.7611,5.8324,5.7871,5.7611,5.8324,5.7838,5.7417,5.7547,5.7579,5.7806,5.8389,5.8551,5.8874,5.9457,5.9707,5.9892,5.9892,5.9892,6.0378,6.1676,6.1185,6.0886,6.0886,6.0886,6.1103,6.1676,6.1185,6.1185,6.1676,6.06,6.0378,6.0886,6.0886,6.0886,6.0853,6.1432,6.1676,6.1676,6.1595,6.1185,6.0717,6.0548,6.0206,5.9716,5.9716,5.9716,5.9716,5.9716,5.9716,5.9716,5.9716,5.9716,5.9716,5.9716,5.9716,5.9716,5.9716,5.9716,5.9846,6.0461,6.0623,6.0753,6.1303,6.153,6.1627,6.1627,6.221,6.2923,6.3667,6.3829,6.3862,6.3991,6.4024,6.4024,6.4024,6.4024,6.4024,6.4024,6.4024,6.4024,6.4024,6.4024,6.4024,6.4024,6.4024,6.4024,6.4024,6.4024,6.4024,6.4024,6.4024,6.4024,6.4024,6.4024,6.4024,6.4024,6.4024,6.4024,6.4024,6.3389,6.2776,5.7594,5.7668,5.752,5.692,5.6536,5.6277,5.6027,5.6251,5.6705,5.745,5.7871,5.8356,5.9069,5.8615,5.8356,5.9069,5.8583,5.8259,5.8648,5.868,5.881,5.9166,5.9198,5.9328,5.9684,5.9716,5.9716,5.9716,5.9716,5.9946,6.06,6.0378,6.0292,6.0717,6.0378,6.0548,6.1185,6.0548,6.0378,6.0685,6.0033,5.9892,6.0206,6.0206,6.0206,6.0206,6.0515,6.0685,6.0685,6.0685,6.0463,6.0206,6.0206,5.9946,5.9716,5.9716,5.9716,5.9716,5.9716,5.9716,5.9716,5.9716,5.9716,5.9716,5.9716,5.9716,5.9781,6.017,6.0267,6.0429,6.1141,6.1303,6.14,6.1724,6.2081,6.2469,6.2858,6.3214,6.357,6.3959,6.4024,6.4024,6.4024,6.4024,6.4024,6.4024,6.4024,6.4024,6.4024,6.4024,6.4024,6.4024,6.4024,6.4024,6.4024,6.4024,6.4024,6.4024,6.4024,6.4024,6.4024,6.4024,6.4024,6.4024,6.4024,6.4024,6.4024,6.4024,6.4024,6.4024,6.3484,6.2873,5.7147,5.752,5.7814,5.6768,5.6459,5.6501,5.6645,5.6691,5.7093,5.8356,5.8745,5.9036,5.9619,5.9263,5.9069,5.9619,5.9231,5.9069,5.9652,5.9716,5.9716,5.9716,5.9716,5.9716,5.9716,5.9716,5.9716,5.9716,5.9716,5.9716,5.9716,5.9878,6.0207,6.0693,6.0337,6.0337,6.0693,6.0207,5.9878,5.9716,5.9716,5.9716,5.9716,5.9716,5.9716,5.9716,5.9716,5.9716,5.9716,5.9716,5.9716,5.9716,5.9716,5.9716,5.9716,5.9716,5.9716,5.9716,5.9716,5.9814,5.9943,5.9943,5.9943,5.9943,5.9943,6.004,6.0267,6.085,6.1012,6.1174,6.1854,6.2048,6.2081,6.2242,6.2696,6.3279,6.3894,6.4024,6.4024,6.4024,6.4024,6.4024,6.4024,6.4024,6.4024,6.4024,6.4024,6.4024,6.4024,6.4024,6.4024,6.4024,6.4024,6.4024,6.4024,6.4024,6.4024,6.4024,6.4024,6.4024,6.4024,6.4024,6.4024,6.4024,6.4024,6.4024,6.4024,6.4024,6.4024,6.4024,6.3293,6.2776,5.6381,5.7222,5.7959,5.7297,5.7147,5.7196,5.7338,5.738,5.7709,5.8486,5.9166,5.9652,5.9716,5.9652,5.9652,5.9716,5.9652,5.9652,5.9716,5.9716,5.9716,5.9716,5.9716,5.9716,5.9716,5.9716,5.9716,5.9716,5.9716,5.9716,5.9716,6.0332,6.0688,6.0777,6.1303,6.1303,6.0777,6.0688,6.0364,5.9716,5.9716,5.9716,5.9716,5.9716,5.9716,5.9716,5.9716,5.9716,5.9716,5.9716,5.9716,5.9716,5.9716,5.9716,5.9716,5.9716,5.9716,5.9716,5.9716,6.0137,6.0688,6.0688,6.0688,6.0688,6.0688,6.1109,6.1627,6.1692,6.1724,6.1886,6.2599,6.2793,6.2955,6.3635,6.3862,6.3926,6.3991,6.4024,6.4024,6.4024,6.4024,6.4024,6.4024,6.4024,6.4024,6.4024,6.4024,6.4024,6.4024,6.4024,6.4024,6.4024,6.4024,6.4024,6.4024,6.4024,6.4024,6.4024,6.4024,6.4024,6.4024,6.4024,6.4024,6.4024,6.4024,6.4024,6.4024,6.4024,6.4024,6.4024,6.3002,6.2481,5.6768,5.7222,5.7446,5.6844,5.7022,5.7318,5.7511,5.7845,5.8421,5.9134,5.9522,5.9716,5.9716,5.9716,5.9716,5.9716,5.9716,5.9716,5.9716,5.9716,5.9716,5.9716,5.9716,5.9716,5.9716,5.9716,5.9716,5.9716,5.9716,5.9911,6.0332,6.0623,6.0979,6.14,6.166,6.1465,6.0818,6.0785,6.0429,5.9716,5.9716,5.9716,5.9716,5.9716,5.9716,5.9716,5.9716,5.9716,5.9716,5.9716,5.9716,5.9716,5.9716,5.9716,5.9716,5.9716,5.9976,6.0364,6.0364,6.0818,6.14,6.14,6.1692,6.1983,6.153,6.1595,6.1886,6.234,6.2469,6.2631,6.3376,6.357,6.3635,6.3959,6.4024,6.4024,6.4024,6.4024,6.4024,6.4024,6.4024,6.4024,6.4024,6.4024,6.4024,6.4024,6.4024,6.4024,6.4024,6.4024,6.4024,6.4024,6.4024,6.4024,6.4024,6.4024,6.4024,6.4024,6.4024,6.4024,6.4024,6.4024,6.4024,6.4024,6.4024,6.4024,6.4024,6.4024,6.4024,6.4024,6.3196,6.2678,5.6844,5.7222,5.7297,5.6691,5.7099,5.7668,5.7804,5.83,5.8842,5.9555,5.9716,5.9716,5.9716,5.9716,5.9716,5.9716,5.9716,5.9716,5.9716,5.9716,5.9716,5.9716,5.9716,5.9716,5.9716,5.9716,5.9716,5.9716,5.9716,6.004,6.0753,6.0979,6.14,6.2113,6.234,6.2113,6.1433,6.1206,6.0753,6.004,5.9814,5.9716,5.9716,5.9716,5.9716,5.9716,5.9716,5.9716,5.9716,5.9716,5.9716,5.9716,5.9716,5.9846,6.004,6.004,6.0494,6.1109,6.1109,6.1562,6.2145,6.2145,6.2631,6.3117,6.2599,6.2469,6.2566,6.3084,6.3214,6.3344,6.3894,6.4024,6.4024,6.4024,6.4024,6.4024,6.4024,6.4024,6.4024,6.4024,6.4024,6.4024,6.4024,6.4024,6.4024,6.4024,6.4024,6.4024,6.4024,6.4024,6.4024,6.4024,6.4024,6.4024,6.4024,6.4024,6.4024,6.4024,6.4024,6.4024,6.4024,6.4024,6.4121,6.4315,6.4315,6.4412,6.4639,6.4639,6.4639,6.4639,6.4095,6.3281,5.6303,5.7222,5.7959,5.7372,5.7792,5.8297,5.8426,5.8521,5.8842,5.9555,5.9716,5.9716,5.9716,5.9716,5.9716,5.9716,5.9716,5.9716,5.9716,5.9716,5.9716,5.9716,5.9716,5.9716,5.9716,5.9716,5.9716,5.9716,5.9716,6.004,6.0753,6.1433,6.2145,6.2858,6.3603,6.3635,6.289,6.2145,6.1465,6.0785,6.0073,5.9716,5.9716,5.9716,5.9716,5.9716,5.9716,5.9716,5.9716,5.9716,5.9716,5.9716,5.9716,6.017,6.0785,6.0785,6.1206,6.1789,6.1789,6.2275,6.289,6.289,6.3376,6.3991,6.3991,6.3991,6.3991,6.3991,6.3991,6.3991,6.4024,6.4024,6.4024,6.4024,6.4024,6.4024,6.4024,6.4024,6.4024,6.4024,6.4024,6.4024,6.4024,6.4024,6.4024,6.4024,6.4024,6.4024,6.4024,6.4024,6.4024,6.4024,6.4024,6.4024,6.4024,6.4024,6.4024,6.4024,6.4024,6.4024,6.4024,6.4024,6.4315,6.4995,6.5027,6.5384,6.6096,6.6096,6.6096,6.6096,6.5574,6.42,5.6179,5.6303,5.6303,5.6536,5.7179,5.7838,5.7851,5.8657,5.9425,5.9652,5.9716,5.9716,5.9716,5.9716,5.9716,5.9716,5.9716,5.9716,5.9716,5.9716,5.9716,5.9716,5.9716,5.9716,5.9716,5.9716,5.9716,5.9716,5.9716,6.004,6.0753,6.1433,6.2145,6.2858,6.3635,6.3667,6.289,6.2178,6.1465,6.0785,6.0073,5.9716,5.9716,5.9716,5.9716,5.9716,5.9716,5.9716,5.9716,5.9716,5.9716,5.9749,6.0267,6.0591,6.085,6.1303,6.1951,6.2534,6.2534,6.302,6.3667,6.3667,6.3829,6.4024,6.4024,6.4024,6.4024,6.4024,6.4024,6.4024,6.4024,6.4024,6.4024,6.4024,6.4024,6.4024,6.4024,6.4024,6.4024,6.4024,6.4024,6.4024,6.4024,6.4024,6.4024,6.4024,6.4024,6.4024,6.4024,6.4024,6.4024,6.4024,6.4024,6.4024,6.4024,6.4024,6.4024,6.4024,6.4445,6.4704,6.4704,6.5189,6.5546,6.5772,6.5772,6.5869,6.6096,6.6096,6.5475,6.4271,6.4169,6.3127,5.6179,5.6146,5.61,5.6224,5.7134,5.7883,5.7664,5.868,5.9716,5.9716,5.9716,5.9716,5.9716,5.9716,5.9716,5.9716,5.9716,5.9716,5.9716,5.9716,5.9716,5.9716,5.9716,5.9716,5.9716,5.9716,5.9716,5.9716,5.9716,5.9911,6.0364,6.1044,6.1627,6.2081,6.3344,6.3667,6.289,6.2178,6.1465,6.0785,6.0073,5.9716,5.9716,5.9716,5.9716,5.9716,5.9716,5.9716,0.0,5.9716,5.9878,6.017,6.0623,6.1109,6.1627,6.2048,6.2696,6.3311,6.3311,6.3635,6.4024,6.4024,6.4024,6.4024,6.4024,6.4024,6.4024,6.4024,6.4024,6.4024,6.4024,6.4024,6.4024,6.4024,6.4024,6.4024,6.4024,6.4024,6.4024,6.4024,6.4024,6.4024,6.4024,6.4024,6.4024,6.4024,6.4024,6.4024,6.4024,6.4024,6.4024,6.4024,6.425,6.4412,6.4412,6.4412,6.4412,6.4412,6.506,6.5448,6.5448,6.5869,6.6226,6.6517,6.6517,6.6647,6.6906,6.6477,6.5708,6.4643,6.4009,6.2927,0.0,5.6614,5.692,5.6381,5.7343,5.8265,5.7748,5.868,0.0,5.9716,5.9716,5.9716,5.9716,5.9716,5.9716,5.9716,5.9716,5.9716,5.9716,5.9716,5.9716,5.9716,5.9716,5.9716,5.9716,5.9716,5.9716,5.9716,5.9716,5.9716,5.9716,6.0397,6.0785,6.0785,6.2793,6.3505,6.2825,6.2081,6.1433,6.0785,6.0073,5.9716,5.9716,5.9716,5.9716,5.9716,5.9716,5.9716,5.9716,5.9781,6.0202,6.0818,6.0915,6.1724,6.289,6.2955,6.3408,6.4024,6.4024,6.4024,6.4024,6.4024,6.4024,6.4024,6.4024,6.4024,6.4024,6.4024,6.4024,6.4024,6.4024,6.4024,6.4024,6.4024,6.4024,6.4024,6.4024,6.4024,6.4024,6.4024,6.4024,6.4024,6.4024,6.4024,6.4024,6.4024,6.4024,6.4024,6.4024,6.4024,6.4024,6.4088,6.4639,6.506,6.5092,6.5092,6.4996,6.4996,6.5675,6.5966,6.5966,6.5998,6.6353,6.7031,6.7031,6.7354,6.7967,6.691,6.6385,6.6142,6.4623,6.3273,5.5572,0.0,5.5781,5.5653,5.6726,5.7716,0.0,5.868,0.0,0.0,0.0,0.0,5.9716,5.9716,5.9716,5.9716,5.9716,5.9716,5.9716,5.9716,5.9716,5.9716,5.9716,5.9716,5.9716,5.9716,5.9716,5.9716,5.9716,5.9716,5.9716,6.0397,6.0785,6.0785,6.1789,6.2242,6.2081,6.1368,6.0947,6.0785,6.0073,5.9716,5.9716,5.9716,5.9716,5.9716,5.9716,5.9716,5.9749,6.0299,6.0623,6.0915,6.1983,6.2599,6.2955,6.3538,6.3862,6.4024,6.4024,6.4024,6.4024,6.4024,6.4024,6.4024,6.4024,6.4024,6.4024,6.4024,6.4024,6.4024,6.4024,6.4024,6.4024,6.4024,6.4024,6.4024,6.4024,6.4024,6.4024,6.4024,6.4024,6.4024,6.4024,6.4024,6.4024,6.4024,6.4024,6.4024,6.4024,6.4024,6.4218,6.4736,6.493,6.5254,6.5805,6.5869,6.5415,6.4557,6.5123,6.5195,6.419,6.472,6.5094,6.5249,6.5249,6.5343,6.5467,6.5282,6.4592,6.3698,6.3357,6.2496,5.5409,5.5409,5.5409,5.5409,5.651,5.7579,5.7579,5.868,0.0,0.0,0.0,0.0,5.9716,5.9716,5.9716,5.9716,5.9716,5.9716,5.9716,5.9716,5.9716,5.9716,5.9716,5.9716,5.9716,5.9716,5.9716,5.9716,5.9716,5.9716,5.9716,6.0073,6.0299,6.0299,6.0656,6.1012,6.1336,6.0979,6.0623,6.0299,5.9911,5.9716,5.9716,5.9716,5.9716,5.9716,5.9716,5.9911,6.0235,6.0623,6.1174,6.1821,6.2599,6.3117,6.3441,6.3862,6.4024,6.4024,6.4024,6.4024,6.4024,6.4024,6.4024,6.4024,6.4024,6.4024,6.4024,6.4024,6.4024,6.4024,6.4024,6.4024,6.4024,6.4024,6.4024,6.4024,6.4024,6.4024,6.4024,6.4024,6.4024,6.4024,6.4024,6.4024,6.4024,6.4024,6.4024,6.4024,6.4024,6.4283,6.4606,6.4995,6.561,6.6193,6.6582,6.6377,6.5873,6.4879,6.4988,6.483,6.4149,6.4518,6.4734,6.4734,6.4734,6.4734,6.4734,6.4148,6.3585,6.2899,6.2379,6.185,5.5409,5.5409,5.5409,5.5409,5.651,5.7579,5.7579,0.0,0.0,0.0,0.0,0.0,0.0,5.9716,5.9716,5.9716,5.9716,5.9716,5.9716,5.9716,5.9716,5.9716,5.9716,5.9716,5.9716,5.9716,5.9716,5.9716,5.9716,5.9716,5.9716,5.9716,5.9716,5.9716,5.9716,6.0008,6.0623,6.0623,6.0332,5.9716,5.9716,5.9716,5.9716,5.9716,5.9716,5.9716,5.9846,6.0235,6.0818,6.1012,6.1821,6.289,6.302,6.3441,6.4024,6.4024,6.4024,6.4024,6.4024,6.4024,6.4024,6.4024,6.4024,6.4024,6.4024,6.4024,6.4024,6.4024,6.4024,6.4024,6.4024,6.4024,6.4024,6.4024,6.4024,6.4024,6.4024,6.4024,6.4024,6.4024,6.4024,6.4024,6.4024,6.4024,6.4024,6.4024,6.4024,6.4056,6.4153,6.4671,6.5125,6.5319,6.6452,6.723,6.7327,6.6695,6.5922,6.5324,6.4723,6.4401,6.4178,6.4178,6.4178,6.4178,6.4178,6.4178,6.4178,6.3159,6.2582,6.2582,6.1613,6.1193,5.5409,5.5409,5.5409,5.5409,5.651,5.7579,5.7579,0.0,0.0,0.0,0.0,0.0,5.9716,5.9716,5.9716,5.9716,5.9716,5.9716,5.9716,5.9716,5.9716,5.9716,5.9716,5.9716,5.9716,5.9716,5.9716,5.9716,5.9716,5.9716,5.9716,5.9716,5.9716,5.9716,5.9716,5.9749,5.9878,5.9878,5.9814,5.9716,5.9716,5.9716,5.9716,5.9716,5.9716,5.9749,6.0364,6.0688,6.0882,6.2081,6.2696,6.2955,6.3603,6.3926,6.4024,6.4024,6.4024,6.4024,6.4024,6.4024,6.4024,6.4024,6.4024,6.4024,6.4024,6.4024,6.4024,6.4024,6.4024,6.4024,6.4024,6.4024,6.4024,6.4024,6.4024,6.4024,6.4024,6.4024,6.4024,6.4024,6.4024,6.4024,6.4024,6.4024,6.4024,6.4024,6.4024,6.4218,6.4801,6.4963,6.5481,6.6711,6.7035,6.7424,6.8007,6.6185,6.4892,6.4799,6.375,6.2698,6.1761,6.1761,6.1761,6.1761,6.1761,6.1761,6.1761,6.1523,6.1404,6.1404,6.1313,6.1193,5.5409,5.5409,5.5409,5.5409,5.651,5.7579,5.7579,0.0,0.0,0.0,0.0,5.9716,5.9716,5.9716,5.9716,5.9716,5.9716,5.9716,5.9716,5.9716,5.9716,5.9716,5.9716,5.9716,5.9716,5.9716,5.9716,5.9716,5.9716,5.9716,5.9716,5.9716,5.9716,5.9716,5.9716,5.9716,5.9716,5.9716,5.9716,5.9716,5.9716,5.9716,5.9716,5.9716,5.9716,5.9749,6.0494,6.1012,6.1433,6.2469,6.3117,6.3538,6.3894,6.4024,6.4024,6.4024,6.4024,6.4024,6.4024,6.4024,6.4024,6.4024,6.4024,6.4024,6.4024,6.4024,6.4024,6.4024,6.4024,6.4024,6.4024,6.4024,6.4024,6.4024,6.4024,6.4024,6.4024,6.4024,6.4024,6.4024,6.4024,6.4024,6.4024,6.4024,6.4024,6.4024,6.4024,6.425,6.493,6.5384,6.6031,6.7068,6.7521,6.7877,6.8169,6.6035,6.4178,6.2844,6.2292,6.1732,6.1193,6.1193,6.1193,6.1193,6.1193,6.1193,6.1193,6.1193,6.1193,6.1193,6.1193,6.1193,5.5409,5.5409,5.5409,5.5409,0.0,5.7352,5.7547,0.0,0.0,0.0,0.0,0.0,5.9716,5.9716,5.9716,5.9716,5.9716,5.9716,5.9716,5.9716,5.9716,5.9716,5.9716,5.9716,5.9716,5.9716,5.9716,5.9716,5.9716,5.9716,5.9716,5.9716,5.9716,5.9716,5.9716,5.9716,5.9716,5.9716,5.9716,5.9716,5.9716,5.9716,5.9716,5.9716,5.9814,6.0008,6.072,6.1433,6.2113,6.2858,6.3505,6.4024,6.4024,6.4024,6.4024,6.4024,6.4024,6.4024,6.4024,6.4024,6.4024,6.4024,6.4024,6.4024,6.4024,6.4024,6.4024,6.4024,6.4024,6.4024,6.4024,6.4024,6.4024,6.4024,6.4024,6.4024,6.4024,6.4024,6.4024,6.4024,6.4024,6.4024,6.4024,6.4024,6.4024,6.4024,6.4153,6.4509,6.5189,6.5902,6.6614,6.7359,6.7877,6.7967,6.7427,6.5683,6.3728,6.1313,6.1193,6.1193,6.1193,6.1193,6.1193,6.1193,6.1193,6.1193,6.1193,6.1193,6.1193,6.1193,6.1193,6.1193,5.5409,5.5409,5.5409,5.5409,5.5992,0.0,5.7417,5.8162,0.0,5.9587,0.0,0.0,0.0,5.9716,5.9716,5.9716,5.9716,5.9716,5.9716,5.9716,5.9716,5.9716,5.9716,5.9716,5.9716,5.9716,5.9716,5.9716,5.9716,5.9716,5.9716,5.9716,5.9716,5.9716,5.9716,5.9716,5.9716,5.9716,5.9716,5.9716,5.9716,5.9716,5.9716,5.9716,6.0073,6.0753,6.1433,6.2145,6.2858,6.3635,6.3959,6.4024,6.4024,6.4024,6.4024,6.4024,6.4024,6.4024,6.4024,6.4024,6.4024,6.4024,6.4024,6.4024,6.4024,6.4024,6.4024,6.4024,6.4024,6.4024,6.4024,6.4024,6.4024,6.4024,6.4024,6.4024,6.4024,6.4024,6.4024,6.4024,6.4024,6.4024,6.4024,6.4024,6.4024,6.4024,6.4542,6.5222,6.5934,6.6647,6.7359,6.8072,6.8169,6.7324,6.5173,6.4844,6.3728,6.1313,6.1193,6.1193,6.1193,6.1193,6.1193,6.1193,6.1193,6.1193,6.1193,6.1193,6.1193,6.1193,6.1193,6.1193,5.5409,5.5409,5.5409,5.5409,0.0,0.0,0.0,0.0,0.0,5.9555,5.9716,0.0,0.0,5.9716,5.9716,5.9716,5.9716,5.9716,5.9716,5.9716,5.9716,5.9716,5.9716,5.9716,5.9716,5.9716,5.9716,5.9716,5.9716,5.9716,5.9716,5.9716,5.9716,5.9716,5.9716,5.9716,5.9716,5.9716,5.9716,5.9716,5.9716,5.9716,5.9749,6.017,6.0526,6.085,6.1983,6.2631,6.2955,6.37,6.4024,6.4024,6.4024,6.4024,6.4024,6.4024,6.4024,6.4024,6.4024,6.4024,6.4024,6.4024,6.4024,6.4024,6.4024,6.4024,6.4024,6.4024,6.4024,6.4024,6.4024,6.4024,6.4024,6.4024,6.4024,6.4024,6.4024,6.4024,6.4024,6.4024,6.4024,6.4024,6.4024,6.4024,6.4024,6.4024,6.4606,6.5287,6.6031,6.6744,6.7456,6.8136,6.8201,6.7221,6.4954,6.4734,6.3728,6.1313,6.1193,6.1193,6.1193,6.1193,6.1193,6.1193,6.1193,6.1193,6.1193,6.1193,6.1193,6.1193,6.1193,6.1193,5.5653,5.5701,5.5701,0.0,0.0,0.0,0.0,0.0,5.8637,5.9784,5.9892,5.9716,5.9716,0.0,5.9716,5.9716,5.9716,5.9716,5.9716,5.9716,5.9716,5.9716,5.9716,5.9716,5.9716,5.9716,5.9716,5.9716,5.9716,5.9716,5.9716,5.9716,5.9716,5.9716,5.9716,5.9716,5.9716,5.9716,5.9716,5.9716,5.9716,5.9716,5.9749,6.0461,6.0915,6.1174,6.2372,6.302,6.3279,6.3797,6.4024,6.4024,6.4024,6.4024,6.4024,6.4024,6.4024,6.4024,6.4024,6.4024,6.4024,6.4024,6.4024,6.4024,6.4024,6.4024,6.4024,6.4024,6.4024,6.4024,6.4024,6.4024,6.4024,6.4024,6.4024,6.4024,6.4024,6.4024,6.4024,6.4024,6.4024,6.4024,6.4024,6.4024,6.4088,6.4315,6.493,6.561,6.6355,6.7068,6.7683,6.8136,6.8201,6.7221,6.4954,6.4734,6.3728,6.1313,6.1193,6.1193,6.1193,6.1193,6.1193,6.1193,6.1193,6.1193,6.1193,6.1193,6.1193,6.1193,6.1193,6.1193,5.6179,5.6303,5.6459,0.0,0.0,0.0,5.8507,5.805,5.8222,6.0252,6.012,5.9716,5.9716,5.9716,5.9716,5.9716,5.9716,5.9716,5.9716,5.9716,5.9716,5.9716,5.9716,5.9716,5.9716,5.9716,5.9716,5.9716,5.9716,5.9716,5.9716,5.9716,5.9716,5.9716,5.9716,5.9716,5.9716,5.9716,5.9716,5.9716,5.9716,5.9716,5.9749,6.0461,6.1174,6.1854,6.2566,6.3311,6.4024,6.4024,6.4024,6.4024,6.4024,6.4024,6.4024,6.4024,6.4024,6.4024,6.4024,6.4024,6.4024,6.4024,6.4024,6.4024,6.4024,6.4024,6.4024,6.4024,6.4024,6.4024,6.4024,6.4024,6.4024,6.4024,6.4024,6.4024,6.4024,6.4024,6.4024,6.4024,6.4024,6.4024,6.4024,6.4024,6.425,6.493,6.5643,6.6355,6.71,6.778,6.8201,6.8201,6.8201,6.7221,6.4954,6.4734,6.3728,6.1313,6.1193,6.1193,6.1193,6.1193,6.1193,6.1193,6.1193,6.1193,6.1193,6.1193,6.1193,6.1193,6.1193,6.1193,5.5701,5.6303,0.0,5.6614,0.0,0.0,0.0,5.9036,0.0,0.0,5.9804,5.9716,5.9716,5.9716,5.9716,5.9716,5.9716,5.9716,5.9716,5.9716,5.9716,5.9716,5.9716,5.9716,5.9716,5.9716,5.9716,5.9716,5.9716,5.9716,5.9716,5.9716,5.9716,5.9716,5.9716,5.9716,5.9716,5.9716,5.9716,5.9716,5.9716,5.9976,6.0494,6.1206,6.1886,6.2599,6.3344,6.3797,6.4024,6.4024,6.4024,6.4024,6.4024,6.4024,6.4024,6.4024,6.4024,6.4024,6.4024,6.4024,6.4024,6.4024,6.4024,6.4024,6.4024,6.4024,6.4024,6.4024,6.4024,6.4024,6.4024,6.4024,6.4024,6.4024,6.4024,6.4024,6.4024,6.4024,6.4024,6.4024,6.4024,6.4024,6.4024,6.4024,6.425,6.493,6.5643,6.655,6.7748,6.8072,6.8201,6.8201,6.8201,6.7221,6.4954,6.4734,6.3728,6.1313,6.1193,6.1193,6.1193,6.1193,6.1193,6.1193,6.1193,6.1193,6.1193,6.1193,6.1193,6.1193,6.1193,6.1193,5.6459,5.6996,0.0,5.7816,5.868,5.9674,6.0192,0.0,0.0,0.0,5.9716,5.9716,5.9716,5.9716,5.9716,5.9716,5.9716,5.9716,5.9716,5.9716,5.9716,5.9716,5.9716,5.9716,5.9716,5.9716,5.9716,5.9716,5.9716,5.9716,5.9716,5.9716,5.9716,5.9716,5.9716,5.9716,5.9716,5.9716,5.9716,5.9716,5.9716,6.0235,6.1206,6.1627,6.221,6.2923,6.37,6.4024,6.4024,6.4024,6.4024,6.4024,6.4024,6.4024,6.4024,6.4024,6.4024,6.4024,6.4024,6.4024,6.4024,6.4024,6.4024,6.4024,6.4024,6.4024,6.4024,6.4024,6.4024,6.4024,6.4024,6.4024,6.4024,6.4024,6.4024,6.4024,6.4024,6.4024,6.4024,6.4024,6.4024,6.4024,6.4024,6.4024,6.4347,6.5319,6.629,6.723,6.8104,6.8201,6.8201,6.8201,6.8201,6.7221,6.4954,6.4734,6.3728,6.1313,6.1193,6.1193,6.1193,6.1193,6.1193,6.1193,6.1193,6.1193,6.1193,6.1193,6.1193,6.1193,6.1193,6.1193,5.7741,5.8103,0.0,5.9768,6.0735,0.0,6.1514,6.1152,6.0548,5.9892,5.9716,5.9716,5.9716,5.9716,5.9716,5.9716,5.9716,5.9716,5.9716,5.9716,5.9716,5.9716,5.9716,5.9716,5.9716,5.9716,5.9716,5.9716,5.9716,5.9716,5.9716,5.9716,5.9716,5.9716,5.9716,5.9716,5.9716,5.9716,5.9716,5.9716,5.9716,6.0461,6.1821,6.1821,6.2242,6.302,6.3732,6.4024,6.4024,6.4024,6.4024,6.4024,6.4024,6.4024,6.4024,6.4024,6.4024,6.4024,6.4024,6.4024,6.4024,6.4024,6.4024,6.4024,6.4024,6.4024,6.4024,6.4024,6.4024,6.4024,6.4024,6.4024,6.4024,6.4024,6.4024,6.4024,6.4024,6.4024,6.4024,6.4024,6.4024,6.4024,6.4024,6.4024,6.4477,6.5902,6.7294,6.8201,6.8201,6.8201,6.8201,6.8201,6.8201,6.7221,6.4954,6.4734,6.3728,6.1313,6.1193,6.1193,6.1193,6.1193,6.1193,6.1193,6.1193,6.1193,6.1193,6.1193,6.1193,6.1193,6.1193,6.1193,5.7297,5.8103,0.0,0.0,6.0501,6.1503,6.1602,6.1595,6.1185,5.9946,5.9716,5.9716,5.9716,5.9716,5.9716,5.9716,5.9716,5.9716,5.9716,5.9716,5.9716,5.9716,5.9716,5.9716,5.9716,5.9716,5.9716,5.9716,5.9716,5.9716,5.9716,5.9716,5.9716,5.9716,5.9716,5.9716,5.9716,5.9716,5.9716,5.9716,5.9716,6.0461,6.1821,6.1821,6.2534,6.3764,6.3959,6.4024,6.4024,6.4024,6.4024,6.4024,6.4024,6.4024,6.4024,6.4024,6.4024,6.4024,6.4024,6.4024,6.4024,6.4024,6.4024,6.4024,6.4024,6.4024,6.4024,6.4024,6.4024,6.4024,6.4024,6.4024,6.4024,6.4024,6.4024,6.4024,6.4024,6.4024,6.4024,6.4024,6.4024,6.4024,6.4024,6.4024,6.4477,6.5902,6.7294,6.8201,6.8201,6.8201,6.8201,6.8201,6.8201,6.7221,6.4954,6.4734,6.3728,6.1313,6.1193,6.1193,6.1193,6.1193,6.1193,6.1193,6.1193,6.1193,6.1193,6.1193,6.1193,6.1193,6.1193,6.1193,5.7668,0.0,0.0,6.0621,0.0,6.1961,6.1736,6.1676,6.135,5.9946,5.9979,6.0033,5.9804,5.9716,5.9716,5.9716,5.9716,5.9716,5.9716,5.9716,5.9716,5.9716,5.9716,5.9716,5.9716,5.9716,5.9716,5.9716,5.9716,5.9716,5.9716,5.9716,5.9716,5.9716,5.9716,5.9716,5.9716,5.9716,5.9716,5.9716,5.9716,6.0461,6.1821,6.2534,6.3279,6.4024,6.4024,6.4024,6.4024,6.4024,6.4024,6.4024,6.4024,6.4024,6.4024,6.4024,6.4024,6.4024,6.4024,6.4024,6.4024,6.4024,6.4024,6.4024,6.4024,6.4024,6.4024,6.4024,6.4024,6.4024,6.4024,6.4024,6.4024,6.4024,6.4024,6.4024,6.4024,6.4024,6.4024,6.4024,6.4024,6.4024,6.4024,6.4574,6.5254,6.5999,6.7294,6.8201,6.8201,6.8201,6.8201,6.8201,6.7663,6.6701,6.4844,6.4148,6.3044,6.1313,6.1193,6.1193,6.1193,6.1193,6.1193,6.1193,6.1193,6.1193,6.1193,6.1193,6.1193,6.1193,6.1193,6.1193,5.828,0.0,6.0737,6.2151,6.2644,0.0,6.1997,6.1917,6.1595,6.0206,6.0292,6.0463,5.9804,5.9716,5.9716,5.9716,5.9716,5.9716,5.9716,5.9716,5.9716,5.9716,5.9716,5.9716,5.9716,5.9716,5.9716,5.9716,5.9716,5.9716,5.9716,5.9716,5.9716,5.9716,5.9716,5.9716,5.9716,5.9716,5.9716,5.9716,5.9976,6.0688,6.1854,6.3344,6.4024,6.4024,6.4024,6.4024,6.4024,6.4024,6.4024,6.4024,6.4024,6.4024,6.4024,6.4024,6.4024,6.4024,6.4024,6.4024,6.4024,6.4024,6.4024,6.4024,6.4024,6.4024,6.4024,6.4024,6.4024,6.4024,6.4024,6.4024,6.4024,6.4024,6.4024,6.4024,6.4024,6.4024,6.4024,6.4024,6.4024,6.4024,6.4024,6.5189,6.6096,6.6096,6.7294,6.8201,6.8201,6.8201,6.8201,6.8201,6.7149,6.6035,6.4844,6.3585,6.2379,6.1313,6.1193,6.1193,6.1193,6.1193,6.1193,6.1193,6.1193,6.1193,6.1193,6.1193,6.1193,6.1193,6.1193,6.1193,5.8702,0.0,6.1358,0.0,6.2975,6.3268,6.2591,6.2931,6.2779,6.0936,6.0633,6.0463,5.9804,5.9716,5.9716,5.9716,5.9716,5.9716,5.9716,5.9716,5.9716,5.9716,5.9716,5.9716,5.9716,5.9716,5.9716,5.9716,5.9716,5.9716,5.9716,5.9716,5.9716,5.9716,5.9716,5.9716,5.9716,5.9716,5.9716,5.9716,6.0947,6.1627,6.1854,6.3344,6.4024,6.4024,6.4024,6.4024,6.4024,6.4024,6.4024,6.4024,6.4024,6.4024,6.4024,6.4024,6.4024,6.4024,6.4024,6.4024,6.4024,6.4024,6.4024,6.4024,6.4024,6.4024,6.4024,6.4024,6.4024,6.4024,6.4024,6.4024,6.4024,6.4024,6.4024,6.4024,6.4024,6.4024,6.4024,6.4024,6.4024,6.4024,6.4024,6.5189,6.6096,6.6096,6.7294,6.8201,6.8201,6.8201,6.8201,6.8201,6.7149,6.6035,6.4844,6.3585,6.2379,6.1313,6.1193,6.1193,6.1193,6.1193,6.1193,6.1193,6.1193,6.1193,6.1193,6.1193,6.1193,6.1193,6.1193,6.1193,5.9977,6.0868,6.1679,6.2837,6.3358,6.3417,6.2745,6.3083,6.3042,6.1103,6.102,6.0936,5.9859,5.9716,5.9716,5.9716,5.9716,5.9716,5.9716,5.9716,5.9716,5.9716,5.9716,5.9716,5.9716,5.9716,5.9716,5.9716,5.9716,5.9716,5.9716,5.9716,5.9716,5.9716,5.9716,5.9716,5.9716,5.9716,5.9716,5.9716,6.0753,6.1433,6.1854,6.289,6.3603,6.4024,6.4024,6.4024,6.4024,6.4024,6.4024,6.4024,6.4024,6.4024,6.4024,6.4024,6.4024,6.4024,6.4024,6.4024,6.4024,6.4024,6.4024,6.4024,6.4024,6.4024,6.4024,6.4024,6.4024,6.4024,6.4024,6.4024,6.4024,6.4024,6.4024,6.4024,6.4024,6.4024,6.4024,6.4024,6.4024,6.4024,6.4024,6.5189,6.6096,6.6096,6.7294,6.8201,6.8201,6.8201,6.8201,6.8201,6.6565,6.5282,6.4734,6.3074,6.1732,6.1193,6.1193,6.1193,6.1193,6.1193,6.1193,6.1193,6.1193,6.1193,6.1193,6.1193,6.1193,6.1193,6.1193,6.1193,6.1185,6.1723,6.2084,6.3319,6.36,6.3491,6.3007,6.3268,6.3117,6.135,6.135,6.1268,5.9946,5.9716,5.9716,5.9716,5.9716,5.9716,5.9716,5.9716,5.9716,5.9716,5.9716,5.9716,5.9716,5.9716,5.9716,5.9716,5.9716,5.9716,5.9716,5.9716,5.9716,5.9716,5.9716,5.9716,5.9716,5.9716,5.9716,5.9716,6.0461,6.1141,6.1821,6.2566,6.3311,6.4024,6.4024,6.4024,6.4024,6.4024,6.4024,6.4024,6.4024,6.4024,6.4024,6.4024,6.4024,6.4024,6.4024,6.4024,6.4024,6.4024,6.4024,6.4024,6.4024,6.4024,6.4024,6.4024,6.4024,6.4024,6.4024,6.4024,6.4024,6.4024,6.4024,6.4024,6.4024,6.4024,6.4024,6.4024,6.4024,6.4056,6.425,6.5287,6.6161,6.6355,6.7424,6.8201,6.8201,6.8201,6.8201,6.8201,6.6142,6.4734,6.4734,6.2525,6.1193,6.1193,6.1193,6.1193,6.1193,6.1193,6.1193,6.1193,6.1193,6.1193,6.1193,6.1193,6.1193,6.1193,6.1193,6.1193,6.2013,6.2461,6.2668,6.3393,6.36,6.36,6.36,6.36,6.3193,6.1917,6.1676,6.1268,5.9946,5.9716,5.9716,5.9716,5.9716,5.9716,5.9716,5.9716,5.9716,5.9716,5.9716,5.9716,5.9716,5.9716,5.9716,5.9716,5.9716,5.9716,5.9716,5.9716,5.9716,5.9716,5.9716,5.9716,5.9716,5.9716,5.9716,5.9716,6.0461,6.1141,6.1821,6.2566,6.3311,6.4024,6.4024,6.4024,6.4024,6.4024,6.4024,6.4024,6.4024,6.4024,6.4024,6.4024,6.4024,6.4024,6.4024,6.4024,6.4024,6.4024,6.4024,6.4024,6.4024,6.4024,6.4024,6.4024,6.4024,6.4024,6.4024,6.4024,6.4024,6.4024,6.4024,6.4024,6.4024,6.4024,6.4024,6.4024,6.4024,6.4218,6.4866,6.561,6.6355,6.7035,6.7748,6.8201,6.8201,6.8201,6.8201,6.8201,6.6142,6.4734,6.4734,6.2525,6.1193,6.1193,6.1193,6.1193,6.1193,6.1193,6.1193,6.1193,6.1193,6.1193,6.1193,6.1193,6.1193,6.1193,6.1193,6.1193,6.2251,6.2513,6.2741,6.3457,6.36,6.36,6.36,6.36,6.3268,6.1997,6.1676,6.1268,5.9946,5.9716,5.9716,5.9716,5.9716,5.9716,5.9716,5.9716,5.9716,5.9716,5.9716,5.9716,5.9716,5.9716,5.9716,5.9716,5.9716,5.9716,5.9716,5.9716,5.9716,5.9716,5.9716,5.9716,5.9716,5.9716,5.9716,5.9716,5.9976,6.0688,6.1821,6.2081,6.2858,6.4024,6.4024,6.4024,6.4024,6.4024,6.4024,6.4024,6.4024,6.4024,6.4024,6.4024,6.4024,6.4024,6.4024,6.4024,6.4024,6.4024,6.4024,6.4024,6.4024,6.4024,6.4024,6.4024,6.4024,6.4024,6.4024,6.4024,6.4024,6.4024,6.4024,6.4024,6.4024,6.4024,6.4024,6.4024,6.4024,6.4218,6.4898,6.561,6.6355,6.7068,6.778,6.8201,6.8201,6.8201,6.8201,6.8201,6.6806,6.5498,6.4734,6.3273,6.1939,6.1193,6.1193,6.1193,6.1193,6.1193,6.1193,6.1193,6.1193,6.1193,6.1193,6.1193,6.1193,6.1193,6.1193,6.1193,6.2699,6.289,6.3007,6.3491,6.36,6.36,6.36,6.36,6.3268,6.2201,6.1803,6.1317,6.0206,5.9892,5.9716,5.9716,5.9716,5.9716,5.9716,5.9716,5.9716,5.9716,5.9716,5.9716,5.9716,5.9716,5.9716,5.9716,5.9716,5.9716,5.9716,5.9716,5.9716,5.9716,5.9716,5.9716,5.9716,5.9716,5.9716,5.9716,5.9716,6.0332,6.1465,6.1692,6.2469,6.3635,6.3894,6.4024,6.4024,6.4024,6.4024,6.4024,6.4024,6.4024,6.4024,6.4024,6.4024,6.4024,6.4024,6.4024,6.4024,6.4024,6.4024,6.4024,6.4024,6.4024,6.4024,6.4024,6.4024,6.4024,6.4024,6.4024,6.4024,6.4024,6.4024,6.4024,6.4024,6.4024,6.4024,6.4024,6.4024,6.4315,6.5222,6.5805,6.642,6.7392,6.791,6.8201,6.8201,6.8201,6.8201,6.8201,6.6806,6.5607,6.4734,6.3273,6.2057,6.1193,6.1193,6.1193,6.1193,6.1193,6.1193,6.1193,6.1193,6.1193,6.1193,6.1193,6.1193,6.1193,6.1193,6.1193,0.0,0.0,0.0,6.36,6.36,6.36,6.36,6.36,6.3417,6.2745,6.2088,6.1447,6.0769,6.012,5.9716,5.9716,5.9716,5.9716,5.9716,5.9716,5.9716,5.9716,5.9716,5.9716,5.9716,5.9716,5.9716,5.9716,5.9716,5.9716,5.9716,5.9716,5.9716,5.9716,5.9716,5.9716,5.9716,5.9716,5.9716,5.9716,5.9716,6.0105,6.0818,6.1498,6.221,6.2923,6.37,6.4024,6.4024,6.4024,6.4024,6.4024,6.4024,6.4024,6.4024,6.4024,6.4024,6.4024,6.4024,6.4024,6.4024,6.4024,6.4024,6.4024,6.4024,6.4024,6.4024,6.4024,6.4024,6.4024,6.4024,6.4024,6.4024,6.4024,6.4024,6.4024,6.4024,6.4024,6.4024,6.4024,6.4024,6.4477,6.5869,6.6096,6.6582,6.7974,6.8201,6.8201,6.8201,6.8201,6.8201,6.8201,6.6142,6.4734,6.4734,6.2642,6.1193,6.1193,6.1193,6.1193,6.1193,6.1193,6.1193,6.1193,6.1193,6.1193,6.1193,6.1193,6.1193,6.1193,6.1193,6.1193,6.3531,0.0,0.0,0.0,0.0,0.0,6.36,6.36,6.3417,6.2745,6.2436,6.1963,6.0853,6.0548,6.0292,5.9804,5.9716,5.9716,5.9716,5.9716,5.9716,5.9716,5.9716,5.9716,5.9716,5.9716,5.9716,5.9716,5.9716,5.9716,5.9716,5.9716,5.9716,5.9716,5.9716,5.9716,5.9716,5.9716,5.9716,5.9716,5.9716,6.0105,6.0818,6.1498,6.221,6.2923,6.37,6.4024,6.4024,6.4024,6.4024,6.4024,6.4024,6.4024,6.4024,6.4024,6.4024,6.4024,6.4024,6.4024,6.4024,6.4024,6.4024,6.4024,6.4024,6.4024,6.4024,6.4024,6.4024,6.4024,6.4024,6.4024,6.4024,6.4024,6.4024,6.4024,6.4024,6.4024,6.4024,6.4024,6.4024,6.4477,6.5869,6.6096,6.6582,6.7974,6.8201,6.8201,6.8201,6.8201,6.8201,6.8201,6.691,6.5607,6.4734,6.3273,6.2057,6.1193,6.1193,6.1193,6.1193,6.1193,6.1193,6.1193,6.1193,6.1193,6.1193,6.1193,6.1193,6.1193,6.1193,6.1193,6.36,6.36,6.36,6.36,0.0,0.0,6.36,6.36,6.3491,6.3083,6.2745,6.2358,6.1642,6.102,6.0548,6.0206,5.9892,5.9716,5.9716,5.9716,5.9716,5.9716,5.9716,5.9716,5.9716,5.9716,5.9716,5.9716,5.9716,5.9716,5.9716,5.9716,5.9716,5.9716,5.9716,5.9716,5.9716,5.9716,5.9716,5.9716,5.9716,5.9943,6.0364,6.1368,6.2048,6.2502,6.357,6.4024,6.4024,6.4024,6.4024,6.4024,6.4024,6.4024,6.4024,6.4024,6.4024,6.4024,6.4024,6.4024,6.4024,6.4024,6.4024,6.4024,6.4024,6.4024,6.4024,6.4024,6.4024,6.4024,6.4024,6.4024,6.4024,6.4024,6.4024,6.4024,6.4024,6.4024,6.4024,6.4024,6.4024,6.4477,6.5869,6.6096,6.6582,6.7974,6.8201,6.8201,6.8201,6.8201,6.8201,6.8201,6.7149,6.6035,6.4844,6.3585,6.2379,6.1313,6.1193,6.1193,6.1193,6.1193,6.1193,6.1193,6.1193,6.1193,6.1193,6.1193,6.1193,6.1193,6.1193,6.1193,6.36,6.36,6.36,6.36,6.36,0.0,6.36,6.36,6.36,6.36,6.3083,6.2668,6.2591,6.1642,6.0853,6.0802,6.0206,5.9804,5.9716,5.9716,5.9716,5.9716,5.9716,5.9716,5.9716,5.9716,5.9716,5.9716,5.9716,5.9716,5.9716,5.9716,5.9716,5.9716,5.9716,5.9716,5.9716,5.9716,5.9716,5.9716,5.9716,5.9716,5.9749,6.1174,6.1821,6.1886,6.3376,6.4024,6.4024,6.4024,6.4024,6.4024,6.4024,6.4024,6.4024,6.4024,6.4024,6.4024,6.4024,6.4024,6.4024,6.4024,6.4024,6.4024,6.4024,6.4024,6.4024,6.4024,6.4024,6.4024,6.4024,6.4024,6.4024,6.4024,6.4024,6.4024,6.4024,6.4024,6.4024,6.4024,6.4024,6.4477,6.5869,6.6096,6.6582,6.7974,6.8201,6.8201,6.8201,6.8101,6.8,6.8,6.691,6.5714,6.4623,6.3357,6.2262,6.1313,6.1193,6.1193,6.1193,6.1193,6.1193,6.1193,6.1193,6.1193,6.1193,6.1193,6.1193,6.1193,6.1193,6.1193,6.36,6.36,6.36,6.36,6.36,0.0,6.36,6.36,6.36,6.36,6.3526,6.3268,6.2668,6.2436,6.2043,6.1595,6.0936,6.0292,5.9804,5.9716,5.9716,5.9716,5.9716,5.9716,5.9716,5.9716,5.9716,5.9716,5.9716,5.9716,5.9716,5.9716,5.9716,5.9716,5.9716,5.9716,5.9716,5.9716,5.9716,5.9716,5.9716,5.9716,5.9749,6.1174,6.1821,6.1886,6.3376,6.4024,6.4024,6.4024,6.4024,6.4024,6.4024,6.4024,6.4024,6.4024,6.4024,6.4024,6.4024,6.4024,6.4024,6.4024,6.4024,6.4024,6.4024,6.4024,6.4024,6.4024,6.4024,6.4024,6.4024,6.4024,6.4024,6.4024,6.4024,6.4024,6.4024,6.4024,6.4024,6.4024,6.4024,6.4477,6.5869,6.6096,6.6582,6.7974,6.8201,6.8201,6.8201,6.7459,6.6806,6.6806,6.4923,6.3471,6.3243,6.2175,6.1404,6.1193,6.1193,6.1193,6.1193,6.1193,6.1193,6.1193,6.1193,6.1193,6.1193,6.1193,6.1193,6.1193,6.1193,6.1193,6.36,6.36,6.36,6.36,6.36,0.0,0.0,6.36,6.36,6.36,6.36,6.3491,6.3158,6.2855,6.2513,6.2201,6.1561,6.1103,6.0769,6.012,5.9716,5.9716,5.9716,5.9716,5.9716,5.9716,5.9716,5.9716,5.9716,5.9716,5.9716,5.9716,5.9716,5.9716,5.9716,5.9716,5.9716,5.9716,5.9716,5.9716,5.9716,5.9716,5.9749,6.1174,6.1821,6.1886,6.3376,6.4024,6.4024,6.4024,6.4024,6.4024,6.4024,6.4024,6.4024,6.4024,6.4024,6.4024,6.4024,6.4024,6.4024,6.4024,6.4024,6.4024,6.4024,6.4024,6.4024,6.4024,6.4024,6.4024,6.4024,6.4024,6.4024,6.4024,6.4024,6.4024,6.4024,6.4024,6.4024,6.4024,6.4283,6.4866,6.5934,6.6096,6.6582,6.7974,6.8201,6.8201,6.8201,6.7221,6.6491,6.6491,6.4923,6.3585,6.2899,6.2379,6.185,6.1193,6.1193,6.1193,6.1193,6.1193,6.1193,6.1193,6.1193,6.1073,6.0952,6.0952,6.1073,6.1193,6.1193,6.1193,6.36,6.36,6.36,6.36,6.36,6.36,0.0,0.0,0.0,6.36,6.36,6.36,6.36,6.3193,6.2745,6.2745,6.2279,6.1883,6.1883,6.0685,5.9892,5.9892,5.9804,5.9716,5.9716,5.9716,5.9716,5.9716,5.9716,5.9716,5.9716,5.9716,5.9716,5.9716,5.9716,5.9716,5.9716,5.9716,5.9716,5.9716,5.9716,5.9716,5.9749,6.1044,6.1692,6.1886,6.3214,6.3894,6.4024,6.4024,6.4024,6.4024,6.4024,6.4024,6.4024,6.4024,6.4024,6.4024,6.4024,6.4024,6.4024,6.4024,6.4024,6.4024,6.4024,6.4024,6.4024,6.4024,6.4024,6.4024,6.4024,6.4024,6.4024,6.4024,6.4024,6.4024,6.4024,6.4024,6.4024,6.4024,6.4574,6.5254,6.5967,6.6226,6.6744,6.8007,6.8201,6.8201,6.8201,6.7014,6.6142,6.6142,6.4844,6.3615,6.2698,6.2582,6.2145,6.1313,6.1193,6.1193,6.1193,6.1193,6.1193,6.1073,6.1193,6.0952,6.056,6.0681,6.0831,6.1073,6.1073,6.1193,6.36,6.36,6.36,6.36,6.36,6.36,6.36,0.0,6.36,6.36,0.0,6.36,6.36,0.0,0.0,6.3491,6.2931,6.2513,6.2513,6.1399,6.0548,6.0548,6.0033,5.9716,5.9716,5.9716,5.9716,5.9716,5.9716,5.9716,5.9716,5.9716,5.9716,5.9716,5.9716,5.9716,5.9716,5.9716,5.9716,5.9716,5.9716,5.9716,5.9749,6.0558,6.1239,6.1854,6.2663,6.3408,6.4024,6.4024,6.4024,6.4024,6.4024,6.4024,6.4024,6.4024,6.4024,6.4024,6.4024,6.4024,6.4024,6.4024,6.4024,6.4024,6.4024,6.4024,6.4024,6.4024,6.4024,6.4024,6.4024,6.4024,6.4024,6.4024,6.4024,6.4024,6.4024,6.4024,6.4024,6.4024,6.4574,6.5254,6.5967,6.6647,6.7327,6.8072,6.8201,6.8201,6.8201,6.6248,6.4954,6.4954,6.2959,6.1523,6.1404,6.1404,6.1313,6.1193,6.1193,6.1193,6.1193,6.1193,6.1073,6.0802,6.1073,6.0952,6.0316,6.056,6.0681,6.0802,6.0802,6.0952,6.36,6.36,6.36,6.36,6.36,6.36,6.36,6.36,6.36,6.36,0.0,0.0,0.0,0.0,0.0,0.0,6.3343,6.3158,6.3158,6.2358,6.148,6.0802,6.012,5.9716,5.9716,5.9716,5.9716,5.9716,5.9716,5.9716,5.9716,5.9716,5.9716,5.9716,5.9716,5.9716,5.9716,5.9716,5.9716,5.9716,5.9716,5.9716,5.9749,6.0461,6.1174,6.1854,6.2566,6.3311,6.4024,6.4024,6.4024,6.4024,6.4024,6.4024,6.4024,6.4024,6.4024,6.4024,6.4024,6.4024,6.4024,6.4024,6.4024,6.4024,6.4024,6.4024,6.4024,6.4024,6.4024,6.4024,6.4024,6.4024,6.4024,6.4024,6.4024,6.4024,6.4024,6.4024,6.4024,6.4024,6.4898,6.574,6.6064,6.6711,6.7424,6.8104,6.8201,6.8201,6.8201,6.6806,6.5498,6.4734,6.3159,6.1939,6.1313,6.1193,6.1193,6.1193,6.1193,6.1073,6.0952,6.0952,6.0681,6.0438,6.056,6.0438,5.9948,6.0071,6.01,6.0071,6.0316,6.0438,6.36,6.36,6.36,6.36,6.36,6.36,6.36,6.36,6.36,6.36,6.36,0.0,0.0,0.0,6.36,6.36,0.0,6.36,6.36,6.3007,6.2279,6.135,6.0463,5.9892,5.9716,5.9716,5.9716,5.9716,5.9716,5.9716,5.9716,5.9716,5.9716,5.9716,5.9716,5.9716,5.9716,5.9716,5.9716,5.9716,5.9716,5.9716,5.9749,6.0267,6.0979,6.1821,6.2372,6.3149,6.4024,6.4024,6.4024,6.4024,6.4024,6.4024,6.4024,6.4024,6.4024,6.4024,6.4024,6.4024,6.4024,6.4024,6.4024,6.4024,6.4024,6.4024,6.4024,6.4024,6.4024,6.4024,6.4024,6.4024,6.4024,6.4024,6.4024,6.4024,6.4024,6.4024,6.4056,6.425,6.5287,6.6161,6.6355,6.7003,6.7618,6.7935,6.8101,6.8101,6.8,6.7149,6.6035,6.4844,6.3585,6.2379,6.1193,6.1073,6.1073,6.0952,6.0952,6.0802,6.056,6.056,6.0438,6.0071,6.0194,5.9948,5.9606,5.9606,5.9606,5.9606,5.9948,6.0071,6.36,6.36,6.36,6.36,6.36,6.36,6.36,6.36,6.36,6.36,6.36,6.36,6.36,6.36,6.36,6.36,6.36,0.0,0.0,6.3007,6.2591,6.2513,6.1432,6.0378,5.9804,5.9716,5.9716,5.9716,5.9716,5.9716,5.9716,5.9716,5.9716,5.9716,5.9716,5.9716,5.9716,5.9716,5.9716,5.9716,5.9716,5.9716,5.9716,5.9749,6.0494,6.1821,6.1821,6.2663,6.4024,6.4024,6.4024,6.4024,6.4024,6.4024,6.4024,6.4024,6.4024,6.4024,6.4024,6.4024,6.4024,6.4024,6.4024,6.4024,6.4024,6.4024,6.4024,6.4024,6.4024,6.4024,6.4024,6.4024,6.4024,6.4024,6.4024,6.4024,6.4024,6.4024,6.4218,6.4866,6.561,6.6323,6.7035,6.7715,6.7967,6.7491,6.7899,6.8,6.7491,6.6837,6.6035,6.4844,6.3585,6.2349,6.0802,6.0681,6.056,6.0316,6.0194,6.0194,6.0194,6.0194,6.0071,5.973,6.0071,5.9825,5.9205,5.9606,5.9482,5.9205,5.9606,5.9825,6.36,6.36,6.36,6.36,6.36,6.36,6.36,6.36,6.36,6.36,6.36,6.36,6.36,6.36,6.36,6.36,6.36,6.36,0.0,6.3417,6.3083,6.2668,6.1883,6.1103,6.0463,6.0378,6.0206,5.9716,5.9716,5.9716,5.9716,5.9716,5.9716,5.9716,5.9716,5.9716,5.9716,5.9716,5.9716,5.9716,5.9716,5.9716,5.9716,5.9716,6.0494,6.1821,6.1821,6.2663,6.4024,6.4024,6.4024,6.4024,6.4024,6.4024,6.4024,6.4024,6.4024,6.4024,6.4024,6.4024,6.4024,6.4024,6.4024,6.4024,6.4024,6.4024,6.4024,6.4024,6.4024,6.4024,6.4024,6.4024,6.4024,6.4024,6.4024,6.4024,6.4024,6.4024,6.4218,6.4898,6.561,6.6323,6.7068,6.7748,6.8,6.7491,6.7593,6.7593,6.7388,6.7181,6.6491,6.4844,6.4148,6.2899,6.0923,6.056,6.0316,6.0194,6.0194,6.0071,5.9825,5.9825,5.9702,5.9329,5.9454,5.9454,5.9205,5.9329,5.9329,5.9205,5.9329,5.9454,6.36,6.36,6.36,6.36,6.36,6.36,6.36,6.36,6.36,6.36,6.36,6.36,6.36,6.36,6.36,6.36,6.36,6.36,0.0,6.36,6.3417,6.3007,6.2358,6.1642,6.0802,6.0717,6.0463,5.9716,5.9716,5.9716,5.9716,5.9716,5.9716,5.9716,5.9716,5.9716,5.9716,5.9716,5.9716,5.9716,5.9716,5.9716,5.9716,5.9716,6.0494,6.1821,6.1821,6.2663,6.4024,6.4024,6.4024,6.4024,6.4024,6.4024,6.4024,6.4024,6.4024,6.4024,6.4024,6.4024,6.4024,6.4024,6.4024,6.4024,6.4024,6.4024,6.4056,6.4315,6.4185,6.4056,6.4315,6.4185,6.4024,6.4024,6.4024,6.4024,6.4024,6.4024,6.4283,6.5222,6.5772,6.642,6.7392,6.791,6.8,6.7213,6.6942,6.6733,6.6385,6.6491,6.5929,6.4401,6.4036,6.2899,6.056,6.0071,5.9825,5.9825,5.9825,5.9702,5.9482,5.9482,5.9482,5.9205,5.9205,5.9205,5.9205,5.9205,5.9205,5.9205,5.9205,5.9205]},{"header":{"parameterUnit":"m.s-1","parameterCategory":1,"la1":30.6,"la2":29.2853,"lo1":-89.7004,"lo2":-87.6739,"dy":0.0162,"dx":0.0183,"nx":112,"ny":82,"refTime":"2024-03-29T06:00:00:Z","depth":0,"parameterNumber":3,"parameterNumberName":"V-component_of_WINDS"},"data":[0.0,0.0,0.0,0.0,0.0,0.0,0.0,0.0,0.0,0.0,0.0,0.0,0.0,0.0,0.0,0.0,0.0,0.0,0.0,0.0,0.0,0.0,0.0,0.0,0.0,0.0,0.0,0.0,0.0,0.0,0.0,0.0,0.0,0.0,0.0,0.0,0.0,0.0,0.0,0.0,0.0,0.0,0.0,0.0,0.0,0.0,0.0,0.0,0.0,0.0,0.0,0.0,0.0,0.0,0.0,0.0,0.0,0.0,0.0,0.0,0.0,0.0,0.0,0.0,0.0,0.0,0.0,0.0,0.0,0.0,0.0,0.0,0.0,0.0,0.0,0.0,0.0,0.0,0.0,0.0,0.0,0.0,0.0,0.0,0.0,0.0,0.0,0.0,0.0,0.0,-2.8975,-2.8975,-2.8975,-2.9012,-2.9067,-2.9067,-2.925,-2.9654,0.0,0.0,0.0,0.0,0.0,0.0,0.0,0.0,0.0,0.0,0.0,0.0,0.0,0.0,0.0,0.0,0.0,0.0,0.0,0.0,0.0,0.0,0.0,0.0,0.0,0.0,0.0,0.0,0.0,0.0,0.0,0.0,0.0,0.0,0.0,0.0,0.0,0.0,0.0,0.0,0.0,0.0,0.0,0.0,0.0,0.0,0.0,0.0,0.0,0.0,0.0,0.0,0.0,0.0,0.0,0.0,0.0,0.0,0.0,0.0,0.0,0.0,0.0,0.0,0.0,0.0,0.0,0.0,0.0,0.0,0.0,0.0,0.0,0.0,0.0,0.0,0.0,0.0,0.0,0.0,0.0,0.0,0.0,0.0,0.0,0.0,0.0,0.0,0.0,0.0,0.0,0.0,0.0,0.0,0.0,0.0,0.0,0.0,0.0,0.0,0.0,0.0,0.0,0.0,-2.8975,-2.8975,-2.8975,-2.9122,-2.9452,-2.9489,-2.9654,-3.0075,0.0,0.0,0.0,0.0,0.0,0.0,0.0,0.0,0.0,0.0,0.0,0.0,0.0,0.0,0.0,0.0,0.0,0.0,0.0,0.0,0.0,0.0,0.0,0.0,0.0,0.0,0.0,0.0,0.0,0.0,0.0,0.0,0.0,0.0,0.0,0.0,0.0,0.0,0.0,0.0,0.0,0.0,0.0,0.0,0.0,0.0,0.0,0.0,0.0,0.0,0.0,0.0,0.0,0.0,0.0,0.0,0.0,0.0,0.0,0.0,0.0,0.0,0.0,0.0,0.0,0.0,0.0,0.0,0.0,0.0,0.0,0.0,0.0,0.0,0.0,0.0,0.0,0.0,0.0,0.0,0.0,0.0,0.0,0.0,0.0,0.0,0.0,0.0,0.0,0.0,0.0,0.0,0.0,0.0,0.0,0.0,0.0,0.0,0.0,0.0,0.0,0.0,0.0,-2.8975,-2.8975,-2.8975,-2.9177,-2.9379,-2.9562,-2.9782,-3.0094,-3.0497,-3.0516,0.0,0.0,0.0,0.0,0.0,0.0,0.0,0.0,0.0,0.0,0.0,0.0,0.0,0.0,0.0,0.0,0.0,0.0,0.0,0.0,0.0,0.0,0.0,0.0,0.0,0.0,0.0,0.0,0.0,0.0,0.0,0.0,0.0,0.0,0.0,0.0,0.0,0.0,0.0,0.0,0.0,0.0,0.0,0.0,0.0,0.0,0.0,0.0,0.0,0.0,0.0,0.0,0.0,0.0,0.0,0.0,0.0,0.0,0.0,0.0,0.0,0.0,0.0,0.0,0.0,0.0,0.0,0.0,0.0,0.0,0.0,0.0,0.0,0.0,0.0,0.0,0.0,0.0,0.0,0.0,0.0,0.0,0.0,0.0,0.0,0.0,0.0,0.0,0.0,0.0,0.0,0.0,0.0,0.0,0.0,0.0,0.0,0.0,0.0,0.0,0.0,0.0,-2.8975,-2.9012,-2.9104,-2.9397,-2.9654,-2.9837,-3.0149,-3.0497,-3.0901,-3.0919,0.0,0.0,0.0,0.0,0.0,0.0,0.0,0.0,0.0,0.0,0.0,0.0,0.0,0.0,0.0,0.0,0.0,0.0,0.0,0.0,0.0,0.0,0.0,0.0,0.0,0.0,0.0,0.0,0.0,0.0,0.0,0.0,0.0,0.0,0.0,0.0,0.0,0.0,0.0,0.0,0.0,0.0,0.0,0.0,0.0,0.0,0.0,0.0,0.0,0.0,0.0,0.0,0.0,0.0,0.0,0.0,0.0,0.0,0.0,0.0,0.0,0.0,0.0,0.0,0.0,0.0,0.0,0.0,0.0,0.0,0.0,0.0,0.0,0.0,0.0,0.0,0.0,0.0,0.0,0.0,0.0,0.0,0.0,0.0,0.0,0.0,0.0,0.0,0.0,0.0,0.0,0.0,0.0,0.0,0.0,0.0,0.0,0.0,0.0,0.0,0.0,0.0,-2.8975,-2.9122,-2.9489,-2.9562,-2.9874,-3.0644,-3.0736,-3.0919,-3.1304,-3.1341,0.0,0.0,0.0,0.0,0.0,0.0,0.0,0.0,0.0,0.0,0.0,0.0,0.0,0.0,0.0,0.0,0.0,0.0,0.0,0.0,0.0,0.0,0.0,0.0,0.0,0.0,0.0,0.0,0.0,0.0,0.0,0.0,0.0,0.0,0.0,0.0,0.0,0.0,0.0,0.0,0.0,0.0,0.0,0.0,0.0,0.0,0.0,0.0,0.0,0.0,0.0,0.0,0.0,0.0,0.0,0.0,0.0,0.0,0.0,0.0,0.0,0.0,0.0,0.0,0.0,0.0,0.0,0.0,0.0,0.0,0.0,0.0,0.0,0.0,0.0,0.0,0.0,0.0,0.0,0.0,0.0,0.0,0.0,0.0,0.0,0.0,0.0,0.0,0.0,0.0,0.0,0.0,0.0,0.0,0.0,0.0,0.0,0.0,0.0,0.0,0.0,0.0,-2.9702,-2.9507,-2.9929,-3.0185,-3.0461,-3.0754,-3.1011,-3.1212,-3.1359,0.0,0.0,0.0,0.0,0.0,0.0,0.0,0.0,0.0,0.0,0.0,0.0,0.0,0.0,0.0,0.0,0.0,0.0,0.0,0.0,0.0,0.0,0.0,0.0,0.0,0.0,0.0,0.0,0.0,0.0,0.0,0.0,0.0,0.0,0.0,0.0,0.0,0.0,0.0,0.0,0.0,0.0,0.0,0.0,0.0,0.0,0.0,0.0,0.0,0.0,0.0,0.0,0.0,0.0,0.0,0.0,0.0,0.0,0.0,0.0,0.0,0.0,0.0,0.0,0.0,0.0,0.0,0.0,0.0,0.0,0.0,0.0,0.0,0.0,0.0,0.0,0.0,0.0,0.0,0.0,0.0,0.0,0.0,0.0,0.0,0.0,0.0,0.0,0.0,0.0,0.0,0.0,0.0,0.0,0.0,0.0,0.0,0.0,0.0,0.0,0.0,0.0,-3.0849,-3.0279,-2.9929,-3.0351,-3.0626,-3.0846,-3.0974,-3.1231,-3.1377,-3.1377,0.0,0.0,0.0,0.0,0.0,0.0,0.0,0.0,0.0,0.0,0.0,0.0,0.0,0.0,0.0,0.0,0.0,0.0,0.0,0.0,0.0,0.0,0.0,0.0,0.0,0.0,0.0,0.0,0.0,0.0,0.0,0.0,0.0,0.0,0.0,0.0,0.0,0.0,0.0,0.0,0.0,0.0,0.0,0.0,0.0,0.0,0.0,0.0,0.0,0.0,0.0,0.0,0.0,0.0,0.0,0.0,0.0,0.0,0.0,0.0,0.0,0.0,0.0,0.0,0.0,0.0,0.0,0.0,0.0,0.0,0.0,0.0,0.0,0.0,0.0,0.0,0.0,0.0,0.0,0.0,0.0,0.0,0.0,0.0,0.0,0.0,0.0,0.0,0.0,0.0,0.0,0.0,0.0,0.0,0.0,0.0,0.0,0.0,0.0,0.0,0.0,0.0,-3.1007,-3.056,-3.0351,-3.0754,-3.0791,-3.0956,-3.1341,-3.1377,-3.1377,0.0,0.0,0.0,0.0,0.0,0.0,0.0,0.0,0.0,0.0,0.0,0.0,0.0,0.0,0.0,0.0,0.0,0.0,0.0,0.0,0.0,0.0,0.0,0.0,0.0,0.0,0.0,0.0,0.0,0.0,0.0,0.0,0.0,0.0,0.0,0.0,0.0,0.0,0.0,0.0,0.0,0.0,0.0,0.0,0.0,0.0,0.0,0.0,0.0,0.0,0.0,0.0,0.0,0.0,0.0,0.0,0.0,0.0,0.0,0.0,0.0,0.0,0.0,0.0,0.0,0.0,0.0,0.0,0.0,0.0,0.0,0.0,0.0,0.0,0.0,0.0,0.0,0.0,0.0,0.0,0.0,0.0,0.0,0.0,0.0,0.0,0.0,0.0,0.0,0.0,0.0,0.0,0.0,0.0,0.0,0.0,0.0,0.0,0.0,0.0,0.0,0.0,0.0,-3.3758,-3.2623,-3.1865,-3.2283,-3.1705,-3.1249,-3.1359,-3.1377,-3.1377,-3.1377,0.0,0.0,0.0,0.0,0.0,0.0,0.0,0.0,0.0,0.0,0.0,0.0,0.0,0.0,0.0,0.0,0.0,0.0,0.0,0.0,0.0,0.0,0.0,0.0,0.0,0.0,0.0,0.0,0.0,0.0,0.0,0.0,0.0,0.0,0.0,0.0,0.0,0.0,0.0,0.0,0.0,0.0,0.0,0.0,0.0,0.0,0.0,0.0,0.0,0.0,0.0,0.0,0.0,0.0,0.0,0.0,0.0,0.0,0.0,0.0,0.0,0.0,0.0,0.0,0.0,0.0,0.0,0.0,0.0,0.0,0.0,0.0,0.0,0.0,0.0,0.0,0.0,0.0,0.0,0.0,0.0,0.0,0.0,0.0,0.0,0.0,0.0,0.0,0.0,0.0,0.0,0.0,0.0,0.0,0.0,0.0,0.0,0.0,0.0,0.0,0.0,0.0,-3.5035,-3.3633,-3.2604,-3.2854,-3.2001,-3.1377,-3.1377,-3.1377,-3.1377,-3.1377,0.0,0.0,0.0,0.0,0.0,0.0,0.0,0.0,0.0,0.0,0.0,0.0,0.0,0.0,0.0,0.0,0.0,0.0,0.0,0.0,0.0,0.0,0.0,0.0,0.0,0.0,0.0,0.0,0.0,0.0,0.0,0.0,0.0,0.0,0.0,0.0,0.0,0.0,0.0,0.0,0.0,0.0,0.0,0.0,0.0,0.0,0.0,0.0,0.0,0.0,0.0,0.0,0.0,0.0,0.0,0.0,0.0,0.0,0.0,0.0,0.0,0.0,0.0,0.0,0.0,0.0,0.0,0.0,0.0,0.0,0.0,0.0,0.0,0.0,0.0,0.0,0.0,0.0,0.0,0.0,0.0,0.0,0.0,0.0,0.0,0.0,0.0,0.0,0.0,0.0,0.0,0.0,0.0,0.0,0.0,0.0,0.0,0.0,0.0,0.0,0.0,0.0,-3.5402,-3.4017,-3.3,-3.3,-3.2001,-3.1377,-3.1377,-3.1377,-3.1377,-3.1377,0.0,0.0,0.0,0.0,0.0,0.0,0.0,0.0,0.0,0.0,0.0,0.0,0.0,0.0,0.0,0.0,0.0,0.0,0.0,0.0,0.0,0.0,0.0,0.0,0.0,0.0,0.0,0.0,0.0,0.0,0.0,0.0,0.0,0.0,0.0,0.0,0.0,0.0,0.0,0.0,0.0,0.0,0.0,0.0,0.0,0.0,0.0,0.0,0.0,0.0,0.0,0.0,0.0,0.0,0.0,0.0,0.0,0.0,0.0,0.0,-2.8975,-2.8975,0.0,0.0,0.0,0.0,0.0,0.0,0.0,0.0,0.0,0.0,0.0,0.0,0.0,0.0,0.0,0.0,0.0,0.0,0.0,0.0,0.0,0.0,0.0,0.0,0.0,0.0,0.0,0.0,0.0,0.0,0.0,0.0,0.0,0.0,0.0,0.0,0.0,0.0,0.0,0.0,-3.6937,-3.5314,-3.4133,-3.4133,-3.2511,-3.1377,-3.1377,-3.1377,-3.1377,-3.1377,-3.1377,0.0,0.0,0.0,0.0,0.0,0.0,0.0,0.0,0.0,0.0,0.0,0.0,0.0,0.0,0.0,0.0,0.0,0.0,0.0,0.0,0.0,0.0,0.0,0.0,0.0,0.0,0.0,0.0,0.0,0.0,0.0,0.0,0.0,0.0,0.0,0.0,0.0,0.0,0.0,0.0,0.0,0.0,0.0,0.0,0.0,0.0,0.0,0.0,0.0,0.0,0.0,0.0,0.0,0.0,0.0,0.0,0.0,0.0,0.0,-2.8975,-2.8975,0.0,0.0,0.0,0.0,0.0,0.0,0.0,0.0,0.0,0.0,0.0,0.0,0.0,0.0,0.0,0.0,0.0,0.0,0.0,0.0,0.0,0.0,0.0,0.0,0.0,0.0,0.0,0.0,0.0,0.0,0.0,0.0,0.0,0.0,0.0,0.0,0.0,0.0,0.0,0.0,-3.7352,-3.6135,-3.5129,-3.5129,-3.3757,-3.2873,-3.2873,-3.2873,-3.2638,-3.2128,-3.2128,0.0,0.0,0.0,0.0,0.0,0.0,0.0,0.0,0.0,0.0,0.0,0.0,0.0,0.0,0.0,0.0,0.0,0.0,0.0,0.0,0.0,0.0,0.0,0.0,0.0,0.0,0.0,0.0,0.0,0.0,0.0,0.0,0.0,0.0,0.0,0.0,0.0,0.0,0.0,0.0,0.0,0.0,0.0,0.0,0.0,0.0,0.0,0.0,0.0,0.0,0.0,0.0,0.0,-2.8975,-2.8975,-2.8975,-2.8975,-2.8975,-2.8975,-2.8975,-2.8975,-2.8975,-2.8975,0.0,0.0,0.0,0.0,0.0,0.0,0.0,0.0,0.0,0.0,0.0,0.0,0.0,0.0,0.0,0.0,0.0,0.0,0.0,0.0,0.0,0.0,-3.5452,-3.5867,-3.6042,-3.5976,-3.5561,0.0,0.0,0.0,0.0,0.0,0.0,0.0,0.0,0.0,0.0,0.0,-3.7374,-3.6502,-3.5869,-3.5869,-3.5005,-3.4383,-3.4383,-3.4383,-3.4007,-3.3,-3.3,-3.2619,0.0,0.0,0.0,0.0,0.0,0.0,0.0,0.0,0.0,0.0,0.0,0.0,0.0,0.0,0.0,0.0,0.0,0.0,0.0,0.0,0.0,0.0,0.0,0.0,0.0,0.0,0.0,0.0,0.0,0.0,0.0,0.0,-2.892,-2.8975,0.0,0.0,0.0,0.0,0.0,0.0,0.0,0.0,0.0,0.0,0.0,0.0,0.0,-2.8975,-2.8975,-2.8975,-2.8975,-2.8975,-2.8975,-2.8975,-2.8975,-2.8975,-2.8975,-2.8975,-2.8975,0.0,-2.8975,-2.8975,0.0,0.0,0.0,0.0,0.0,0.0,0.0,0.0,0.0,0.0,0.0,0.0,0.0,0.0,0.0,0.0,0.0,0.0,0.0,0.0,0.0,0.0,-3.5889,-3.5954,-3.6282,-3.6588,-3.6522,-3.6216,-3.5976,-3.5976,-3.6304,-3.6588,0.0,0.0,0.0,0.0,0.0,0.0,-3.7374,-3.6502,-3.5869,-3.5869,-3.5005,-3.4383,-3.4383,-3.4383,-3.4007,-3.3,-3.3757,-3.3379,-3.1506,-3.3882,0.0,0.0,0.0,0.0,0.0,0.0,0.0,0.0,0.0,0.0,0.0,0.0,0.0,0.0,0.0,0.0,0.0,0.0,0.0,0.0,0.0,0.0,0.0,0.0,0.0,0.0,0.0,0.0,0.0,-2.8975,-2.8975,-2.8975,-2.8975,-2.8975,0.0,0.0,0.0,0.0,0.0,0.0,0.0,0.0,0.0,-2.8975,-2.8975,-2.8975,-2.8975,-2.8975,-2.8975,-2.8975,-2.8975,-2.8975,-2.8975,-2.8975,-2.8975,-2.8975,-2.8975,-2.8975,-2.8975,-2.8975,-2.8975,-2.8975,0.0,0.0,0.0,0.0,-3.2479,-3.2963,-3.4755,-3.5343,-3.5343,-3.5343,0.0,0.0,0.0,0.0,0.0,0.0,0.0,-3.6042,-3.6304,-3.6369,-3.6435,-3.6697,-3.6915,-3.7068,-3.7068,-3.6915,-3.6762,-3.6762,-3.6937,-3.7068,-3.7068,-3.7243,0.0,0.0,0.0,-3.7374,-3.7374,-3.7011,-3.6746,-3.6746,-3.638,-3.6135,-3.6135,-3.6135,-3.5623,-3.4632,-3.5005,-3.4632,-3.3126,-3.4383,-3.5129,0.0,0.0,0.0,0.0,0.0,0.0,0.0,0.0,0.0,0.0,0.0,0.0,0.0,0.0,0.0,0.0,0.0,0.0,0.0,0.0,0.0,0.0,0.0,0.0,0.0,0.0,0.0,0.0,-2.8975,-2.8975,-2.8975,-2.8975,-2.8975,0.0,0.0,0.0,0.0,0.0,0.0,-2.8975,-2.8975,-2.8975,-2.8975,-2.8975,-2.8975,-2.8975,-2.8975,-2.8975,-2.8975,-2.8975,-2.8975,-2.8975,-2.8975,-2.903,-2.914,-2.914,-2.9195,-2.9287,-2.9177,-2.914,-2.914,-2.925,-2.9287,-2.9564,-3.1523,-3.2454,-3.2987,-3.4891,-3.5721,-3.5976,-3.5976,-3.5976,-3.5998,-3.6107,0.0,0.0,0.0,0.0,-3.6413,-3.6784,-3.6872,-3.6959,-3.7287,-3.7374,-3.7374,-3.7374,-3.7374,-3.7374,-3.7374,-3.7374,-3.7374,-3.7374,-3.7374,0.0,-3.7374,-3.7374,-3.7374,-3.7374,-3.7374,-3.7374,-3.7374,-3.7374,-3.744,-3.7549,-3.7571,-3.7249,-3.635,-3.6495,-3.6102,-3.4851,-3.5126,-3.5687,-3.6304,0.0,0.0,0.0,0.0,0.0,0.0,0.0,0.0,0.0,0.0,0.0,0.0,0.0,0.0,0.0,0.0,0.0,0.0,0.0,0.0,0.0,0.0,0.0,0.0,0.0,0.0,0.0,0.0,0.0,-2.8975,-2.8975,0.0,0.0,0.0,0.0,-2.8975,-2.8975,-2.8975,-2.8975,-2.8975,-2.8975,-2.8975,-2.8975,-2.8975,-2.8975,-2.8975,-2.8975,-2.8975,-2.8975,-2.8975,-2.8975,-2.8975,-2.9195,-2.9544,-2.9544,-2.9764,-3.0112,-2.9709,-2.9544,-2.958,-2.9984,-3.013,-3.0254,-3.1218,-3.2191,-3.3155,-3.4268,-3.5232,-3.5976,-3.5976,-3.5976,-3.6042,-3.6522,-3.6653,0.0,0.0,-3.7309,-3.7309,-3.733,-3.7352,-3.7352,-3.7374,-3.7374,-3.7374,-3.7374,-3.7374,-3.7374,-3.7374,-3.7374,-3.7374,-3.7374,0.0,-3.7374,-3.7374,-3.7374,-3.7374,-3.7374,-3.7374,-3.7374,-3.7374,-3.7374,-3.7571,-3.8029,-3.8073,-3.7876,-3.7297,-3.8121,-3.772,-3.578,-3.717,-3.7805,-3.7514,-3.7956,0.0,0.0,0.0,0.0,0.0,0.0,0.0,0.0,0.0,0.0,0.0,0.0,0.0,0.0,0.0,0.0,0.0,0.0,0.0,0.0,0.0,0.0,0.0,0.0,0.0,0.0,0.0,0.0,-2.8975,-2.8975,0.0,-2.8975,-2.8975,-2.8975,-2.8975,-2.8975,-2.8975,-2.8975,-2.8975,-2.8975,-2.8975,-2.8975,-2.8975,-2.8975,-2.8975,-2.8975,-2.8993,-2.9232,-2.936,-2.9379,-2.9635,-2.9837,-2.9984,-2.9984,-3.0057,-3.0204,-3.0314,-3.0204,-2.9984,-3.0149,-3.0204,-3.0346,-3.1579,-3.2273,-3.2804,-3.4797,-3.5649,-3.6011,-3.6752,-3.6872,-3.6915,-3.709,-3.7134,-3.7178,-3.733,-3.7374,-3.7374,-3.7374,-3.7374,-3.7374,-3.7374,-3.7374,-3.7374,-3.7374,-3.7374,-3.7374,-3.7374,-3.7374,-3.7374,-3.7374,-3.7374,-3.7374,-3.7374,-3.7374,-3.7483,-3.7811,-3.7855,-3.7964,-3.8292,-3.8313,-3.8379,-3.8554,-3.8575,-3.8516,-3.8312,-3.8586,-3.8438,-3.7784,-3.8287,-3.8451,-3.8429,-3.8525,-3.902,0.0,0.0,0.0,0.0,0.0,0.0,0.0,0.0,0.0,0.0,0.0,0.0,0.0,0.0,0.0,0.0,0.0,0.0,0.0,0.0,0.0,0.0,0.0,0.0,0.0,-2.8975,-2.8975,-2.8975,-2.8975,-2.8975,-2.8975,-2.8975,-2.8975,-2.8975,-2.8975,-2.8975,-2.8975,-2.8975,-2.8975,-2.8975,-2.9104,-2.9177,-2.9177,-2.9324,-2.9397,-2.9397,-2.9654,-2.9782,-2.98,-3.0075,-3.0277,-3.0406,-3.0406,-3.0479,-3.0626,-3.0882,-3.0827,-3.0589,-3.0589,-3.0589,-3.0751,-3.1621,-3.2218,-3.2883,-3.5149,-3.6135,-3.6502,-3.7132,-3.7374,-3.7374,-3.7374,-3.7374,-3.7374,-3.7374,-3.7374,-3.7374,-3.7374,-3.7374,-3.7374,-3.7374,-3.7374,-3.7374,-3.7374,-3.7374,-3.7418,-3.7593,-3.7483,-3.7374,-3.7374,-3.7505,-3.7614,-3.7614,-3.7767,-3.7986,-3.8313,-3.8357,-3.8488,-3.8794,-3.8838,-3.8903,-3.9056,-3.9078,-3.9143,-3.9318,-3.9318,-3.9318,-3.9318,-3.9165,-3.9078,-3.9078,-3.9176,-3.9534,-4.0295,0.0,0.0,0.0,0.0,0.0,0.0,0.0,0.0,0.0,0.0,0.0,0.0,0.0,0.0,0.0,0.0,0.0,0.0,0.0,0.0,0.0,0.0,0.0,-2.9213,-2.8975,-2.8975,-2.8975,-2.8975,-2.8975,-2.8975,-2.8975,-2.8975,-2.8975,-2.8975,-2.8993,-2.8993,-2.8993,-2.9012,-2.9012,-2.9397,-2.9599,-2.9599,-3.0002,-3.0204,-3.0204,-3.0204,-3.0222,-3.0222,-3.0241,-3.0442,-3.0809,-3.0809,-3.1029,-3.1377,-3.1377,-3.1377,-3.1377,-3.1377,-3.1377,-3.1377,-3.1377,-3.2001,-3.3253,-3.5129,-3.6502,-3.7374,-3.7374,-3.7374,-3.7374,-3.7374,-3.7374,-3.7374,-3.7374,-3.7374,-3.7374,-3.7374,-3.7374,-3.7374,-3.7374,-3.7396,-3.7396,-3.7396,-3.7418,-3.7571,-3.8029,-3.7745,-3.7418,-3.7418,-3.7811,-3.8117,-3.8117,-3.8532,0.0,-3.8859,-3.8859,-3.8859,-3.8881,-3.8881,-3.9078,-3.9537,-3.958,-3.9777,-4.0236,-4.0279,-4.0279,-4.0279,-3.9821,-3.958,-3.958,-3.9833,-4.0208,-4.0846,0.0,0.0,0.0,0.0,0.0,0.0,0.0,0.0,0.0,0.0,0.0,0.0,0.0,0.0,0.0,0.0,0.0,0.0,0.0,0.0,0.0,-3.2207,-3.1073,-3.0157,-2.945,-2.8975,-2.8975,-2.8975,-2.8975,-2.8975,-2.8975,-2.8975,-2.8975,-2.8975,-2.9104,-2.9397,-2.9415,-2.9544,-2.9855,-2.9965,-3.002,-3.002,-3.0149,-3.0204,-3.0204,-3.0497,-3.0626,-3.0644,-3.0919,-3.1121,-3.1212,-3.1212,-3.1267,-3.1377,-3.1377,-3.1377,-3.1377,-3.1377,-3.1377,-3.1377,-3.1377,-3.2511,-3.4133,-3.4632,-3.5992,-3.7374,-3.7374,-3.7374,-3.7374,-3.7374,-3.7374,-3.7374,-3.7374,-3.7374,-3.7374,-3.7374,-3.7374,-3.7374,-3.7374,-3.7658,-3.7898,-3.7898,-3.8182,-3.8466,-3.8619,-3.8532,-3.8444,-3.8444,-3.8554,-3.8641,-3.8641,-3.875,-3.8969,-3.9296,-3.9362,-3.9493,-3.9842,-3.9886,-3.993,-4.0061,-4.0083,-4.0126,-4.0279,-4.0279,-4.0279,-4.0279,-4.0148,-4.0083,-4.0083,-4.024,-4.0374,0.0,0.0,0.0,0.0,0.0,0.0,0.0,0.0,0.0,0.0,0.0,0.0,0.0,0.0,0.0,0.0,0.0,0.0,0.0,0.0,0.0,0.0,-3.2892,-3.1977,-3.1073,-2.9785,-2.8975,-2.8975,-2.8975,-2.8975,-2.8975,-2.8975,-2.9048,-2.9214,-2.9232,-2.9397,-2.9819,-2.9837,-2.9947,-3.0185,-3.0369,-3.0442,-3.0442,-3.0607,-3.0699,-3.0699,-3.0919,-3.1029,-3.1047,-3.1267,-3.1377,-3.1377,-3.1377,-3.1377,-3.1377,-3.1377,-3.1377,-3.1377,0.0,0.0,0.0,0.0,-3.3253,-3.5005,-3.5005,-3.6135,-3.7374,-3.7374,-3.7374,-3.7374,-3.7374,-3.7374,-3.7418,-3.7614,-3.768,-3.7724,-3.7942,-3.7986,-3.7986,-3.7986,-3.8204,-3.8401,-3.8401,-3.8641,-3.8903,-3.91,-3.9143,0.0,-3.9406,-3.9274,-3.9143,-3.9143,-3.9296,-3.9537,-3.9821,-3.9842,-3.9952,-4.0236,-4.0279,-4.0279,-4.0279,-4.0279,0.0,0.0,0.0,-4.0279,-4.0279,-4.0279,0.0,0.0,0.0,-4.089,-4.089,-4.0954,0.0,0.0,-4.2107,-4.197,0.0,0.0,0.0,0.0,0.0,0.0,0.0,0.0,0.0,0.0,0.0,0.0,0.0,0.0,0.0,0.0,-3.3706,-3.2778,-3.2092,-3.0372,-2.9094,-2.8975,-2.8975,-2.8975,-2.8975,-2.903,-2.9195,-2.9544,-2.9617,-2.9819,-3.0241,-3.0259,0.0,0.0,0.0,-3.0956,-3.0992,-3.1341,-3.1524,-3.1524,-3.1524,-3.1524,-3.1524,-3.1524,-3.1488,-3.1451,-3.1451,-3.1414,-3.1377,-3.1377,-3.1377,-3.1377,-3.1377,-3.1377,-3.1506,-3.2511,-3.4133,-3.5746,-3.5869,0.0,0.0,-3.7461,-3.7505,-3.7549,-3.7549,-3.7549,-3.7636,-3.8073,-3.8182,-3.8292,-3.8728,-3.8838,-3.8838,-3.8838,-3.8881,-3.8925,-3.8925,-3.8969,-3.9122,-3.9558,-3.9624,-3.9777,-4.0214,-3.9908,-3.9624,-3.9624,-3.9995,-4.0279,-4.0279,-4.0279,-4.0279,-4.0279,-4.0279,0.0,-4.0279,-4.0279,-4.0279,-4.0279,-4.0279,-4.0279,-4.0279,-4.0279,-4.0279,-4.0279,-4.0928,-4.1187,-4.1187,-4.1187,-4.1934,-4.3177,-4.2263,-4.2158,0.0,0.0,0.0,0.0,0.0,0.0,0.0,0.0,0.0,0.0,0.0,0.0,0.0,0.0,0.0,-3.4534,-3.3706,-3.3006,-3.2892,-3.1305,-2.9804,-2.9094,-2.8975,-2.8975,-2.8975,-2.9269,-2.9489,-2.9562,-2.9892,-3.0259,-3.0662,-3.0681,-3.0974,-3.1634,-3.1726,-3.1928,-3.2239,-3.2313,-3.2368,-3.2368,-3.2368,0.0,-3.2368,-3.2368,-3.2184,-3.1891,-3.1891,-3.1689,-3.1377,-3.1377,-3.1377,-3.1377,-3.1377,-3.1377,-3.1506,-3.2511,-3.3631,-3.4757,-3.5623,-3.6758,-3.7964,-3.7964,-3.8226,-3.8554,-3.8554,-3.8554,0.0,-3.8663,-3.8685,-3.8728,-3.8816,-3.8838,-3.8838,-3.8838,-3.9122,-3.9406,-3.9406,-3.9711,-4.0017,-4.0126,-4.0126,-4.017,-4.0257,-4.0192,-4.0126,-4.0126,-4.0214,-4.0279,-4.0279,-4.0279,-4.0279,-4.0279,-4.0279,-4.0279,-4.0279,-4.0279,-4.0279,-4.0279,-4.0279,-4.0279,-4.0279,-4.0279,-4.0279,-4.0279,-4.0409,-4.0539,-4.0539,-4.0539,-4.1164,-4.2546,-4.2213,-4.2661,0.0,0.0,0.0,0.0,0.0,0.0,0.0,0.0,0.0,0.0,0.0,-3.4534,-3.4534,0.0,-3.46,-3.484,-3.4501,-3.4111,-3.3886,-3.2646,-3.119,-2.9842,-2.9517,-2.9269,-2.9269,-2.9654,-2.9965,-3.0167,-3.0369,-3.0754,-3.1359,-3.1396,-3.1671,-3.2276,-3.2294,-3.2404,-3.2588,-3.2588,-3.2588,-3.2588,-3.2588,-3.2588,-3.2588,-3.2588,-3.2496,-3.2294,-3.2294,-3.2184,-3.1983,-3.1983,-3.1983,-3.1983,-3.1983,-3.2246,-3.2596,-3.3817,-3.4919,-3.5933,-3.6958,-3.7876,-3.8466,-3.8466,-3.8641,-3.8838,-3.8838,-3.8838,-3.8881,-3.9122,-3.9187,-3.9253,-3.9493,-3.9558,-3.9558,-3.9558,-3.9733,-3.9908,-3.9908,-4.0105,-4.0279,-4.0279,-4.0279,-4.0279,-4.0279,-4.0279,-4.0279,-4.0279,-4.0279,-4.0279,-4.0279,-4.0279,-4.0279,-4.0279,-4.0279,-4.0279,-4.0279,-4.0279,-4.0279,-4.0279,-4.0279,-4.0279,-4.0279,-4.0279,-4.0279,-4.0279,-4.0279,-4.0279,-4.0279,-4.0279,-4.0777,-4.1806,-4.2166,-4.2911,0.0,0.0,0.0,0.0,0.0,0.0,0.0,-3.4534,-3.4556,-3.4644,-3.4666,-3.4687,-3.4775,-3.4797,-3.4928,-3.5299,-3.5364,-3.5244,-3.4933,-3.4031,-3.2793,-3.1407,-3.0332,-2.969,-2.969,-3.0075,-3.0442,-3.0772,-3.0937,-3.1322,-3.1964,-3.2074,-3.2313,-3.2698,-3.2716,-3.2753,-3.2826,-3.2826,-3.2826,-3.2826,-3.2826,-3.2826,-3.2826,-3.2826,-3.279,-3.2716,-3.2625,-3.2588,-3.2588,-3.2588,-3.2588,-3.2606,-3.268,-3.3047,-3.3685,-3.5091,-3.6336,-3.7382,-3.8438,-3.8903,-3.8969,-3.8969,-3.9034,-3.9122,-3.9122,-3.9122,-3.9187,-3.958,-3.9689,-3.9777,-4.017,-4.0279,-4.0279,-4.0279,-4.0279,-4.0279,-4.0279,-4.0279,-4.0279,-4.0279,-4.0279,-4.0279,-4.0279,-4.0279,-4.0279,-4.0279,-4.0279,-4.0279,-4.0279,-4.0279,-4.0279,-4.0279,-4.0279,-4.0279,-4.0279,-4.0279,-4.0279,-4.0279,-4.0279,-4.0279,-4.0279,-4.0279,-4.0279,-4.0279,-4.0279,-4.0279,-4.0279,-4.0279,-4.0669,-4.155,-4.2038,-4.2925,-3.0372,-3.1285,-3.1977,-3.2892,-3.3119,-3.3346,0.0,-3.4534,-3.4644,-3.5059,-3.5124,-3.5277,-3.5714,-3.5801,-3.5823,-3.5867,-3.5889,-3.5889,-3.5838,-3.4997,-3.4345,-3.4122,-3.1769,-3.013,-3.013,-3.0497,-3.0736,-3.0791,-3.1469,-3.1909,-3.2001,-3.2331,-3.2716,-3.3138,-3.3156,-3.3321,-3.367,-3.367,-3.367,-3.367,-3.367,-3.367,-3.367,-3.367,-3.3486,-3.3138,-3.2753,-3.2588,-3.2588,-3.2588,-3.2588,-3.2625,-3.301,-3.312,-3.3434,-3.5048,-3.6357,-3.7403,-3.8438,-3.9122,-3.9471,-3.9471,-3.9755,-4.0126,-4.0126,-4.0126,-4.0126,-4.0192,-4.0192,-4.0214,-4.0257,-4.0279,-4.0279,-4.0279,-4.0279,-4.0279,-4.0279,-4.0279,-4.0279,-4.0279,-4.0279,-4.0279,-4.0279,-4.0279,-4.0279,-4.0279,-4.0279,-4.0279,-4.0279,-4.0279,-4.0279,-4.0279,-4.0279,-4.0279,-4.0279,-4.0279,-4.0279,-4.0279,-4.0279,-4.0279,-4.0279,-4.0279,-4.0279,-4.0279,-4.0279,-4.0279,-4.0279,-4.0279,-4.0906,-4.2166,-4.2293,-4.2673,-3.0274,-3.1401,-3.255,-3.2436,-3.2986,-3.3769,-3.468,-3.5146,-3.5408,-3.5605,-3.5648,-3.5714,-3.5932,-3.5976,-3.6063,-3.6347,-3.6391,-3.6479,-3.6762,-3.5926,-3.5302,-3.5302,-3.3223,-3.1653,-3.1426,-3.1262,-3.1231,-3.1469,-3.1818,-3.2221,-3.2698,-3.2863,-3.3138,-3.356,-3.356,-3.3651,-3.3817,-3.3817,-3.3817,-3.3817,-3.3817,-3.3817,-3.3817,-3.3817,-3.3725,-3.356,-3.3376,-3.3303,-3.3303,-3.3303,-3.3303,-3.3321,-3.3505,-3.4364,-3.5549,-3.6157,-3.676,-3.7418,-3.9153,-3.9799,-3.9973,-3.9973,-4.0105,-4.0279,-4.0279,-4.0279,-4.0279,-4.0279,-4.0279,-4.0279,-4.0279,-4.0279,-4.0279,-4.0279,-4.0279,-4.0279,-4.0279,-4.0279,-4.0279,-4.0279,-4.0279,-4.0279,-4.0279,-4.0279,-4.0279,-4.0279,-4.0279,-4.0279,-4.0279,-4.0279,-4.0279,-4.0279,-4.0279,-4.0388,-4.0672,-4.0694,-4.0825,-4.1087,-4.1087,-4.1087,-4.1087,-4.0847,-4.0694,-4.0694,-4.0432,-4.0279,-4.0279,-4.0669,-4.1164,-4.1806,-4.257,-4.3051,-3.1016,-3.2261,-3.3382,-3.269,-3.3306,-3.4371,-3.5179,-3.5692,-3.5998,-3.6151,-3.6173,-3.6195,-3.6326,-3.6347,-3.6479,-3.6828,-3.6894,-3.7003,-3.733,-3.6746,-3.6258,-3.5869,-3.4632,-3.3552,-3.3125,-3.2128,-3.1671,-3.1983,-3.2221,-3.2606,-3.3193,-3.3321,-3.3523,-3.3798,-3.3817,-3.3817,-3.3817,-3.3817,-3.3817,-3.3817,-3.3817,-3.3817,-3.3817,-3.3817,-3.3817,-3.3817,-3.3817,-3.3817,-3.3817,-3.3817,-3.3817,-3.3817,-3.4075,-3.5158,-3.6654,-3.7193,-3.7595,-3.8129,-3.9735,-4.0279,-4.0279,-4.0279,-4.0279,-4.0279,-4.0279,-4.0279,-4.0279,-4.0279,-4.0279,-4.0279,-4.0279,-4.0279,-4.0279,-4.0279,-4.0279,-4.0279,-4.0279,-4.0279,-4.0279,-4.0279,-4.0279,-4.0279,-4.0279,-4.0279,-4.0279,-4.0279,-4.0388,-4.0432,-4.0301,-4.0388,-4.052,-4.0651,-4.0672,-4.0804,-4.1153,-4.1197,-4.1328,-4.1677,-4.1699,-4.1699,-4.1699,-4.1371,-4.1197,-4.1197,-4.0847,-4.0672,-4.0672,-4.1197,-4.1458,-4.1696,-4.2729,-4.3368,-3.2626,-3.3423,-3.4581,-3.4463,-3.4602,-3.4837,-3.5816,-3.5954,-3.6107,-3.6566,-3.6675,-3.6806,-3.7243,-3.733,-3.733,-3.7352,-3.7352,-3.7352,-3.7374,-3.7374,-3.6989,-3.6013,-3.5869,-3.5542,-3.5093,-3.3119,-3.2001,-3.2001,-3.2735,-3.3193,-3.323,-3.3596,-3.3798,-3.3817,-3.3817,-3.3817,-3.3817,-3.3817,-3.3817,-3.3817,-3.3817,-3.3817,-3.3817,-3.3817,-3.3817,-3.3817,-3.3817,-3.3817,-3.3817,-3.3817,-3.3817,-3.3955,-3.5021,-3.5412,-3.5685,-3.7863,-3.9341,-4.0279,-4.0279,-4.0279,-4.0279,-4.0279,-4.0279,-4.0279,-4.0279,-4.0279,-4.0279,-4.0279,-4.0279,-4.0279,-4.0279,-4.0279,-4.0279,-4.0279,-4.0279,-4.0279,-4.0279,-4.0279,-4.0279,-4.0279,-4.0279,-4.0279,-4.0279,-4.0279,-4.0279,-4.0279,-4.0672,-4.0804,-4.0345,-4.0694,-4.1153,-4.1612,-4.1655,-4.1655,-4.1677,-4.1677,-4.1677,-4.1699,-4.1699,-4.1699,-4.1699,-4.1677,-4.1677,-4.1677,-4.1655,-4.1655,-4.1655,-4.1655,-4.2037,-4.2704,-4.2704,-4.3499,-3.4039,-3.4635,-3.5349,-3.4741,-3.535,-3.6081,-3.6435,-3.6675,-3.6937,-3.7112,-3.7156,-3.7199,-3.7352,-3.7374,-3.7374,-3.7374,-3.7374,-3.7374,-3.7374,-3.7374,-3.7253,-3.6889,-3.6533,-3.6269,-3.6059,-3.4171,-3.3255,-3.3804,-3.3471,-3.334,-3.3596,-3.3743,-3.3817,-3.3817,-3.3817,-3.3817,-3.3817,-3.3817,-3.3817,-3.3817,-3.3817,-3.3817,-3.3817,-3.3817,-3.3817,-3.3817,-3.3817,-3.3817,-3.3817,-3.4609,-3.4883,-3.5021,-3.6093,-3.6904,-3.7729,-3.8416,-3.9341,-4.0279,-4.0279,-4.0279,-4.0279,-4.0279,-4.0279,-4.0279,-4.0279,-4.0279,-4.0279,-4.0279,-4.0279,-4.0279,-4.0279,-4.0279,-4.0279,-4.0279,-4.0279,-4.0279,-4.0279,-4.0279,-4.0279,-4.0279,-4.0279,-4.0279,-4.0279,-4.0541,-4.0869,-4.1175,-4.1087,-4.1066,-4.1197,-4.135,-4.1524,-4.1677,-4.1699,-4.183,-4.2136,-4.218,-4.2311,-4.266,-4.2682,-4.2682,-4.2682,-4.2354,-4.218,-4.218,-4.1852,-4.1699,-4.1699,-4.2081,-4.2749,-4.3413,-4.394,-4.4594,-3.4875,-3.5359,-3.5843,-3.5248,-3.5721,-3.6556,-3.6818,-3.7156,-3.7374,-3.7374,-3.7374,-3.7374,-3.7374,-3.7374,-3.7374,-3.7374,-3.7374,-3.7374,-3.7374,-3.7374,-3.7253,-3.6889,-3.7053,-3.7021,-3.6813,-3.5449,-3.4595,-3.4758,-3.4275,-3.3935,-3.3798,-3.3817,-3.3817,-3.3817,-3.4214,-3.4214,-3.3817,-3.4214,-3.4214,-3.3817,-3.3817,-3.3817,-3.3817,-3.3817,-3.3817,-3.3817,-3.3817,-3.3817,-3.3955,-3.5021,-3.5412,-3.5549,-3.7038,-3.7996,-3.8814,-3.9078,-3.9735,-4.0279,-4.0279,-4.0279,-4.0279,-4.0279,-4.0279,-4.0279,-4.0279,-4.0279,-4.0279,-4.0279,-4.0279,-4.0279,-4.0279,-4.0279,-4.0279,-4.0279,-4.0279,-4.0279,-4.0279,-4.0279,-4.0279,-4.0279,-4.041,-4.0541,-4.0541,-4.0935,-4.1415,-4.1874,-4.1699,-4.1612,-4.1918,-4.1939,-4.2027,-4.2201,-4.2223,-4.2354,-4.266,-4.2682,-4.2835,-4.3163,-4.3184,-4.3184,-4.3184,-4.2857,-4.2682,-4.2682,-4.2376,-4.2223,-4.2223,-4.2632,-4.3152,-4.3556,-4.4226,-4.5023,-3.5501,-3.5554,-3.5992,-3.5869,-3.5869,-3.6258,-3.7132,-3.7374,-3.7374,-3.7374,-3.7374,-3.7396,-3.7418,-3.7396,-3.7396,-3.7418,-3.7396,-3.7374,-3.7374,-3.7374,-3.7011,-3.6156,-3.7219,-3.7962,-3.7403,-3.6807,-3.615,-3.5103,-3.5201,-3.4883,-3.3817,-3.3817,-3.3955,-3.3955,-3.4883,-3.4883,-3.3955,-3.4883,-3.4883,-3.3817,-3.3955,-3.3955,-3.3955,-3.3955,-3.3955,-3.3955,-3.3817,-3.3817,-3.3955,-3.5021,-3.5412,-3.5685,-3.7863,-3.8681,-3.8946,-3.9866,-4.0279,-4.0279,-4.0279,-4.0279,-4.0279,-4.0279,-4.0279,-4.0279,-4.0279,-4.0279,-4.0279,-4.0279,-4.0279,-4.0279,-4.0279,-4.0279,-4.0279,-4.0279,-4.0279,-4.0279,-4.0279,-4.0301,-4.0323,-4.0323,-4.0716,-4.1044,-4.1066,-4.1437,-4.1896,-4.2376,-4.2464,-4.2464,-4.2464,-4.2464,-4.2638,-4.3141,-4.3184,-4.3184,-4.3184,-4.3184,-4.3184,-4.3184,-4.3184,-4.3184,-4.3184,-4.3184,-4.3184,-4.3184,-4.3184,-4.3184,-4.3184,-4.3184,-4.3184,-4.3324,-4.3836,-4.464,-3.5088,-3.5785,-3.6868,-3.6135,-3.6502,-3.7132,-3.7374,-3.7374,-3.7374,-3.7374,-3.7374,-3.7483,-3.7855,-3.7614,-3.7505,-3.7855,-3.7614,-3.7374,-3.7374,-3.7374,-3.7384,-3.7508,-3.8211,-3.8712,-3.9063,-3.9153,-3.8887,-3.7831,-3.551,-3.4075,-3.3817,-3.4609,-3.5002,-3.5002,-3.5275,-3.5275,-3.5002,-3.5275,-3.4883,-3.3817,-3.5431,-3.584,-3.5002,-3.5002,-3.5002,-3.5021,-3.4214,-3.3817,-3.3955,-3.5021,-3.5821,-3.6789,-3.8129,-3.921,-3.9888,-4.0149,-4.0279,-4.0279,-4.0279,-4.0279,-4.0279,-4.0279,-4.0279,-4.0279,-4.0279,-4.0279,-4.0279,-4.0279,-4.0279,-4.0279,-4.0279,-4.0279,-4.0279,-4.0279,-4.0279,-4.0279,-4.0279,-4.0563,-4.0825,-4.0825,-4.1197,-4.1634,-4.2005,-4.2158,-4.2398,-4.29,-4.2988,-4.2988,-4.2988,-4.2988,-4.3032,-4.3163,-4.3184,-4.3184,-4.3184,-4.3184,-4.3184,-4.3184,-4.3184,-4.3184,-4.3184,-4.3184,-4.3184,-4.3184,-4.3184,-4.3184,-4.3184,-4.3184,-4.3441,-4.3974,-4.409,-4.4914,-3.4757,-3.5253,-3.5992,-3.5376,-3.5992,-3.6889,-3.7253,-3.7374,-3.744,-3.7658,-3.7702,-3.7855,-3.8335,-3.8029,-3.7855,-3.8335,-3.8008,-3.7767,-3.7986,-3.8008,-3.8117,-3.8401,-3.8859,-3.9253,-3.9515,-3.9585,-3.9341,-3.8814,-3.7059,-3.5704,-3.5158,-3.584,-3.6093,-3.6093,-3.6093,-3.6093,-3.6093,-3.6093,-3.5821,-3.5158,-3.6384,-3.6654,-3.6093,-3.6093,-3.6093,-3.6093,-3.5431,-3.5158,-3.5295,-3.6364,-3.7193,-3.7863,-3.8946,-3.9735,-4.0279,-4.0279,-4.0279,-4.0279,-4.0279,-4.0279,-4.0279,-4.0279,-4.0279,-4.0279,-4.0279,-4.0279,-4.0279,-4.0279,-4.0279,-4.0279,-4.0279,-4.0279,-4.0279,-4.0279,-4.0454,-4.0607,-4.0607,-4.0978,-4.1371,-4.159,-4.183,-4.218,-4.266,-4.2748,-4.2857,-4.3141,-4.3184,-4.3184,-4.3184,-4.3184,-4.3184,-4.3184,-4.3184,-4.3184,-4.3184,-4.3184,-4.3184,-4.3184,-4.3184,-4.3184,-4.3184,-4.3184,-4.3184,-4.3184,-4.3184,-4.3184,-4.3184,-4.3184,-4.3441,-4.3836,-4.4366,-4.5187,-3.4258,-3.4258,-3.4383,-3.4383,-3.5129,-3.6135,-3.7132,-3.744,-3.7593,-3.8029,-3.816,-3.8357,-3.8838,-3.8532,-3.8357,-3.8859,-3.851,-3.8357,-3.8772,-3.8838,-3.8859,-3.8925,-3.9296,-3.958,-3.9646,-3.9237,-3.8946,-3.8946,-3.8946,-3.8395,-3.7059,-3.7193,-3.7193,-3.7193,-3.7193,-3.7193,-3.7059,-3.7193,-3.7193,-3.7059,-3.7327,-3.7327,-3.7193,-3.7193,-3.7193,-3.7193,-3.7059,-3.7059,-3.7059,-3.8129,-3.8549,-3.8814,-3.9735,-4.0149,-4.0279,-4.0279,-4.0279,-4.0279,-4.0279,-4.0279,-4.0279,-4.0279,-4.0279,-4.0279,-4.0279,-4.0279,-4.0279,-4.0279,-4.0279,-4.0301,-4.0367,-4.0367,-4.0388,-4.0454,-4.0782,-4.1087,-4.1087,-4.1459,-4.1918,-4.242,-4.2529,-4.266,-4.3097,-4.3184,-4.3184,-4.3184,-4.3184,-4.3184,-4.3184,-4.3184,-4.3184,-4.3184,-4.3184,-4.3184,-4.3184,-4.3184,-4.3184,-4.3184,-4.3184,-4.3184,-4.3184,-4.3184,-4.3184,-4.3184,-4.3184,-4.3184,-4.3184,-4.3184,-4.3184,-4.3184,-4.4526,-4.5187,-3.3631,-3.3757,-3.4383,-3.4383,-3.5129,-3.6135,-3.7132,-3.768,-3.8008,-3.8095,-3.8423,-3.8859,-3.934,-3.9034,-3.8859,-3.934,-3.9012,-3.8728,-3.8816,-3.8838,-3.8991,-3.9384,-3.9493,-3.9711,-4.0105,-4.0084,-4.0018,-4.0018,-4.0018,-3.921,-3.7059,-3.7863,-3.8416,-3.8416,-3.8416,-3.7996,-3.7059,-3.7863,-3.7863,-3.7059,-3.8793,-3.921,-3.8416,-3.8416,-3.8416,-3.8395,-3.7461,-3.7059,-3.7059,-3.7193,-3.7863,-3.8681,-3.8946,-3.9473,-4.0279,-4.0279,-4.0279,-4.0279,-4.0279,-4.0279,-4.0279,-4.0279,-4.0279,-4.0279,-4.0279,-4.0279,-4.0279,-4.0279,-4.0279,-4.0367,-4.0782,-4.0891,-4.0978,-4.135,-4.1503,-4.1568,-4.1568,-4.1961,-4.2442,-4.2944,-4.3053,-4.3075,-4.3163,-4.3184,-4.3184,-4.3184,-4.3184,-4.3184,-4.3184,-4.3184,-4.3184,-4.3184,-4.3184,-4.3184,-4.3184,-4.3184,-4.3184,-4.3184,-4.3184,-4.3184,-4.3184,-4.3184,-4.3184,-4.3184,-4.3184,-4.3184,-4.3184,-4.3184,-4.3184,-4.3184,-4.3974,-4.4778,-3.3757,-3.3631,-3.3882,-3.4881,-3.55,-3.6199,-3.7436,-3.7942,-3.8248,-3.875,-3.9034,-3.9362,-3.9842,-3.9537,-3.9362,-3.9842,-3.9515,-3.9296,-3.9558,-3.958,-3.9668,-3.9908,-3.993,-4.0017,-4.0257,-4.0279,-4.0279,-4.0279,-4.0279,-3.9866,-3.8793,-3.921,-3.9341,-3.8681,-3.921,-3.8946,-3.7863,-3.8946,-3.921,-3.866,-3.9735,-4.0018,-3.9473,-3.9473,-3.9473,-3.9473,-3.8925,-3.866,-3.866,-3.866,-3.9078,-3.9473,-3.9473,-3.9866,-4.0279,-4.0279,-4.0279,-4.0279,-4.0279,-4.0279,-4.0279,-4.0279,-4.0279,-4.0279,-4.0279,-4.0279,-4.0323,-4.0585,-4.0651,-4.076,-4.124,-4.135,-4.1415,-4.1634,-4.1874,-4.2136,-4.2398,-4.2638,-4.2879,-4.3141,-4.3184,-4.3184,-4.3184,-4.3184,-4.3184,-4.3184,-4.3184,-4.3184,-4.3184,-4.3184,-4.3184,-4.3184,-4.3184,-4.3184,-4.3184,-4.3184,-4.3184,-4.3184,-4.3184,-4.3184,-4.3184,-4.3184,-4.3184,-4.3184,-4.3184,-4.3184,-4.3184,-4.3184,-4.3184,-4.3184,-4.3836,-4.464,-3.4507,-3.3882,-3.3379,-3.5129,-3.5623,-3.5995,-3.7493,-3.8059,-3.851,-3.9362,-3.9624,-3.9821,-4.0214,-3.9973,-3.9842,-4.0214,-3.9952,-3.9842,-4.0236,-4.0279,-4.0279,-4.0279,-4.0279,-4.0279,-4.0279,-4.0279,-4.0279,-4.0279,-4.0279,-4.0279,-4.0279,-4.0388,-4.0039,-3.9226,-4.0126,-4.0126,-3.9226,-4.0039,-4.0388,-4.0279,-4.0279,-4.0279,-4.0279,-4.0279,-4.0279,-4.0279,-4.0279,-4.0279,-4.0279,-4.0279,-4.0279,-4.0279,-4.0279,-4.0279,-4.0279,-4.0279,-4.0279,-4.0279,-4.0279,-4.0345,-4.0432,-4.0432,-4.0432,-4.0432,-4.0432,-4.0498,-4.0651,-4.1044,-4.1153,-4.1262,-4.1721,-4.1852,-4.1874,-4.1983,-4.2289,-4.2682,-4.3097,-4.3184,-4.3184,-4.3184,-4.3184,-4.3184,-4.3184,-4.3184,-4.3184,-4.3184,-4.3184,-4.3184,-4.3184,-4.3184,-4.3184,-4.3184,-4.3184,-4.3184,-4.3184,-4.3184,-4.3184,-4.3184,-4.3184,-4.3184,-4.3184,-4.3184,-4.3184,-4.3184,-4.3184,-4.3184,-4.3184,-4.3184,-4.3184,-4.3184,-4.4112,-4.4778,-3.5746,-3.4383,-3.3126,-3.4258,-3.4507,-3.4879,-3.6353,-3.7799,-3.8925,-3.9449,-3.9908,-4.0236,-4.0279,-4.0236,-4.0236,-4.0279,-4.0236,-4.0236,-4.0279,-4.0279,-4.0279,-4.0279,-4.0279,-4.0279,-4.0279,-4.0279,-4.0279,-4.0279,-4.0279,-4.0279,-4.0279,-4.0694,-4.0935,-4.0802,-4.135,-4.135,-4.0802,-4.0935,-4.0716,-4.0279,-4.0279,-4.0279,-4.0279,-4.0279,-4.0279,-4.0279,-4.0279,-4.0279,-4.0279,-4.0279,-4.0279,-4.0279,-4.0279,-4.0279,-4.0279,-4.0279,-4.0279,-4.0279,-4.0279,-4.0563,-4.0935,-4.0935,-4.0935,-4.0935,-4.0935,-4.1219,-4.1568,-4.1612,-4.1634,-4.1743,-4.2223,-4.2354,-4.2464,-4.2922,-4.3075,-4.3119,-4.3163,-4.3184,-4.3184,-4.3184,-4.3184,-4.3184,-4.3184,-4.3184,-4.3184,-4.3184,-4.3184,-4.3184,-4.3184,-4.3184,-4.3184,-4.3184,-4.3184,-4.3184,-4.3184,-4.3184,-4.3184,-4.3184,-4.3184,-4.3184,-4.3184,-4.3184,-4.3184,-4.3184,-4.3184,-4.3184,-4.3184,-4.3184,-4.3184,-4.3184,-4.4526,-4.5187,-3.5129,-3.4383,-3.4007,-3.5005,-3.5459,-3.6165,-3.7527,-3.8651,-3.9406,-3.9886,-4.0148,-4.0279,-4.0279,-4.0279,-4.0279,-4.0279,-4.0279,-4.0279,-4.0279,-4.0279,-4.0279,-4.0279,-4.0279,-4.0279,-4.0279,-4.0279,-4.0279,-4.0279,-4.0279,-4.041,-4.0694,-4.0891,-4.1131,-4.1415,-4.159,-4.1459,-4.1022,-4.1,-4.076,-4.0279,-4.0279,-4.0279,-4.0279,-4.0279,-4.0279,-4.0279,-4.0279,-4.0279,-4.0279,-4.0279,-4.0279,-4.0279,-4.0279,-4.0279,-4.0279,-4.0279,-4.0454,-4.0716,-4.0716,-4.1022,-4.1415,-4.1415,-4.1612,-4.1808,-4.1503,-4.1546,-4.1743,-4.2049,-4.2136,-4.2245,-4.2748,-4.2879,-4.2922,-4.3141,-4.3184,-4.3184,-4.3184,-4.3184,-4.3184,-4.3184,-4.3184,-4.3184,-4.3184,-4.3184,-4.3184,-4.3184,-4.3184,-4.3184,-4.3184,-4.3184,-4.3184,-4.3184,-4.3184,-4.3184,-4.3184,-4.3184,-4.3184,-4.3184,-4.3184,-4.3184,-4.3184,-4.3184,-4.3184,-4.3184,-4.3184,-4.3184,-4.3184,-4.3184,-4.3184,-4.3184,-4.425,-4.4914,-3.5005,-3.4383,-3.4258,-3.5253,-3.5853,-3.6562,-3.8078,-3.8955,-3.9689,-4.017,-4.0279,-4.0279,-4.0279,-4.0279,-4.0279,-4.0279,-4.0279,-4.0279,-4.0279,-4.0279,-4.0279,-4.0279,-4.0279,-4.0279,-4.0279,-4.0279,-4.0279,-4.0279,-4.0279,-4.0498,-4.0978,-4.1131,-4.1415,-4.1896,-4.2049,-4.1896,-4.1437,-4.1284,-4.0978,-4.0498,-4.0345,-4.0279,-4.0279,-4.0279,-4.0279,-4.0279,-4.0279,-4.0279,-4.0279,-4.0279,-4.0279,-4.0279,-4.0279,-4.0367,-4.0498,-4.0498,-4.0804,-4.1219,-4.1219,-4.1524,-4.1918,-4.1918,-4.2245,-4.2573,-4.2223,-4.2136,-4.2201,-4.2551,-4.2638,-4.2726,-4.3097,-4.3184,-4.3184,-4.3184,-4.3184,-4.3184,-4.3184,-4.3184,-4.3184,-4.3184,-4.3184,-4.3184,-4.3184,-4.3184,-4.3184,-4.3184,-4.3184,-4.3184,-4.3184,-4.3184,-4.3184,-4.3184,-4.3184,-4.3184,-4.3184,-4.3184,-4.3184,-4.3184,-4.3184,-4.3184,-4.3184,-4.3184,-4.325,-4.3381,-4.3381,-4.3447,-4.3599,-4.3599,-4.3599,-4.3599,-4.4258,-4.5347,-3.5869,-3.4383,-3.3126,-3.4133,-3.4725,-3.555,-3.7043,-3.8551,-3.9689,-4.017,-4.0279,-4.0279,-4.0279,-4.0279,-4.0279,-4.0279,-4.0279,-4.0279,-4.0279,-4.0279,-4.0279,-4.0279,-4.0279,-4.0279,-4.0279,-4.0279,-4.0279,-4.0279,-4.0279,-4.0498,-4.0978,-4.1437,-4.1918,-4.2398,-4.29,-4.2922,-4.242,-4.1918,-4.1459,-4.1,-4.052,-4.0279,-4.0279,-4.0279,-4.0279,-4.0279,-4.0279,-4.0279,-4.0279,-4.0279,-4.0279,-4.0279,-4.0279,-4.0585,-4.1,-4.1,-4.1284,-4.1677,-4.1677,-4.2005,-4.242,-4.242,-4.2748,-4.3163,-4.3163,-4.3163,-4.3163,-4.3163,-4.3163,-4.3163,-4.3184,-4.3184,-4.3184,-4.3184,-4.3184,-4.3184,-4.3184,-4.3184,-4.3184,-4.3184,-4.3184,-4.3184,-4.3184,-4.3184,-4.3184,-4.3184,-4.3184,-4.3184,-4.3184,-4.3184,-4.3184,-4.3184,-4.3184,-4.3184,-4.3184,-4.3184,-4.3184,-4.3184,-4.3184,-4.3184,-4.3184,-4.3184,-4.3381,-4.384,-4.3862,-4.4102,-4.4582,-4.4582,-4.4582,-4.4582,-4.5279,-4.7074,-3.6135,-3.5869,-3.5869,-3.55,-3.6602,-3.774,-3.8291,-3.9194,-4.0083,-4.0236,-4.0279,-4.0279,-4.0279,-4.0279,-4.0279,-4.0279,-4.0279,-4.0279,-4.0279,-4.0279,-4.0279,-4.0279,-4.0279,-4.0279,-4.0279,-4.0279,-4.0279,-4.0279,-4.0279,-4.0498,-4.0978,-4.1437,-4.1918,-4.2398,-4.2922,-4.2944,-4.242,-4.1939,-4.1459,-4.1,-4.052,-4.0279,-4.0279,-4.0279,-4.0279,-4.0279,-4.0279,-4.0279,-4.0279,-4.0279,-4.0279,-4.0301,-4.0651,-4.0869,-4.1044,-4.135,-4.1786,-4.218,-4.218,-4.2507,-4.2944,-4.2944,-4.3053,-4.3184,-4.3184,-4.3184,-4.3184,-4.3184,-4.3184,-4.3184,-4.3184,-4.3184,-4.3184,-4.3184,-4.3184,-4.3184,-4.3184,-4.3184,-4.3184,-4.3184,-4.3184,-4.3184,-4.3184,-4.3184,-4.3184,-4.3184,-4.3184,-4.3184,-4.3184,-4.3184,-4.3184,-4.3184,-4.3184,-4.3184,-4.3184,-4.3184,-4.3184,-4.3184,-4.3468,-4.3643,-4.3643,-4.3971,-4.4211,-4.4364,-4.4364,-4.443,-4.4582,-4.4582,-4.5422,-4.691,-4.7051,-4.8439,-3.6135,-3.6114,-3.6258,-3.5992,-3.7103,-3.8312,-3.8712,-3.958,-4.0279,-4.0279,-4.0279,-4.0279,-4.0279,-4.0279,-4.0279,-4.0279,-4.0279,-4.0279,-4.0279,-4.0279,-4.0279,-4.0279,-4.0279,-4.0279,-4.0279,-4.0279,-4.0279,-4.0279,-4.0279,-4.041,-4.0716,-4.1175,-4.1568,-4.1874,-4.2726,-4.2944,-4.242,-4.1939,-4.1459,-4.1,-4.052,-4.0279,-4.0279,-4.0279,-4.0279,-4.0279,-4.0279,-4.0279,0.0,-4.0279,-4.0388,-4.0585,-4.0891,-4.1219,-4.1568,-4.1852,-4.2289,-4.2704,-4.2704,-4.2922,-4.3184,-4.3184,-4.3184,-4.3184,-4.3184,-4.3184,-4.3184,-4.3184,-4.3184,-4.3184,-4.3184,-4.3184,-4.3184,-4.3184,-4.3184,-4.3184,-4.3184,-4.3184,-4.3184,-4.3184,-4.3184,-4.3184,-4.3184,-4.3184,-4.3184,-4.3184,-4.3184,-4.3184,-4.3184,-4.3184,-4.3184,-4.3184,-4.3337,-4.3447,-4.3447,-4.3447,-4.3447,-4.3447,-4.3883,-4.4146,-4.4146,-4.443,-4.467,-4.4866,-4.4866,-4.4954,-4.5129,-4.5689,-4.6653,-4.8052,-4.8894,-5.0279,0.0,-3.5376,-3.4881,-3.5746,-3.6708,-3.7657,-3.8586,-3.958,0.0,-4.0279,-4.0279,-4.0279,-4.0279,-4.0279,-4.0279,-4.0279,-4.0279,-4.0279,-4.0279,-4.0279,-4.0279,-4.0279,-4.0279,-4.0279,-4.0279,-4.0279,-4.0279,-4.0279,-4.0279,-4.0279,-4.0279,-4.0738,-4.1,-4.1,-4.2354,-4.2835,-4.2376,-4.1874,-4.1437,-4.1,-4.052,-4.0279,-4.0279,-4.0279,-4.0279,-4.0279,-4.0279,-4.0279,-4.0279,-4.0323,-4.0607,-4.1022,-4.1087,-4.1634,-4.242,-4.2464,-4.2769,-4.3184,-4.3184,-4.3184,-4.3184,-4.3184,-4.3184,-4.3184,-4.3184,-4.3184,-4.3184,-4.3184,-4.3184,-4.3184,-4.3184,-4.3184,-4.3184,-4.3184,-4.3184,-4.3184,-4.3184,-4.3184,-4.3184,-4.3184,-4.3184,-4.3184,-4.3184,-4.3184,-4.3184,-4.3184,-4.3184,-4.3184,-4.3184,-4.3184,-4.3184,-4.3228,-4.3599,-4.3883,-4.3905,-4.3905,-4.4047,-4.4047,-4.4507,-4.4914,-4.4914,-4.4936,-4.5178,-4.564,-4.564,-4.586,-4.6277,-4.7726,-4.8453,-4.8719,-5.0717,-5.2391,-3.7132,0.0,-3.6746,-3.7011,-3.7724,-3.8564,0.0,-3.958,0.0,0.0,0.0,0.0,-4.0279,-4.0279,-4.0279,-4.0279,-4.0279,-4.0279,-4.0279,-4.0279,-4.0279,-4.0279,-4.0279,-4.0279,-4.0279,-4.0279,-4.0279,-4.0279,-4.0279,-4.0279,-4.0279,-4.0738,-4.1,-4.1,-4.1677,-4.1983,-4.1874,-4.1393,-4.1109,-4.1,-4.052,-4.0279,-4.0279,-4.0279,-4.0279,-4.0279,-4.0279,-4.0279,-4.0301,-4.0672,-4.0891,-4.1087,-4.1808,-4.2223,-4.2464,-4.2857,-4.3075,-4.3184,-4.3184,-4.3184,-4.3184,-4.3184,-4.3184,-4.3184,-4.3184,-4.3184,-4.3184,-4.3184,-4.3184,-4.3184,-4.3184,-4.3184,-4.3184,-4.3184,-4.3184,-4.3184,-4.3184,-4.3184,-4.3184,-4.3184,-4.3184,-4.3184,-4.3184,-4.3184,-4.3184,-4.3184,-4.3184,-4.3184,-4.3184,-4.3184,-4.3316,-4.3665,-4.3796,-4.4014,-4.4386,-4.443,-4.4958,-4.6048,-4.6666,-4.7367,-4.8591,-4.8992,-4.9275,-4.9392,-4.9392,-4.9463,-4.9557,-4.9866,-5.0693,-5.1812,-5.2228,-5.3376,-3.7374,-3.7374,-3.7374,-3.7374,-3.8117,-3.8838,-3.8838,-3.958,0.0,0.0,0.0,0.0,-4.0279,-4.0279,-4.0279,-4.0279,-4.0279,-4.0279,-4.0279,-4.0279,-4.0279,-4.0279,-4.0279,-4.0279,-4.0279,-4.0279,-4.0279,-4.0279,-4.0279,-4.0279,-4.0279,-4.052,-4.0672,-4.0672,-4.0913,-4.1153,-4.1371,-4.1131,-4.0891,-4.0672,-4.041,-4.0279,-4.0279,-4.0279,-4.0279,-4.0279,-4.0279,-4.041,-4.0629,-4.0891,-4.1262,-4.1699,-4.2223,-4.2573,-4.2791,-4.3075,-4.3184,-4.3184,-4.3184,-4.3184,-4.3184,-4.3184,-4.3184,-4.3184,-4.3184,-4.3184,-4.3184,-4.3184,-4.3184,-4.3184,-4.3184,-4.3184,-4.3184,-4.3184,-4.3184,-4.3184,-4.3184,-4.3184,-4.3184,-4.3184,-4.3184,-4.3184,-4.3184,-4.3184,-4.3184,-4.3184,-4.3184,-4.3184,-4.3184,-4.3359,-4.3578,-4.384,-4.4255,-4.4648,-4.491,-4.5833,-4.6555,-4.7138,-4.8308,-4.9298,-5.0119,-5.0407,-5.0576,-5.0576,-5.0576,-5.0576,-5.0576,-5.1254,-5.1951,-5.2779,-5.3513,-5.4241,-3.7374,-3.7374,-3.7374,-3.7374,-3.8117,-3.8838,-3.8838,0.0,0.0,0.0,0.0,0.0,0.0,-4.0279,-4.0279,-4.0279,-4.0279,-4.0279,-4.0279,-4.0279,-4.0279,-4.0279,-4.0279,-4.0279,-4.0279,-4.0279,-4.0279,-4.0279,-4.0279,-4.0279,-4.0279,-4.0279,-4.0279,-4.0279,-4.0279,-4.0476,-4.0891,-4.0891,-4.0694,-4.0279,-4.0279,-4.0279,-4.0279,-4.0279,-4.0279,-4.0279,-4.0367,-4.0629,-4.1022,-4.1153,-4.1699,-4.242,-4.2507,-4.2791,-4.3184,-4.3184,-4.3184,-4.3184,-4.3184,-4.3184,-4.3184,-4.3184,-4.3184,-4.3184,-4.3184,-4.3184,-4.3184,-4.3184,-4.3184,-4.3184,-4.3184,-4.3184,-4.3184,-4.3184,-4.3184,-4.3184,-4.3184,-4.3184,-4.3184,-4.3184,-4.3184,-4.3184,-4.3184,-4.3184,-4.3184,-4.3184,-4.3184,-4.3206,-4.3272,-4.3621,-4.3927,-4.4058,-4.4823,-4.5347,-4.5412,-4.7354,-4.8557,-4.8117,-4.9888,-5.0998,-5.1279,-5.1279,-5.1279,-5.1279,-5.1279,-5.1279,-5.1279,-5.2529,-5.3215,-5.3215,-5.4511,-5.5099,-3.7374,-3.7374,-3.7374,-3.7374,-3.8117,-3.8838,-3.8838,0.0,0.0,0.0,0.0,0.0,-4.0279,-4.0279,-4.0279,-4.0279,-4.0279,-4.0279,-4.0279,-4.0279,-4.0279,-4.0279,-4.0279,-4.0279,-4.0279,-4.0279,-4.0279,-4.0279,-4.0279,-4.0279,-4.0279,-4.0279,-4.0279,-4.0279,-4.0279,-4.0301,-4.0388,-4.0388,-4.0345,-4.0279,-4.0279,-4.0279,-4.0279,-4.0279,-4.0279,-4.0301,-4.0716,-4.0935,-4.1066,-4.1874,-4.2289,-4.2464,-4.29,-4.3119,-4.3184,-4.3184,-4.3184,-4.3184,-4.3184,-4.3184,-4.3184,-4.3184,-4.3184,-4.3184,-4.3184,-4.3184,-4.3184,-4.3184,-4.3184,-4.3184,-4.3184,-4.3184,-4.3184,-4.3184,-4.3184,-4.3184,-4.3184,-4.3184,-4.3184,-4.3184,-4.3184,-4.3184,-4.3184,-4.3184,-4.3184,-4.3184,-4.3184,-4.3316,-4.3709,-4.3818,-4.4167,-4.4997,-4.5216,-4.5478,-4.5871,-4.8529,-5.0245,-5.0173,-5.1624,-5.3078,-5.4402,-5.4402,-5.4402,-5.4402,-5.4402,-5.4402,-5.4402,-5.4671,-5.4805,-5.4805,-5.4965,-5.5099,-3.7374,-3.7374,-3.7374,-3.7374,-3.8117,-3.8838,-3.8838,0.0,0.0,0.0,0.0,-4.0279,-4.0279,-4.0279,-4.0279,-4.0279,-4.0279,-4.0279,-4.0279,-4.0279,-4.0279,-4.0279,-4.0279,-4.0279,-4.0279,-4.0279,-4.0279,-4.0279,-4.0279,-4.0279,-4.0279,-4.0279,-4.0279,-4.0279,-4.0279,-4.0279,-4.0279,-4.0279,-4.0279,-4.0279,-4.0279,-4.0279,-4.0279,-4.0279,-4.0279,-4.0301,-4.0804,-4.1153,-4.1437,-4.2136,-4.2573,-4.2857,-4.3097,-4.3184,-4.3184,-4.3184,-4.3184,-4.3184,-4.3184,-4.3184,-4.3184,-4.3184,-4.3184,-4.3184,-4.3184,-4.3184,-4.3184,-4.3184,-4.3184,-4.3184,-4.3184,-4.3184,-4.3184,-4.3184,-4.3184,-4.3184,-4.3184,-4.3184,-4.3184,-4.3184,-4.3184,-4.3184,-4.3184,-4.3184,-4.3184,-4.3184,-4.3184,-4.3337,-4.3796,-4.4102,-4.4539,-4.5238,-4.5544,-4.5784,-4.598,-4.8864,-5.1279,-5.2966,-5.3674,-5.4376,-5.5099,-5.5099,-5.5099,-5.5099,-5.5099,-5.5099,-5.5099,-5.5099,-5.5099,-5.5099,-5.5099,-5.5099,-3.7374,-3.7374,-3.7374,-3.7374,0.0,-3.8685,-3.8816,0.0,0.0,0.0,0.0,0.0,-4.0279,-4.0279,-4.0279,-4.0279,-4.0279,-4.0279,-4.0279,-4.0279,-4.0279,-4.0279,-4.0279,-4.0279,-4.0279,-4.0279,-4.0279,-4.0279,-4.0279,-4.0279,-4.0279,-4.0279,-4.0279,-4.0279,-4.0279,-4.0279,-4.0279,-4.0279,-4.0279,-4.0279,-4.0279,-4.0279,-4.0279,-4.0279,-4.0345,-4.0476,-4.0956,-4.1437,-4.1896,-4.2398,-4.2835,-4.3184,-4.3184,-4.3184,-4.3184,-4.3184,-4.3184,-4.3184,-4.3184,-4.3184,-4.3184,-4.3184,-4.3184,-4.3184,-4.3184,-4.3184,-4.3184,-4.3184,-4.3184,-4.3184,-4.3184,-4.3184,-4.3184,-4.3184,-4.3184,-4.3184,-4.3184,-4.3184,-4.3184,-4.3184,-4.3184,-4.3184,-4.3184,-4.3184,-4.3184,-4.3184,-4.3272,-4.3512,-4.3971,-4.4451,-4.4932,-4.5434,-4.5784,-4.6277,-4.6994,-4.9271,-5.1837,-5.4965,-5.5099,-5.5099,-5.5099,-5.5099,-5.5099,-5.5099,-5.5099,-5.5099,-5.5099,-5.5099,-5.5099,-5.5099,-5.5099,-5.5099,-3.7374,-3.7374,-3.7374,-3.7374,-3.7767,0.0,-3.8728,-3.9231,0.0,-4.0192,0.0,0.0,0.0,-4.0279,-4.0279,-4.0279,-4.0279,-4.0279,-4.0279,-4.0279,-4.0279,-4.0279,-4.0279,-4.0279,-4.0279,-4.0279,-4.0279,-4.0279,-4.0279,-4.0279,-4.0279,-4.0279,-4.0279,-4.0279,-4.0279,-4.0279,-4.0279,-4.0279,-4.0279,-4.0279,-4.0279,-4.0279,-4.0279,-4.0279,-4.052,-4.0978,-4.1437,-4.1918,-4.2398,-4.2922,-4.3141,-4.3184,-4.3184,-4.3184,-4.3184,-4.3184,-4.3184,-4.3184,-4.3184,-4.3184,-4.3184,-4.3184,-4.3184,-4.3184,-4.3184,-4.3184,-4.3184,-4.3184,-4.3184,-4.3184,-4.3184,-4.3184,-4.3184,-4.3184,-4.3184,-4.3184,-4.3184,-4.3184,-4.3184,-4.3184,-4.3184,-4.3184,-4.3184,-4.3184,-4.3184,-4.3184,-4.3534,-4.3993,-4.4473,-4.4954,-4.5434,-4.5915,-4.598,-4.7141,-5.0009,-5.0434,-5.1837,-5.4965,-5.5099,-5.5099,-5.5099,-5.5099,-5.5099,-5.5099,-5.5099,-5.5099,-5.5099,-5.5099,-5.5099,-5.5099,-5.5099,-5.5099,-3.7374,-3.7374,-3.7374,-3.7374,0.0,0.0,0.0,0.0,0.0,-4.017,-4.0279,0.0,0.0,-4.0279,-4.0279,-4.0279,-4.0279,-4.0279,-4.0279,-4.0279,-4.0279,-4.0279,-4.0279,-4.0279,-4.0279,-4.0279,-4.0279,-4.0279,-4.0279,-4.0279,-4.0279,-4.0279,-4.0279,-4.0279,-4.0279,-4.0279,-4.0279,-4.0279,-4.0279,-4.0279,-4.0279,-4.0279,-4.0301,-4.0585,-4.0825,-4.1044,-4.1808,-4.2245,-4.2464,-4.2966,-4.3184,-4.3184,-4.3184,-4.3184,-4.3184,-4.3184,-4.3184,-4.3184,-4.3184,-4.3184,-4.3184,-4.3184,-4.3184,-4.3184,-4.3184,-4.3184,-4.3184,-4.3184,-4.3184,-4.3184,-4.3184,-4.3184,-4.3184,-4.3184,-4.3184,-4.3184,-4.3184,-4.3184,-4.3184,-4.3184,-4.3184,-4.3184,-4.3184,-4.3184,-4.3184,-4.3184,-4.3578,-4.4036,-4.4539,-4.5019,-4.55,-4.5959,-4.6002,-4.7287,-5.0293,-5.0576,-5.1837,-5.4965,-5.5099,-5.5099,-5.5099,-5.5099,-5.5099,-5.5099,-5.5099,-5.5099,-5.5099,-5.5099,-5.5099,-5.5099,-5.5099,-5.5099,-3.7011,-3.6868,-3.6868,0.0,0.0,0.0,0.0,0.0,-3.9365,-3.9758,-4.0018,-4.0279,-4.0279,0.0,-4.0279,-4.0279,-4.0279,-4.0279,-4.0279,-4.0279,-4.0279,-4.0279,-4.0279,-4.0279,-4.0279,-4.0279,-4.0279,-4.0279,-4.0279,-4.0279,-4.0279,-4.0279,-4.0279,-4.0279,-4.0279,-4.0279,-4.0279,-4.0279,-4.0279,-4.0279,-4.0279,-4.0279,-4.0301,-4.0782,-4.1087,-4.1262,-4.207,-4.2507,-4.2682,-4.3032,-4.3184,-4.3184,-4.3184,-4.3184,-4.3184,-4.3184,-4.3184,-4.3184,-4.3184,-4.3184,-4.3184,-4.3184,-4.3184,-4.3184,-4.3184,-4.3184,-4.3184,-4.3184,-4.3184,-4.3184,-4.3184,-4.3184,-4.3184,-4.3184,-4.3184,-4.3184,-4.3184,-4.3184,-4.3184,-4.3184,-4.3184,-4.3184,-4.3184,-4.3184,-4.3228,-4.3381,-4.3796,-4.4255,-4.4757,-4.5238,-4.5653,-4.5959,-4.6002,-4.7287,-5.0293,-5.0576,-5.1837,-5.4965,-5.5099,-5.5099,-5.5099,-5.5099,-5.5099,-5.5099,-5.5099,-5.5099,-5.5099,-5.5099,-5.5099,-5.5099,-5.5099,-5.5099,-3.6135,-3.5869,-3.5623,0.0,0.0,0.0,-3.6915,-3.8059,-3.8719,-3.8756,-3.9604,-4.0279,-4.0279,-4.0279,-4.0279,-4.0279,-4.0279,-4.0279,-4.0279,-4.0279,-4.0279,-4.0279,-4.0279,-4.0279,-4.0279,-4.0279,-4.0279,-4.0279,-4.0279,-4.0279,-4.0279,-4.0279,-4.0279,-4.0279,-4.0279,-4.0279,-4.0279,-4.0279,-4.0279,-4.0279,-4.0279,-4.0279,-4.0301,-4.0782,-4.1262,-4.1721,-4.2201,-4.2704,-4.3184,-4.3184,-4.3184,-4.3184,-4.3184,-4.3184,-4.3184,-4.3184,-4.3184,-4.3184,-4.3184,-4.3184,-4.3184,-4.3184,-4.3184,-4.3184,-4.3184,-4.3184,-4.3184,-4.3184,-4.3184,-4.3184,-4.3184,-4.3184,-4.3184,-4.3184,-4.3184,-4.3184,-4.3184,-4.3184,-4.3184,-4.3184,-4.3184,-4.3184,-4.3184,-4.3184,-4.3337,-4.3796,-4.4277,-4.4757,-4.526,-4.5718,-4.6002,-4.6002,-4.6002,-4.7287,-5.0293,-5.0576,-5.1837,-5.4965,-5.5099,-5.5099,-5.5099,-5.5099,-5.5099,-5.5099,-5.5099,-5.5099,-5.5099,-5.5099,-5.5099,-5.5099,-5.5099,-5.5099,-3.6868,-3.5869,0.0,-3.5376,0.0,0.0,0.0,-3.7249,0.0,0.0,-4.0149,-4.0279,-4.0279,-4.0279,-4.0279,-4.0279,-4.0279,-4.0279,-4.0279,-4.0279,-4.0279,-4.0279,-4.0279,-4.0279,-4.0279,-4.0279,-4.0279,-4.0279,-4.0279,-4.0279,-4.0279,-4.0279,-4.0279,-4.0279,-4.0279,-4.0279,-4.0279,-4.0279,-4.0279,-4.0279,-4.0279,-4.0454,-4.0804,-4.1284,-4.1743,-4.2223,-4.2726,-4.3032,-4.3184,-4.3184,-4.3184,-4.3184,-4.3184,-4.3184,-4.3184,-4.3184,-4.3184,-4.3184,-4.3184,-4.3184,-4.3184,-4.3184,-4.3184,-4.3184,-4.3184,-4.3184,-4.3184,-4.3184,-4.3184,-4.3184,-4.3184,-4.3184,-4.3184,-4.3184,-4.3184,-4.3184,-4.3184,-4.3184,-4.3184,-4.3184,-4.3184,-4.3184,-4.3184,-4.3184,-4.3337,-4.3796,-4.4277,-4.4888,-4.5696,-4.5915,-4.6002,-4.6002,-4.6002,-4.7287,-5.0293,-5.0576,-5.1837,-5.4965,-5.5099,-5.5099,-5.5099,-5.5099,-5.5099,-5.5099,-5.5099,-5.5099,-5.5099,-5.5099,-5.5099,-5.5099,-5.5099,-5.5099,-3.5623,-3.4757,0.0,-3.4226,-3.4221,-3.4453,-3.581,0.0,0.0,0.0,-4.0279,-4.0279,-4.0279,-4.0279,-4.0279,-4.0279,-4.0279,-4.0279,-4.0279,-4.0279,-4.0279,-4.0279,-4.0279,-4.0279,-4.0279,-4.0279,-4.0279,-4.0279,-4.0279,-4.0279,-4.0279,-4.0279,-4.0279,-4.0279,-4.0279,-4.0279,-4.0279,-4.0279,-4.0279,-4.0279,-4.0279,-4.0629,-4.1284,-4.1568,-4.1961,-4.2442,-4.2966,-4.3184,-4.3184,-4.3184,-4.3184,-4.3184,-4.3184,-4.3184,-4.3184,-4.3184,-4.3184,-4.3184,-4.3184,-4.3184,-4.3184,-4.3184,-4.3184,-4.3184,-4.3184,-4.3184,-4.3184,-4.3184,-4.3184,-4.3184,-4.3184,-4.3184,-4.3184,-4.3184,-4.3184,-4.3184,-4.3184,-4.3184,-4.3184,-4.3184,-4.3184,-4.3184,-4.3184,-4.3184,-4.3403,-4.4058,-4.4713,-4.5347,-4.5937,-4.6002,-4.6002,-4.6002,-4.6002,-4.7287,-5.0293,-5.0576,-5.1837,-5.4965,-5.5099,-5.5099,-5.5099,-5.5099,-5.5099,-5.5099,-5.5099,-5.5099,-5.5099,-5.5099,-5.5099,-5.5099,-5.5099,-5.5099,-3.3505,-3.2873,0.0,-3.2283,-3.2464,0.0,-3.6415,-3.7842,-3.8946,-4.0018,-4.0279,-4.0279,-4.0279,-4.0279,-4.0279,-4.0279,-4.0279,-4.0279,-4.0279,-4.0279,-4.0279,-4.0279,-4.0279,-4.0279,-4.0279,-4.0279,-4.0279,-4.0279,-4.0279,-4.0279,-4.0279,-4.0279,-4.0279,-4.0279,-4.0279,-4.0279,-4.0279,-4.0279,-4.0279,-4.0279,-4.0279,-4.0782,-4.1699,-4.1699,-4.1983,-4.2507,-4.2988,-4.3184,-4.3184,-4.3184,-4.3184,-4.3184,-4.3184,-4.3184,-4.3184,-4.3184,-4.3184,-4.3184,-4.3184,-4.3184,-4.3184,-4.3184,-4.3184,-4.3184,-4.3184,-4.3184,-4.3184,-4.3184,-4.3184,-4.3184,-4.3184,-4.3184,-4.3184,-4.3184,-4.3184,-4.3184,-4.3184,-4.3184,-4.3184,-4.3184,-4.3184,-4.3184,-4.3184,-4.3184,-4.349,-4.4451,-4.5391,-4.6002,-4.6002,-4.6002,-4.6002,-4.6002,-4.6002,-4.7287,-5.0293,-5.0576,-5.1837,-5.4965,-5.5099,-5.5099,-5.5099,-5.5099,-5.5099,-5.5099,-5.5099,-5.5099,-5.5099,-5.5099,-5.5099,-5.5099,-5.5099,-5.5099,-3.4258,-3.2873,0.0,0.0,-3.3709,-3.4797,-3.6649,-3.7193,-3.7863,-3.9866,-4.0279,-4.0279,-4.0279,-4.0279,-4.0279,-4.0279,-4.0279,-4.0279,-4.0279,-4.0279,-4.0279,-4.0279,-4.0279,-4.0279,-4.0279,-4.0279,-4.0279,-4.0279,-4.0279,-4.0279,-4.0279,-4.0279,-4.0279,-4.0279,-4.0279,-4.0279,-4.0279,-4.0279,-4.0279,-4.0279,-4.0279,-4.0782,-4.1699,-4.1699,-4.218,-4.301,-4.3141,-4.3184,-4.3184,-4.3184,-4.3184,-4.3184,-4.3184,-4.3184,-4.3184,-4.3184,-4.3184,-4.3184,-4.3184,-4.3184,-4.3184,-4.3184,-4.3184,-4.3184,-4.3184,-4.3184,-4.3184,-4.3184,-4.3184,-4.3184,-4.3184,-4.3184,-4.3184,-4.3184,-4.3184,-4.3184,-4.3184,-4.3184,-4.3184,-4.3184,-4.3184,-4.3184,-4.3184,-4.3184,-4.349,-4.4451,-4.5391,-4.6002,-4.6002,-4.6002,-4.6002,-4.6002,-4.6002,-4.7287,-5.0293,-5.0576,-5.1837,-5.4965,-5.5099,-5.5099,-5.5099,-5.5099,-5.5099,-5.5099,-5.5099,-5.5099,-5.5099,-5.5099,-5.5099,-5.5099,-5.5099,-5.5099,-3.3631,0.0,0.0,-3.3086,0.0,-3.5413,-3.6729,-3.7059,-3.7595,-3.9866,-3.9888,-3.9735,-4.0149,-4.0279,-4.0279,-4.0279,-4.0279,-4.0279,-4.0279,-4.0279,-4.0279,-4.0279,-4.0279,-4.0279,-4.0279,-4.0279,-4.0279,-4.0279,-4.0279,-4.0279,-4.0279,-4.0279,-4.0279,-4.0279,-4.0279,-4.0279,-4.0279,-4.0279,-4.0279,-4.0279,-4.0279,-4.0782,-4.1699,-4.218,-4.2682,-4.3184,-4.3184,-4.3184,-4.3184,-4.3184,-4.3184,-4.3184,-4.3184,-4.3184,-4.3184,-4.3184,-4.3184,-4.3184,-4.3184,-4.3184,-4.3184,-4.3184,-4.3184,-4.3184,-4.3184,-4.3184,-4.3184,-4.3184,-4.3184,-4.3184,-4.3184,-4.3184,-4.3184,-4.3184,-4.3184,-4.3184,-4.3184,-4.3184,-4.3184,-4.3184,-4.3184,-4.3184,-4.3184,-4.3556,-4.4014,-4.4517,-4.5391,-4.6002,-4.6002,-4.6002,-4.6002,-4.6002,-4.6721,-4.8018,-5.0434,-5.1254,-5.2666,-5.4965,-5.5099,-5.5099,-5.5099,-5.5099,-5.5099,-5.5099,-5.5099,-5.5099,-5.5099,-5.5099,-5.5099,-5.5099,-5.5099,-5.5099,-3.2638,0.0,-3.2294,-3.3046,-3.419,0.0,-3.6519,-3.6654,-3.7193,-3.9473,-3.9341,-3.9078,-4.0149,-4.0279,-4.0279,-4.0279,-4.0279,-4.0279,-4.0279,-4.0279,-4.0279,-4.0279,-4.0279,-4.0279,-4.0279,-4.0279,-4.0279,-4.0279,-4.0279,-4.0279,-4.0279,-4.0279,-4.0279,-4.0279,-4.0279,-4.0279,-4.0279,-4.0279,-4.0279,-4.0279,-4.0454,-4.0935,-4.1721,-4.2726,-4.3184,-4.3184,-4.3184,-4.3184,-4.3184,-4.3184,-4.3184,-4.3184,-4.3184,-4.3184,-4.3184,-4.3184,-4.3184,-4.3184,-4.3184,-4.3184,-4.3184,-4.3184,-4.3184,-4.3184,-4.3184,-4.3184,-4.3184,-4.3184,-4.3184,-4.3184,-4.3184,-4.3184,-4.3184,-4.3184,-4.3184,-4.3184,-4.3184,-4.3184,-4.3184,-4.3184,-4.3184,-4.3184,-4.3184,-4.3971,-4.4582,-4.4582,-4.5391,-4.6002,-4.6002,-4.6002,-4.6002,-4.6002,-4.7457,-4.8864,-5.0434,-5.1951,-5.3513,-5.4965,-5.5099,-5.5099,-5.5099,-5.5099,-5.5099,-5.5099,-5.5099,-5.5099,-5.5099,-5.5099,-5.5099,-5.5099,-5.5099,-5.5099,-3.1873,0.0,-3.2625,0.0,-3.3661,-3.4352,-3.5412,-3.4883,-3.5158,-3.8262,-3.8814,-3.9078,-4.0149,-4.0279,-4.0279,-4.0279,-4.0279,-4.0279,-4.0279,-4.0279,-4.0279,-4.0279,-4.0279,-4.0279,-4.0279,-4.0279,-4.0279,-4.0279,-4.0279,-4.0279,-4.0279,-4.0279,-4.0279,-4.0279,-4.0279,-4.0279,-4.0279,-4.0279,-4.0279,-4.0279,-4.1109,-4.1568,-4.1721,-4.2726,-4.3184,-4.3184,-4.3184,-4.3184,-4.3184,-4.3184,-4.3184,-4.3184,-4.3184,-4.3184,-4.3184,-4.3184,-4.3184,-4.3184,-4.3184,-4.3184,-4.3184,-4.3184,-4.3184,-4.3184,-4.3184,-4.3184,-4.3184,-4.3184,-4.3184,-4.3184,-4.3184,-4.3184,-4.3184,-4.3184,-4.3184,-4.3184,-4.3184,-4.3184,-4.3184,-4.3184,-4.3184,-4.3184,-4.3184,-4.3971,-4.4582,-4.4582,-4.5391,-4.6002,-4.6002,-4.6002,-4.6002,-4.6002,-4.7457,-4.8864,-5.0434,-5.1951,-5.3513,-5.4965,-5.5099,-5.5099,-5.5099,-5.5099,-5.5099,-5.5099,-5.5099,-5.5099,-5.5099,-5.5099,-5.5099,-5.5099,-5.5099,-5.5099,-3.2059,-3.2877,-3.3838,-3.3587,-3.3688,-3.4075,-3.5139,-3.4609,-3.4765,-3.7996,-3.8129,-3.8262,-3.9997,-4.0279,-4.0279,-4.0279,-4.0279,-4.0279,-4.0279,-4.0279,-4.0279,-4.0279,-4.0279,-4.0279,-4.0279,-4.0279,-4.0279,-4.0279,-4.0279,-4.0279,-4.0279,-4.0279,-4.0279,-4.0279,-4.0279,-4.0279,-4.0279,-4.0279,-4.0279,-4.0279,-4.0978,-4.1437,-4.1721,-4.242,-4.29,-4.3184,-4.3184,-4.3184,-4.3184,-4.3184,-4.3184,-4.3184,-4.3184,-4.3184,-4.3184,-4.3184,-4.3184,-4.3184,-4.3184,-4.3184,-4.3184,-4.3184,-4.3184,-4.3184,-4.3184,-4.3184,-4.3184,-4.3184,-4.3184,-4.3184,-4.3184,-4.3184,-4.3184,-4.3184,-4.3184,-4.3184,-4.3184,-4.3184,-4.3184,-4.3184,-4.3184,-4.3184,-4.3184,-4.3971,-4.4582,-4.4582,-4.5391,-4.6002,-4.6002,-4.6002,-4.6002,-4.6002,-4.814,-4.9866,-5.0576,-5.2692,-5.4376,-5.5099,-5.5099,-5.5099,-5.5099,-5.5099,-5.5099,-5.5099,-5.5099,-5.5099,-5.5099,-5.5099,-5.5099,-5.5099,-5.5099,-5.5099,-3.2533,-3.3513,-3.4237,-3.3845,-3.3817,-3.3937,-3.4746,-3.4352,-3.4627,-3.7595,-3.7595,-3.7729,-3.9866,-4.0279,-4.0279,-4.0279,-4.0279,-4.0279,-4.0279,-4.0279,-4.0279,-4.0279,-4.0279,-4.0279,-4.0279,-4.0279,-4.0279,-4.0279,-4.0279,-4.0279,-4.0279,-4.0279,-4.0279,-4.0279,-4.0279,-4.0279,-4.0279,-4.0279,-4.0279,-4.0279,-4.0782,-4.124,-4.1699,-4.2201,-4.2704,-4.3184,-4.3184,-4.3184,-4.3184,-4.3184,-4.3184,-4.3184,-4.3184,-4.3184,-4.3184,-4.3184,-4.3184,-4.3184,-4.3184,-4.3184,-4.3184,-4.3184,-4.3184,-4.3184,-4.3184,-4.3184,-4.3184,-4.3184,-4.3184,-4.3184,-4.3184,-4.3184,-4.3184,-4.3184,-4.3184,-4.3184,-4.3184,-4.3184,-4.3184,-4.3184,-4.3184,-4.3206,-4.3337,-4.4036,-4.4626,-4.4757,-4.5478,-4.6002,-4.6002,-4.6002,-4.6002,-4.6002,-4.8719,-5.0576,-5.0576,-5.3402,-5.5099,-5.5099,-5.5099,-5.5099,-5.5099,-5.5099,-5.5099,-5.5099,-5.5099,-5.5099,-5.5099,-5.5099,-5.5099,-5.5099,-5.5099,-5.5099,-3.2973,-3.3211,-3.3321,-3.3707,-3.3817,-3.3817,-3.3817,-3.3817,-3.449,-3.6654,-3.7059,-3.7729,-3.9866,-4.0279,-4.0279,-4.0279,-4.0279,-4.0279,-4.0279,-4.0279,-4.0279,-4.0279,-4.0279,-4.0279,-4.0279,-4.0279,-4.0279,-4.0279,-4.0279,-4.0279,-4.0279,-4.0279,-4.0279,-4.0279,-4.0279,-4.0279,-4.0279,-4.0279,-4.0279,-4.0279,-4.0782,-4.124,-4.1699,-4.2201,-4.2704,-4.3184,-4.3184,-4.3184,-4.3184,-4.3184,-4.3184,-4.3184,-4.3184,-4.3184,-4.3184,-4.3184,-4.3184,-4.3184,-4.3184,-4.3184,-4.3184,-4.3184,-4.3184,-4.3184,-4.3184,-4.3184,-4.3184,-4.3184,-4.3184,-4.3184,-4.3184,-4.3184,-4.3184,-4.3184,-4.3184,-4.3184,-4.3184,-4.3184,-4.3184,-4.3184,-4.3184,-4.3316,-4.3752,-4.4255,-4.4757,-4.5216,-4.5696,-4.6002,-4.6002,-4.6002,-4.6002,-4.6002,-4.8719,-5.0576,-5.0576,-5.3402,-5.5099,-5.5099,-5.5099,-5.5099,-5.5099,-5.5099,-5.5099,-5.5099,-5.5099,-5.5099,-5.5099,-5.5099,-5.5099,-5.5099,-5.5099,-5.5099,-3.3274,-3.3942,-3.4421,-3.3918,-3.3817,-3.3817,-3.3817,-3.3817,-3.4352,-3.6519,-3.7059,-3.7729,-3.9866,-4.0279,-4.0279,-4.0279,-4.0279,-4.0279,-4.0279,-4.0279,-4.0279,-4.0279,-4.0279,-4.0279,-4.0279,-4.0279,-4.0279,-4.0279,-4.0279,-4.0279,-4.0279,-4.0279,-4.0279,-4.0279,-4.0279,-4.0279,-4.0279,-4.0279,-4.0279,-4.0279,-4.0454,-4.0935,-4.1699,-4.1874,-4.2398,-4.3184,-4.3184,-4.3184,-4.3184,-4.3184,-4.3184,-4.3184,-4.3184,-4.3184,-4.3184,-4.3184,-4.3184,-4.3184,-4.3184,-4.3184,-4.3184,-4.3184,-4.3184,-4.3184,-4.3184,-4.3184,-4.3184,-4.3184,-4.3184,-4.3184,-4.3184,-4.3184,-4.3184,-4.3184,-4.3184,-4.3184,-4.3184,-4.3184,-4.3184,-4.3184,-4.3184,-4.3316,-4.3774,-4.4255,-4.4757,-4.5238,-4.5718,-4.6002,-4.6002,-4.6002,-4.6002,-4.6002,-4.7872,-4.9581,-5.0576,-5.2391,-5.4081,-5.5099,-5.5099,-5.5099,-5.5099,-5.5099,-5.5099,-5.5099,-5.5099,-5.5099,-5.5099,-5.5099,-5.5099,-5.5099,-5.5099,-5.5099,-3.3513,-3.4147,-3.4746,-3.3937,-3.3817,-3.3817,-3.3817,-3.3817,-3.4352,-3.6093,-3.6769,-3.7575,-3.9473,-4.0018,-4.0279,-4.0279,-4.0279,-4.0279,-4.0279,-4.0279,-4.0279,-4.0279,-4.0279,-4.0279,-4.0279,-4.0279,-4.0279,-4.0279,-4.0279,-4.0279,-4.0279,-4.0279,-4.0279,-4.0279,-4.0279,-4.0279,-4.0279,-4.0279,-4.0279,-4.0279,-4.0279,-4.0694,-4.1459,-4.1612,-4.2136,-4.2922,-4.3097,-4.3184,-4.3184,-4.3184,-4.3184,-4.3184,-4.3184,-4.3184,-4.3184,-4.3184,-4.3184,-4.3184,-4.3184,-4.3184,-4.3184,-4.3184,-4.3184,-4.3184,-4.3184,-4.3184,-4.3184,-4.3184,-4.3184,-4.3184,-4.3184,-4.3184,-4.3184,-4.3184,-4.3184,-4.3184,-4.3184,-4.3184,-4.3184,-4.3184,-4.3184,-4.3381,-4.3993,-4.4386,-4.4801,-4.5456,-4.5806,-4.6002,-4.6002,-4.6002,-4.6002,-4.6002,-4.7872,-4.9438,-5.0576,-5.2391,-5.3945,-5.5099,-5.5099,-5.5099,-5.5099,-5.5099,-5.5099,-5.5099,-5.5099,-5.5099,-5.5099,-5.5099,-5.5099,-5.5099,-5.5099,-5.5099,0.0,0.0,0.0,-3.3817,-3.3817,-3.3817,-3.3817,-3.3817,-3.4075,-3.5139,-3.6209,-3.7287,-3.8528,-3.9604,-4.0279,-4.0279,-4.0279,-4.0279,-4.0279,-4.0279,-4.0279,-4.0279,-4.0279,-4.0279,-4.0279,-4.0279,-4.0279,-4.0279,-4.0279,-4.0279,-4.0279,-4.0279,-4.0279,-4.0279,-4.0279,-4.0279,-4.0279,-4.0279,-4.0279,-4.0279,-4.0279,-4.0541,-4.1022,-4.1481,-4.1961,-4.2442,-4.2966,-4.3184,-4.3184,-4.3184,-4.3184,-4.3184,-4.3184,-4.3184,-4.3184,-4.3184,-4.3184,-4.3184,-4.3184,-4.3184,-4.3184,-4.3184,-4.3184,-4.3184,-4.3184,-4.3184,-4.3184,-4.3184,-4.3184,-4.3184,-4.3184,-4.3184,-4.3184,-4.3184,-4.3184,-4.3184,-4.3184,-4.3184,-4.3184,-4.3184,-4.3184,-4.349,-4.443,-4.4582,-4.491,-4.5849,-4.6002,-4.6002,-4.6002,-4.6002,-4.6002,-4.6002,-4.8719,-5.0576,-5.0576,-5.3265,-5.5099,-5.5099,-5.5099,-5.5099,-5.5099,-5.5099,-5.5099,-5.5099,-5.5099,-5.5099,-5.5099,-5.5099,-5.5099,-5.5099,-5.5099,-5.5099,-3.378,0.0,0.0,0.0,0.0,0.0,-3.3817,-3.3817,-3.4075,-3.5139,-3.5685,-3.6499,-3.8395,-3.8946,-3.9341,-4.0149,-4.0279,-4.0279,-4.0279,-4.0279,-4.0279,-4.0279,-4.0279,-4.0279,-4.0279,-4.0279,-4.0279,-4.0279,-4.0279,-4.0279,-4.0279,-4.0279,-4.0279,-4.0279,-4.0279,-4.0279,-4.0279,-4.0279,-4.0279,-4.0279,-4.0279,-4.0541,-4.1022,-4.1481,-4.1961,-4.2442,-4.2966,-4.3184,-4.3184,-4.3184,-4.3184,-4.3184,-4.3184,-4.3184,-4.3184,-4.3184,-4.3184,-4.3184,-4.3184,-4.3184,-4.3184,-4.3184,-4.3184,-4.3184,-4.3184,-4.3184,-4.3184,-4.3184,-4.3184,-4.3184,-4.3184,-4.3184,-4.3184,-4.3184,-4.3184,-4.3184,-4.3184,-4.3184,-4.3184,-4.3184,-4.3184,-4.349,-4.443,-4.4582,-4.491,-4.5849,-4.6002,-4.6002,-4.6002,-4.6002,-4.6002,-4.6002,-4.7726,-4.9438,-5.0576,-5.2391,-5.3945,-5.5099,-5.5099,-5.5099,-5.5099,-5.5099,-5.5099,-5.5099,-5.5099,-5.5099,-5.5099,-5.5099,-5.5099,-5.5099,-5.5099,-5.5099,-3.3817,-3.3817,-3.3817,-3.3817,0.0,0.0,-3.3817,-3.3817,-3.3937,-3.4609,-3.5139,-3.5821,-3.7038,-3.8129,-3.8946,-3.9473,-4.0018,-4.0279,-4.0279,-4.0279,-4.0279,-4.0279,-4.0279,-4.0279,-4.0279,-4.0279,-4.0279,-4.0279,-4.0279,-4.0279,-4.0279,-4.0279,-4.0279,-4.0279,-4.0279,-4.0279,-4.0279,-4.0279,-4.0279,-4.0279,-4.0279,-4.0432,-4.0716,-4.1393,-4.1852,-4.2158,-4.2879,-4.3184,-4.3184,-4.3184,-4.3184,-4.3184,-4.3184,-4.3184,-4.3184,-4.3184,-4.3184,-4.3184,-4.3184,-4.3184,-4.3184,-4.3184,-4.3184,-4.3184,-4.3184,-4.3184,-4.3184,-4.3184,-4.3184,-4.3184,-4.3184,-4.3184,-4.3184,-4.3184,-4.3184,-4.3184,-4.3184,-4.3184,-4.3184,-4.3184,-4.3184,-4.349,-4.443,-4.4582,-4.491,-4.5849,-4.6002,-4.6002,-4.6002,-4.6002,-4.6002,-4.6002,-4.7457,-4.8864,-5.0434,-5.1951,-5.3513,-5.4965,-5.5099,-5.5099,-5.5099,-5.5099,-5.5099,-5.5099,-5.5099,-5.5099,-5.5099,-5.5099,-5.5099,-5.5099,-5.5099,-5.5099,-3.3817,-3.3817,-3.3817,-3.3817,-3.3817,0.0,-3.3817,-3.3817,-3.3817,-3.3817,-3.4609,-3.5275,-3.5412,-3.7038,-3.8395,-3.8549,-3.9473,-4.0149,-4.0279,-4.0279,-4.0279,-4.0279,-4.0279,-4.0279,-4.0279,-4.0279,-4.0279,-4.0279,-4.0279,-4.0279,-4.0279,-4.0279,-4.0279,-4.0279,-4.0279,-4.0279,-4.0279,-4.0279,-4.0279,-4.0279,-4.0279,-4.0279,-4.0301,-4.1262,-4.1699,-4.1743,-4.2748,-4.3184,-4.3184,-4.3184,-4.3184,-4.3184,-4.3184,-4.3184,-4.3184,-4.3184,-4.3184,-4.3184,-4.3184,-4.3184,-4.3184,-4.3184,-4.3184,-4.3184,-4.3184,-4.3184,-4.3184,-4.3184,-4.3184,-4.3184,-4.3184,-4.3184,-4.3184,-4.3184,-4.3184,-4.3184,-4.3184,-4.3184,-4.3184,-4.3184,-4.3184,-4.349,-4.443,-4.4582,-4.491,-4.5849,-4.6002,-4.6002,-4.6002,-4.6151,-4.6299,-4.6299,-4.7726,-4.9295,-5.0717,-5.2228,-5.3649,-5.4965,-5.5099,-5.5099,-5.5099,-5.5099,-5.5099,-5.5099,-5.5099,-5.5099,-5.5099,-5.5099,-5.5099,-5.5099,-5.5099,-5.5099,-3.3817,-3.3817,-3.3817,-3.3817,-3.3817,0.0,-3.3817,-3.3817,-3.3817,-3.3817,-3.3955,-3.4352,-3.5275,-3.5685,-3.6364,-3.7193,-3.8262,-3.9341,-4.0149,-4.0279,-4.0279,-4.0279,-4.0279,-4.0279,-4.0279,-4.0279,-4.0279,-4.0279,-4.0279,-4.0279,-4.0279,-4.0279,-4.0279,-4.0279,-4.0279,-4.0279,-4.0279,-4.0279,-4.0279,-4.0279,-4.0279,-4.0279,-4.0301,-4.1262,-4.1699,-4.1743,-4.2748,-4.3184,-4.3184,-4.3184,-4.3184,-4.3184,-4.3184,-4.3184,-4.3184,-4.3184,-4.3184,-4.3184,-4.3184,-4.3184,-4.3184,-4.3184,-4.3184,-4.3184,-4.3184,-4.3184,-4.3184,-4.3184,-4.3184,-4.3184,-4.3184,-4.3184,-4.3184,-4.3184,-4.3184,-4.3184,-4.3184,-4.3184,-4.3184,-4.3184,-4.3184,-4.349,-4.443,-4.4582,-4.491,-4.5849,-4.6002,-4.6002,-4.6002,-4.7016,-4.7872,-4.7872,-5.0269,-5.209,-5.2366,-5.381,-5.4805,-5.5099,-5.5099,-5.5099,-5.5099,-5.5099,-5.5099,-5.5099,-5.5099,-5.5099,-5.5099,-5.5099,-5.5099,-5.5099,-5.5099,-5.5099,-3.3817,-3.3817,-3.3817,-3.3817,-3.3817,0.0,0.0,-3.3817,-3.3817,-3.3817,-3.3817,-3.3937,-3.4471,-3.5021,-3.5549,-3.6093,-3.7173,-3.7996,-3.8528,-3.9604,-4.0279,-4.0279,-4.0279,-4.0279,-4.0279,-4.0279,-4.0279,-4.0279,-4.0279,-4.0279,-4.0279,-4.0279,-4.0279,-4.0279,-4.0279,-4.0279,-4.0279,-4.0279,-4.0279,-4.0279,-4.0279,-4.0279,-4.0301,-4.1262,-4.1699,-4.1743,-4.2748,-4.3184,-4.3184,-4.3184,-4.3184,-4.3184,-4.3184,-4.3184,-4.3184,-4.3184,-4.3184,-4.3184,-4.3184,-4.3184,-4.3184,-4.3184,-4.3184,-4.3184,-4.3184,-4.3184,-4.3184,-4.3184,-4.3184,-4.3184,-4.3184,-4.3184,-4.3184,-4.3184,-4.3184,-4.3184,-4.3184,-4.3184,-4.3184,-4.3184,-4.3359,-4.3752,-4.4473,-4.4582,-4.491,-4.5849,-4.6002,-4.6002,-4.6002,-4.7287,-4.8308,-4.8308,-5.0269,-5.1951,-5.2779,-5.3513,-5.4241,-5.5099,-5.5099,-5.5099,-5.5099,-5.5099,-5.5099,-5.5099,-5.5099,-5.5232,-5.5365,-5.5365,-5.5232,-5.5099,-5.5099,-5.5099,-3.3817,-3.3817,-3.3817,-3.3817,-3.3817,-3.3817,0.0,0.0,0.0,-3.3817,-3.3817,-3.3817,-3.3817,-3.449,-3.5139,-3.5139,-3.5957,-3.6634,-3.6634,-3.866,-4.0018,-4.0018,-4.0149,-4.0279,-4.0279,-4.0279,-4.0279,-4.0279,-4.0279,-4.0279,-4.0279,-4.0279,-4.0279,-4.0279,-4.0279,-4.0279,-4.0279,-4.0279,-4.0279,-4.0279,-4.0279,-4.0279,-4.0301,-4.1175,-4.1612,-4.1743,-4.2638,-4.3097,-4.3184,-4.3184,-4.3184,-4.3184,-4.3184,-4.3184,-4.3184,-4.3184,-4.3184,-4.3184,-4.3184,-4.3184,-4.3184,-4.3184,-4.3184,-4.3184,-4.3184,-4.3184,-4.3184,-4.3184,-4.3184,-4.3184,-4.3184,-4.3184,-4.3184,-4.3184,-4.3184,-4.3184,-4.3184,-4.3184,-4.3184,-4.3184,-4.3556,-4.4014,-4.4495,-4.467,-4.5019,-4.5871,-4.6002,-4.6002,-4.6002,-4.758,-4.8719,-4.8719,-5.0434,-5.1976,-5.3078,-5.3215,-5.3784,-5.4965,-5.5099,-5.5099,-5.5099,-5.5099,-5.5099,-5.5232,-5.5099,-5.5365,-5.5736,-5.5604,-5.5498,-5.5232,-5.5232,-5.5099,-3.3817,-3.3817,-3.3817,-3.3817,-3.3817,-3.3817,-3.3817,0.0,-3.3817,-3.3817,0.0,-3.3817,-3.3817,0.0,0.0,-3.3937,-3.4883,-3.5549,-3.5549,-3.7441,-3.8946,-3.8946,-3.9735,-4.0279,-4.0279,-4.0279,-4.0279,-4.0279,-4.0279,-4.0279,-4.0279,-4.0279,-4.0279,-4.0279,-4.0279,-4.0279,-4.0279,-4.0279,-4.0279,-4.0279,-4.0279,-4.0279,-4.0301,-4.0847,-4.1306,-4.1721,-4.2267,-4.2769,-4.3184,-4.3184,-4.3184,-4.3184,-4.3184,-4.3184,-4.3184,-4.3184,-4.3184,-4.3184,-4.3184,-4.3184,-4.3184,-4.3184,-4.3184,-4.3184,-4.3184,-4.3184,-4.3184,-4.3184,-4.3184,-4.3184,-4.3184,-4.3184,-4.3184,-4.3184,-4.3184,-4.3184,-4.3184,-4.3184,-4.3184,-4.3184,-4.3556,-4.4014,-4.4495,-4.4954,-4.5412,-4.5915,-4.6002,-4.6002,-4.6002,-4.8575,-5.0293,-5.0293,-5.2829,-5.4671,-5.4805,-5.4805,-5.4965,-5.5099,-5.5099,-5.5099,-5.5099,-5.5099,-5.5232,-5.5472,-5.5232,-5.5365,-5.6,-5.5736,-5.5604,-5.5472,-5.5472,-5.5365,-3.3817,-3.3817,-3.3817,-3.3817,-3.3817,-3.3817,-3.3817,-3.3817,-3.3817,-3.3817,0.0,0.0,0.0,0.0,0.0,0.0,-3.4214,-3.4471,-3.4471,-3.5821,-3.7307,-3.8549,-3.9604,-4.0279,-4.0279,-4.0279,-4.0279,-4.0279,-4.0279,-4.0279,-4.0279,-4.0279,-4.0279,-4.0279,-4.0279,-4.0279,-4.0279,-4.0279,-4.0279,-4.0279,-4.0279,-4.0279,-4.0301,-4.0782,-4.1262,-4.1721,-4.2201,-4.2704,-4.3184,-4.3184,-4.3184,-4.3184,-4.3184,-4.3184,-4.3184,-4.3184,-4.3184,-4.3184,-4.3184,-4.3184,-4.3184,-4.3184,-4.3184,-4.3184,-4.3184,-4.3184,-4.3184,-4.3184,-4.3184,-4.3184,-4.3184,-4.3184,-4.3184,-4.3184,-4.3184,-4.3184,-4.3184,-4.3184,-4.3184,-4.3184,-4.3774,-4.4342,-4.4561,-4.4997,-4.5478,-4.5937,-4.6002,-4.6002,-4.6002,-4.7872,-4.9581,-5.0576,-5.2529,-5.4081,-5.4965,-5.5099,-5.5099,-5.5099,-5.5099,-5.5232,-5.5365,-5.5365,-5.5604,-5.5868,-5.5736,-5.5868,-5.6394,-5.6263,-5.6289,-5.6263,-5.6,-5.5868,-3.3817,-3.3817,-3.3817,-3.3817,-3.3817,-3.3817,-3.3817,-3.3817,-3.3817,-3.3817,-3.3817,0.0,0.0,0.0,-3.3817,-3.3817,0.0,-3.3817,-3.3817,-3.4746,-3.5957,-3.7595,-3.9078,-4.0018,-4.0279,-4.0279,-4.0279,-4.0279,-4.0279,-4.0279,-4.0279,-4.0279,-4.0279,-4.0279,-4.0279,-4.0279,-4.0279,-4.0279,-4.0279,-4.0279,-4.0279,-4.0279,-4.0301,-4.0651,-4.1131,-4.1699,-4.207,-4.2595,-4.3184,-4.3184,-4.3184,-4.3184,-4.3184,-4.3184,-4.3184,-4.3184,-4.3184,-4.3184,-4.3184,-4.3184,-4.3184,-4.3184,-4.3184,-4.3184,-4.3184,-4.3184,-4.3184,-4.3184,-4.3184,-4.3184,-4.3184,-4.3184,-4.3184,-4.3184,-4.3184,-4.3184,-4.3184,-4.3184,-4.3206,-4.3337,-4.4036,-4.4626,-4.4757,-4.5194,-4.5609,-4.6255,-4.6151,-4.6151,-4.6299,-4.7457,-4.8864,-5.0434,-5.1951,-5.3513,-5.5099,-5.5232,-5.5232,-5.5365,-5.5365,-5.5472,-5.5736,-5.5736,-5.5868,-5.6263,-5.6132,-5.6394,-5.6812,-5.6812,-5.6812,-5.6812,-5.6394,-5.6263,-3.3817,-3.3817,-3.3817,-3.3817,-3.3817,-3.3817,-3.3817,-3.3817,-3.3817,-3.3817,-3.3817,-3.3817,-3.3817,-3.3817,-3.3817,-3.3817,-3.3817,0.0,0.0,-3.4746,-3.5412,-3.5549,-3.7461,-3.921,-4.0149,-4.0279,-4.0279,-4.0279,-4.0279,-4.0279,-4.0279,-4.0279,-4.0279,-4.0279,-4.0279,-4.0279,-4.0279,-4.0279,-4.0279,-4.0279,-4.0279,-4.0279,-4.0279,-4.0301,-4.0804,-4.1699,-4.1699,-4.2267,-4.3184,-4.3184,-4.3184,-4.3184,-4.3184,-4.3184,-4.3184,-4.3184,-4.3184,-4.3184,-4.3184,-4.3184,-4.3184,-4.3184,-4.3184,-4.3184,-4.3184,-4.3184,-4.3184,-4.3184,-4.3184,-4.3184,-4.3184,-4.3184,-4.3184,-4.3184,-4.3184,-4.3184,-4.3184,-4.3184,-4.3316,-4.3752,-4.4255,-4.4735,-4.5216,-4.5675,-4.6277,-4.7038,-4.6448,-4.6299,-4.7038,-4.7895,-4.8864,-5.0434,-5.1951,-5.3487,-5.5472,-5.5604,-5.5736,-5.6,-5.6132,-5.6132,-5.6132,-5.6132,-5.6263,-5.6682,-5.6263,-5.6524,-5.7174,-5.6812,-5.6942,-5.7174,-5.6812,-5.6524,-3.3817,-3.3817,-3.3817,-3.3817,-3.3817,-3.3817,-3.3817,-3.3817,-3.3817,-3.3817,-3.3817,-3.3817,-3.3817,-3.3817,-3.3817,-3.3817,-3.3817,-3.3817,0.0,-3.4075,-3.4609,-3.5275,-3.6634,-3.7996,-3.9078,-3.921,-3.9473,-4.0279,-4.0279,-4.0279,-4.0279,-4.0279,-4.0279,-4.0279,-4.0279,-4.0279,-4.0279,-4.0279,-4.0279,-4.0279,-4.0279,-4.0279,-4.0279,-4.0279,-4.0804,-4.1699,-4.1699,-4.2267,-4.3184,-4.3184,-4.3184,-4.3184,-4.3184,-4.3184,-4.3184,-4.3184,-4.3184,-4.3184,-4.3184,-4.3184,-4.3184,-4.3184,-4.3184,-4.3184,-4.3184,-4.3184,-4.3184,-4.3184,-4.3184,-4.3184,-4.3184,-4.3184,-4.3184,-4.3184,-4.3184,-4.3184,-4.3184,-4.3184,-4.3316,-4.3774,-4.4255,-4.4735,-4.5238,-4.5696,-4.6299,-4.7038,-4.6891,-4.6891,-4.7186,-4.7479,-4.8308,-5.0434,-5.1254,-5.2779,-5.5339,-5.5736,-5.6,-5.6132,-5.6132,-5.6263,-5.6524,-5.6524,-5.6655,-5.7044,-5.6915,-5.6915,-5.7174,-5.7044,-5.7044,-5.7174,-5.7044,-5.6915,-3.3817,-3.3817,-3.3817,-3.3817,-3.3817,-3.3817,-3.3817,-3.3817,-3.3817,-3.3817,-3.3817,-3.3817,-3.3817,-3.3817,-3.3817,-3.3817,-3.3817,-3.3817,0.0,-3.3817,-3.4075,-3.4746,-3.5821,-3.7038,-3.8549,-3.8681,-3.9078,-4.0279,-4.0279,-4.0279,-4.0279,-4.0279,-4.0279,-4.0279,-4.0279,-4.0279,-4.0279,-4.0279,-4.0279,-4.0279,-4.0279,-4.0279,-4.0279,-4.0279,-4.0804,-4.1699,-4.1699,-4.2267,-4.3184,-4.3184,-4.3184,-4.3184,-4.3184,-4.3184,-4.3184,-4.3184,-4.3184,-4.3184,-4.3184,-4.3184,-4.3184,-4.3184,-4.3184,-4.3184,-4.3184,-4.3184,-4.3206,-4.3381,-4.3294,-4.3206,-4.3381,-4.3294,-4.3184,-4.3184,-4.3184,-4.3184,-4.3184,-4.3184,-4.3359,-4.3993,-4.4364,-4.4801,-4.5456,-4.5806,-4.6299,-4.7502,-4.7749,-4.8041,-4.8453,-4.8308,-4.9008,-5.0998,-5.1394,-5.2779,-5.5736,-5.6263,-5.6524,-5.6524,-5.6524,-5.6655,-5.6942,-5.6942,-5.6942,-5.7174,-5.7174,-5.7174,-5.7174,-5.7174,-5.7174,-5.7174,-5.7174,-5.7174]}]]